<?xml version="1.0" encoding="UTF-8" standalone="yes"?>
<gpx
 xmlns="http://www.topografix.com/GPX/1/1"
 creator="OziExplorer Version 3956f - http://www.oziexplorer.com"
 version="1.1"
 xmlns:xsi="http://www.w3.org/2001/XMLSchema-instance"
 xsi:schemaLocation="http://www.topografix.com/GPX/1/1 http://www.topografix.com/GPX/1/1/gpx.xsd">
<metadata>
 <time>2022-03-15T07:19:22Z</time>
 <bounds minlat="31.147650" minlon="35.235040" maxlat="31.277540" maxlon="35.369920"/>
</metadata>
<trk>
 <name>Arad-Menahem-Sin_V3_40km.500m</name>
 <desc>Arad-Menahem-Sin_V3_40km.500m</desc>
<trkseg>
<trkpt lat="31.2603800" lon="35.2350400">
<ele>601.650024</ele>
<time>2022-03-15T09:19:22.265Z</time>
</trkpt>
<trkpt lat="31.2604200" lon="35.2350400">
<ele>601.789978</ele>
<time>2022-03-15T09:19:22.265Z</time>
</trkpt>
<trkpt lat="31.2604300" lon="35.2351800">
<ele>599.309998</ele>
<time>2022-03-15T09:19:22.265Z</time>
</trkpt>
<trkpt lat="31.2604300" lon="35.2354000">
<ele>596.470032</ele>
<time>2022-03-15T09:19:22.265Z</time>
</trkpt>
<trkpt lat="31.2604400" lon="35.2355600">
<ele>595.140015</ele>
<time>2022-03-15T09:19:22.265Z</time>
</trkpt>
<trkpt lat="31.2604500" lon="35.2358900">
<ele>593.039978</ele>
<time>2022-03-15T09:19:22.266Z</time>
</trkpt>
<trkpt lat="31.2604800" lon="35.2362100">
<ele>592.459961</ele>
<time>2022-03-15T09:19:22.266Z</time>
</trkpt>
<trkpt lat="31.2605400" lon="35.2365800">
<ele>592.119995</ele>
<time>2022-03-15T09:19:22.266Z</time>
</trkpt>
<trkpt lat="31.2606500" lon="35.2370100">
<ele>589.670044</ele>
<time>2022-03-15T09:19:22.266Z</time>
</trkpt>
<trkpt lat="31.2607600" lon="35.2374100">
<ele>588.089966</ele>
<time>2022-03-15T09:19:22.266Z</time>
</trkpt>
<trkpt lat="31.2608800" lon="35.2377800">
<ele>587.479980</ele>
<time>2022-03-15T09:19:22.266Z</time>
</trkpt>
<trkpt lat="31.2609900" lon="35.2380800">
<ele>585.940002</ele>
<time>2022-03-15T09:19:22.266Z</time>
</trkpt>
<trkpt lat="31.2610200" lon="35.2381400">
<ele>585.510010</ele>
<time>2022-03-15T09:19:22.266Z</time>
</trkpt>
<trkpt lat="31.2612000" lon="35.2385400">
<ele>581.020020</ele>
<time>2022-03-15T09:19:22.266Z</time>
</trkpt>
<trkpt lat="31.2612100" lon="35.2385700">
<ele>580.590027</ele>
<time>2022-03-15T09:19:22.266Z</time>
</trkpt>
<trkpt lat="31.2615500" lon="35.2393200">
<ele>570.220032</ele>
<time>2022-03-15T09:19:22.266Z</time>
</trkpt>
<trkpt lat="31.2615700" lon="35.2395800">
<ele>568.529968</ele>
<time>2022-03-15T09:19:22.266Z</time>
</trkpt>
<trkpt lat="31.2614300" lon="35.2402200">
<ele>556.169983</ele>
<time>2022-03-15T09:19:22.266Z</time>
</trkpt>
<trkpt lat="31.2612600" lon="35.2407300">
<ele>538.559998</ele>
<time>2022-03-15T09:19:22.266Z</time>
</trkpt>
<trkpt lat="31.2607700" lon="35.2415800">
<ele>544.720032</ele>
<time>2022-03-15T09:19:22.266Z</time>
</trkpt>
<trkpt lat="31.2605500" lon="35.2421200">
<ele>539.840027</ele>
<time>2022-03-15T09:19:22.266Z</time>
</trkpt>
<trkpt lat="31.2605500" lon="35.2421200">
<ele>539.840027</ele>
<time>2022-03-15T09:19:22.267Z</time>
</trkpt>
<trkpt lat="31.2604700" lon="35.2423200">
<ele>536.479980</ele>
<time>2022-03-15T09:19:22.267Z</time>
</trkpt>
<trkpt lat="31.2595200" lon="35.2439500">
<ele>518.619995</ele>
<time>2022-03-15T09:19:22.267Z</time>
</trkpt>
<trkpt lat="31.2594700" lon="35.2440600">
<ele>513.419983</ele>
<time>2022-03-15T09:19:22.267Z</time>
</trkpt>
<trkpt lat="31.2589700" lon="35.2450800">
<ele>499.519989</ele>
<time>2022-03-15T09:19:22.267Z</time>
</trkpt>
<trkpt lat="31.2588700" lon="35.2455800">
<ele>493.780029</ele>
<time>2022-03-15T09:19:22.267Z</time>
</trkpt>
<trkpt lat="31.2588200" lon="35.2456400">
<ele>493.449982</ele>
<time>2022-03-15T09:19:22.267Z</time>
</trkpt>
<trkpt lat="31.2591000" lon="35.2457300">
<ele>489.150024</ele>
<time>2022-03-15T09:19:22.267Z</time>
</trkpt>
<trkpt lat="31.2590400" lon="35.2459400">
<ele>485.619995</ele>
<time>2022-03-15T09:19:22.267Z</time>
</trkpt>
<trkpt lat="31.2588100" lon="35.2462000">
<ele>486.130005</ele>
<time>2022-03-15T09:19:22.267Z</time>
</trkpt>
<trkpt lat="31.2590200" lon="35.2462900">
<ele>480.570007</ele>
<time>2022-03-15T09:19:22.267Z</time>
</trkpt>
<trkpt lat="31.2592100" lon="35.2463500">
<ele>475.940002</ele>
<time>2022-03-15T09:19:22.267Z</time>
</trkpt>
<trkpt lat="31.2590500" lon="35.2465900">
<ele>473.870026</ele>
<time>2022-03-15T09:19:22.267Z</time>
</trkpt>
<trkpt lat="31.2593500" lon="35.2465900">
<ele>468.359985</ele>
<time>2022-03-15T09:19:22.267Z</time>
</trkpt>
<trkpt lat="31.2593000" lon="35.2469000">
<ele>462.899994</ele>
<time>2022-03-15T09:19:22.267Z</time>
</trkpt>
<trkpt lat="31.2594400" lon="35.2472500">
<ele>459.899994</ele>
<time>2022-03-15T09:19:22.268Z</time>
</trkpt>
<trkpt lat="31.2596300" lon="35.2479500">
<ele>456.459991</ele>
<time>2022-03-15T09:19:22.268Z</time>
</trkpt>
<trkpt lat="31.2596100" lon="35.2482400">
<ele>456.260010</ele>
<time>2022-03-15T09:19:22.268Z</time>
</trkpt>
<trkpt lat="31.2594100" lon="35.2486900">
<ele>454.160004</ele>
<time>2022-03-15T09:19:22.268Z</time>
</trkpt>
<trkpt lat="31.2593700" lon="35.2491000">
<ele>446.900024</ele>
<time>2022-03-15T09:19:22.268Z</time>
</trkpt>
<trkpt lat="31.2593200" lon="35.2494400">
<ele>439.830017</ele>
<time>2022-03-15T09:19:22.268Z</time>
</trkpt>
<trkpt lat="31.2591900" lon="35.2496500">
<ele>435.080017</ele>
<time>2022-03-15T09:19:22.268Z</time>
</trkpt>
<trkpt lat="31.2592300" lon="35.2500700">
<ele>432.190002</ele>
<time>2022-03-15T09:19:22.268Z</time>
</trkpt>
<trkpt lat="31.2592300" lon="35.2500900">
<ele>431.950012</ele>
<time>2022-03-15T09:19:22.268Z</time>
</trkpt>
<trkpt lat="31.2592300" lon="35.2500900">
<ele>431.950012</ele>
<time>2022-03-15T09:19:22.268Z</time>
</trkpt>
<trkpt lat="31.2593300" lon="35.2505100">
<ele>426.899994</ele>
<time>2022-03-15T09:19:22.268Z</time>
</trkpt>
<trkpt lat="31.2594600" lon="35.2506000">
<ele>425.200012</ele>
<time>2022-03-15T09:19:22.268Z</time>
</trkpt>
<trkpt lat="31.2596400" lon="35.2505900">
<ele>423.480011</ele>
<time>2022-03-15T09:19:22.268Z</time>
</trkpt>
<trkpt lat="31.2595600" lon="35.2507900">
<ele>421.730011</ele>
<time>2022-03-15T09:19:22.268Z</time>
</trkpt>
<trkpt lat="31.2594700" lon="35.2511300">
<ele>415.630005</ele>
<time>2022-03-15T09:19:22.269Z</time>
</trkpt>
<trkpt lat="31.2594400" lon="35.2515100">
<ele>411.150024</ele>
<time>2022-03-15T09:19:22.269Z</time>
</trkpt>
<trkpt lat="31.2593200" lon="35.2517700">
<ele>410.689972</ele>
<time>2022-03-15T09:19:22.269Z</time>
</trkpt>
<trkpt lat="31.2589100" lon="35.2523100">
<ele>419.959991</ele>
<time>2022-03-15T09:19:22.269Z</time>
</trkpt>
<trkpt lat="31.2585300" lon="35.2526700">
<ele>410.869995</ele>
<time>2022-03-15T09:19:22.269Z</time>
</trkpt>
<trkpt lat="31.2581800" lon="35.2535500">
<ele>402.080017</ele>
<time>2022-03-15T09:19:22.269Z</time>
</trkpt>
<trkpt lat="31.2573900" lon="35.2547500">
<ele>407.670013</ele>
<time>2022-03-15T09:19:22.269Z</time>
</trkpt>
<trkpt lat="31.2571200" lon="35.2556800">
<ele>401.359985</ele>
<time>2022-03-15T09:19:22.269Z</time>
</trkpt>
<trkpt lat="31.2574000" lon="35.2562400">
<ele>399.880005</ele>
<time>2022-03-15T09:19:22.269Z</time>
</trkpt>
<trkpt lat="31.2575900" lon="35.2564800">
<ele>394.529999</ele>
<time>2022-03-15T09:19:22.269Z</time>
</trkpt>
<trkpt lat="31.2578500" lon="35.2569200">
<ele>391.369995</ele>
<time>2022-03-15T09:19:22.269Z</time>
</trkpt>
<trkpt lat="31.2580400" lon="35.2573700">
<ele>392.069977</ele>
<time>2022-03-15T09:19:22.269Z</time>
</trkpt>
<trkpt lat="31.2580800" lon="35.2575000">
<ele>390.500000</ele>
<time>2022-03-15T09:19:22.269Z</time>
</trkpt>
<trkpt lat="31.2581200" lon="35.2576900">
<ele>386.529999</ele>
<time>2022-03-15T09:19:22.269Z</time>
</trkpt>
<trkpt lat="31.2581400" lon="35.2579900">
<ele>381.940002</ele>
<time>2022-03-15T09:19:22.269Z</time>
</trkpt>
<trkpt lat="31.2581000" lon="35.2583100">
<ele>381.610016</ele>
<time>2022-03-15T09:19:22.269Z</time>
</trkpt>
<trkpt lat="31.2581000" lon="35.2585500">
<ele>383.529999</ele>
<time>2022-03-15T09:19:22.269Z</time>
</trkpt>
<trkpt lat="31.2581100" lon="35.2587200">
<ele>383.549988</ele>
<time>2022-03-15T09:19:22.269Z</time>
</trkpt>
<trkpt lat="31.2580800" lon="35.2589300">
<ele>386.059998</ele>
<time>2022-03-15T09:19:22.269Z</time>
</trkpt>
<trkpt lat="31.2580400" lon="35.2590300">
<ele>389.620026</ele>
<time>2022-03-15T09:19:22.270Z</time>
</trkpt>
<trkpt lat="31.2579900" lon="35.2591000">
<ele>392.209991</ele>
<time>2022-03-15T09:19:22.270Z</time>
</trkpt>
<trkpt lat="31.2578100" lon="35.2592700">
<ele>398.050018</ele>
<time>2022-03-15T09:19:22.270Z</time>
</trkpt>
<trkpt lat="31.2575800" lon="35.2594400">
<ele>400.190002</ele>
<time>2022-03-15T09:19:22.270Z</time>
</trkpt>
<trkpt lat="31.2575000" lon="35.2595600">
<ele>400.169983</ele>
<time>2022-03-15T09:19:22.270Z</time>
</trkpt>
<trkpt lat="31.2572800" lon="35.2601000">
<ele>397.719971</ele>
<time>2022-03-15T09:19:22.270Z</time>
</trkpt>
<trkpt lat="31.2572300" lon="35.2603100">
<ele>397.490021</ele>
<time>2022-03-15T09:19:22.270Z</time>
</trkpt>
<trkpt lat="31.2571300" lon="35.2606200">
<ele>391.609985</ele>
<time>2022-03-15T09:19:22.270Z</time>
</trkpt>
<trkpt lat="31.2571400" lon="35.2607100">
<ele>389.710022</ele>
<time>2022-03-15T09:19:22.270Z</time>
</trkpt>
<trkpt lat="31.2572000" lon="35.2608900">
<ele>386.610016</ele>
<time>2022-03-15T09:19:22.270Z</time>
</trkpt>
<trkpt lat="31.2572200" lon="35.2610200">
<ele>385.660004</ele>
<time>2022-03-15T09:19:22.270Z</time>
</trkpt>
<trkpt lat="31.2572300" lon="35.2611600">
<ele>384.879974</ele>
<time>2022-03-15T09:19:22.270Z</time>
</trkpt>
<trkpt lat="31.2572300" lon="35.2611600">
<ele>384.879974</ele>
<time>2022-03-15T09:19:22.270Z</time>
</trkpt>
<trkpt lat="31.2572500" lon="35.2614700">
<ele>383.869995</ele>
<time>2022-03-15T09:19:22.270Z</time>
</trkpt>
<trkpt lat="31.2572000" lon="35.2618200">
<ele>382.459991</ele>
<time>2022-03-15T09:19:22.270Z</time>
</trkpt>
<trkpt lat="31.2571700" lon="35.2622100">
<ele>383.700012</ele>
<time>2022-03-15T09:19:22.271Z</time>
</trkpt>
<trkpt lat="31.2571800" lon="35.2624000">
<ele>382.519989</ele>
<time>2022-03-15T09:19:22.271Z</time>
</trkpt>
<trkpt lat="31.2572000" lon="35.2625900">
<ele>381.400024</ele>
<time>2022-03-15T09:19:22.271Z</time>
</trkpt>
<trkpt lat="31.2571900" lon="35.2630000">
<ele>382.059998</ele>
<time>2022-03-15T09:19:22.271Z</time>
</trkpt>
<trkpt lat="31.2571700" lon="35.2631400">
<ele>383.529999</ele>
<time>2022-03-15T09:19:22.271Z</time>
</trkpt>
<trkpt lat="31.2571100" lon="35.2632700">
<ele>385.579987</ele>
<time>2022-03-15T09:19:22.271Z</time>
</trkpt>
<trkpt lat="31.2570700" lon="35.2634200">
<ele>387.310028</ele>
<time>2022-03-15T09:19:22.271Z</time>
</trkpt>
<trkpt lat="31.2570200" lon="35.2638000">
<ele>383.869995</ele>
<time>2022-03-15T09:19:22.271Z</time>
</trkpt>
<trkpt lat="31.2569100" lon="35.2643200">
<ele>375.720001</ele>
<time>2022-03-15T09:19:22.271Z</time>
</trkpt>
<trkpt lat="31.2568400" lon="35.2651000">
<ele>363.009979</ele>
<time>2022-03-15T09:19:22.271Z</time>
</trkpt>
<trkpt lat="31.2568600" lon="35.2656700">
<ele>362.019989</ele>
<time>2022-03-15T09:19:22.271Z</time>
</trkpt>
<trkpt lat="31.2568900" lon="35.2659600">
<ele>362.760010</ele>
<time>2022-03-15T09:19:22.271Z</time>
</trkpt>
<trkpt lat="31.2569400" lon="35.2663400">
<ele>362.189972</ele>
<time>2022-03-15T09:19:22.271Z</time>
</trkpt>
<trkpt lat="31.2569800" lon="35.2670900">
<ele>356.899994</ele>
<time>2022-03-15T09:19:22.271Z</time>
</trkpt>
<trkpt lat="31.2570500" lon="35.2674400">
<ele>354.500000</ele>
<time>2022-03-15T09:19:22.271Z</time>
</trkpt>
<trkpt lat="31.2570600" lon="35.2677400">
<ele>353.369995</ele>
<time>2022-03-15T09:19:22.271Z</time>
</trkpt>
<trkpt lat="31.2571300" lon="35.2681500">
<ele>343.500000</ele>
<time>2022-03-15T09:19:22.271Z</time>
</trkpt>
<trkpt lat="31.2571100" lon="35.2684400">
<ele>338.649994</ele>
<time>2022-03-15T09:19:22.271Z</time>
</trkpt>
<trkpt lat="31.2571500" lon="35.2685200">
<ele>336.559998</ele>
<time>2022-03-15T09:19:22.272Z</time>
</trkpt>
<trkpt lat="31.2572500" lon="35.2686200">
<ele>333.299988</ele>
<time>2022-03-15T09:19:22.272Z</time>
</trkpt>
<trkpt lat="31.2573000" lon="35.2687100">
<ele>332.139984</ele>
<time>2022-03-15T09:19:22.272Z</time>
</trkpt>
<trkpt lat="31.2574100" lon="35.2691600">
<ele>329.630005</ele>
<time>2022-03-15T09:19:22.272Z</time>
</trkpt>
<trkpt lat="31.2574700" lon="35.2691900">
<ele>328.869995</ele>
<time>2022-03-15T09:19:22.272Z</time>
</trkpt>
<trkpt lat="31.2575800" lon="35.2692100">
<ele>327.380005</ele>
<time>2022-03-15T09:19:22.272Z</time>
</trkpt>
<trkpt lat="31.2576800" lon="35.2692700">
<ele>326.410004</ele>
<time>2022-03-15T09:19:22.272Z</time>
</trkpt>
<trkpt lat="31.2578100" lon="35.2694200">
<ele>325.450012</ele>
<time>2022-03-15T09:19:22.272Z</time>
</trkpt>
<trkpt lat="31.2579800" lon="35.2695300">
<ele>325.360016</ele>
<time>2022-03-15T09:19:22.272Z</time>
</trkpt>
<trkpt lat="31.2581500" lon="35.2696700">
<ele>324.599976</ele>
<time>2022-03-15T09:19:22.272Z</time>
</trkpt>
<trkpt lat="31.2586100" lon="35.2701200">
<ele>310.940002</ele>
<time>2022-03-15T09:19:22.273Z</time>
</trkpt>
<trkpt lat="31.2589600" lon="35.2703500">
<ele>306.829987</ele>
<time>2022-03-15T09:19:22.273Z</time>
</trkpt>
<trkpt lat="31.2596000" lon="35.2706700">
<ele>298.360016</ele>
<time>2022-03-15T09:19:22.273Z</time>
</trkpt>
<trkpt lat="31.2598600" lon="35.2707700">
<ele>294.140015</ele>
<time>2022-03-15T09:19:22.273Z</time>
</trkpt>
<trkpt lat="31.2599900" lon="35.2707900">
<ele>290.869995</ele>
<time>2022-03-15T09:19:22.273Z</time>
</trkpt>
<trkpt lat="31.2599900" lon="35.2707900">
<ele>290.869995</ele>
<time>2022-03-15T09:19:22.273Z</time>
</trkpt>
<trkpt lat="31.2603700" lon="35.2708300">
<ele>283.040009</ele>
<time>2022-03-15T09:19:22.273Z</time>
</trkpt>
<trkpt lat="31.2604600" lon="35.2708700">
<ele>282.869995</ele>
<time>2022-03-15T09:19:22.273Z</time>
</trkpt>
<trkpt lat="31.2606600" lon="35.2710700">
<ele>282.540009</ele>
<time>2022-03-15T09:19:22.273Z</time>
</trkpt>
<trkpt lat="31.2607900" lon="35.2711100">
<ele>283.550018</ele>
<time>2022-03-15T09:19:22.273Z</time>
</trkpt>
<trkpt lat="31.2608800" lon="35.2711400">
<ele>285.829987</ele>
<time>2022-03-15T09:19:22.273Z</time>
</trkpt>
<trkpt lat="31.2609400" lon="35.2711700">
<ele>288.269989</ele>
<time>2022-03-15T09:19:22.273Z</time>
</trkpt>
<trkpt lat="31.2610100" lon="35.2712800">
<ele>290.799988</ele>
<time>2022-03-15T09:19:22.273Z</time>
</trkpt>
<trkpt lat="31.2610300" lon="35.2713600">
<ele>291.339996</ele>
<time>2022-03-15T09:19:22.273Z</time>
</trkpt>
<trkpt lat="31.2610400" lon="35.2717900">
<ele>290.230011</ele>
<time>2022-03-15T09:19:22.273Z</time>
</trkpt>
<trkpt lat="31.2610900" lon="35.2721900">
<ele>289.690002</ele>
<time>2022-03-15T09:19:22.273Z</time>
</trkpt>
<trkpt lat="31.2611600" lon="35.2723400">
<ele>291.899994</ele>
<time>2022-03-15T09:19:22.273Z</time>
</trkpt>
<trkpt lat="31.2612500" lon="35.2724300">
<ele>294.500000</ele>
<time>2022-03-15T09:19:22.273Z</time>
</trkpt>
<trkpt lat="31.2614300" lon="35.2725600">
<ele>299.139984</ele>
<time>2022-03-15T09:19:22.273Z</time>
</trkpt>
<trkpt lat="31.2615100" lon="35.2726300">
<ele>300.910004</ele>
<time>2022-03-15T09:19:22.273Z</time>
</trkpt>
<trkpt lat="31.2615600" lon="35.2727200">
<ele>302.179993</ele>
<time>2022-03-15T09:19:22.273Z</time>
</trkpt>
<trkpt lat="31.2616200" lon="35.2729300">
<ele>301.320007</ele>
<time>2022-03-15T09:19:22.273Z</time>
</trkpt>
<trkpt lat="31.2617900" lon="35.2733500">
<ele>298.420013</ele>
<time>2022-03-15T09:19:22.273Z</time>
</trkpt>
<trkpt lat="31.2618300" lon="35.2735500">
<ele>300.000000</ele>
<time>2022-03-15T09:19:22.273Z</time>
</trkpt>
<trkpt lat="31.2618800" lon="35.2736800">
<ele>301.630005</ele>
<time>2022-03-15T09:19:22.274Z</time>
</trkpt>
<trkpt lat="31.2619800" lon="35.2738000">
<ele>303.869995</ele>
<time>2022-03-15T09:19:22.274Z</time>
</trkpt>
<trkpt lat="31.2620500" lon="35.2738700">
<ele>305.079987</ele>
<time>2022-03-15T09:19:22.274Z</time>
</trkpt>
<trkpt lat="31.2620500" lon="35.2738700">
<ele>305.079987</ele>
<time>2022-03-15T09:19:22.274Z</time>
</trkpt>
<trkpt lat="31.2621200" lon="35.2739300">
<ele>306.000000</ele>
<time>2022-03-15T09:19:22.274Z</time>
</trkpt>
<trkpt lat="31.2622200" lon="35.2740700">
<ele>306.990021</ele>
<time>2022-03-15T09:19:22.274Z</time>
</trkpt>
<trkpt lat="31.2623400" lon="35.2742700">
<ele>308.799988</ele>
<time>2022-03-15T09:19:22.274Z</time>
</trkpt>
<trkpt lat="31.2625100" lon="35.2745000">
<ele>310.639984</ele>
<time>2022-03-15T09:19:22.274Z</time>
</trkpt>
<trkpt lat="31.2626000" lon="35.2747000">
<ele>312.730011</ele>
<time>2022-03-15T09:19:22.274Z</time>
</trkpt>
<trkpt lat="31.2626600" lon="35.2747700">
<ele>312.679993</ele>
<time>2022-03-15T09:19:22.274Z</time>
</trkpt>
<trkpt lat="31.2627100" lon="35.2747900">
<ele>312.709991</ele>
<time>2022-03-15T09:19:22.274Z</time>
</trkpt>
<trkpt lat="31.2627800" lon="35.2747900">
<ele>312.999969</ele>
<time>2022-03-15T09:19:22.274Z</time>
</trkpt>
<trkpt lat="31.2632200" lon="35.2747100">
<ele>311.329987</ele>
<time>2022-03-15T09:19:22.274Z</time>
</trkpt>
<trkpt lat="31.2633900" lon="35.2746300">
<ele>312.500000</ele>
<time>2022-03-15T09:19:22.274Z</time>
</trkpt>
<trkpt lat="31.2636600" lon="35.2744600">
<ele>309.160004</ele>
<time>2022-03-15T09:19:22.274Z</time>
</trkpt>
<trkpt lat="31.2638700" lon="35.2743600">
<ele>306.699982</ele>
<time>2022-03-15T09:19:22.274Z</time>
</trkpt>
<trkpt lat="31.2642300" lon="35.2742600">
<ele>305.730011</ele>
<time>2022-03-15T09:19:22.274Z</time>
</trkpt>
<trkpt lat="31.2644900" lon="35.2741600">
<ele>305.619995</ele>
<time>2022-03-15T09:19:22.274Z</time>
</trkpt>
<trkpt lat="31.2656100" lon="35.2737200">
<ele>314.350006</ele>
<time>2022-03-15T09:19:22.274Z</time>
</trkpt>
<trkpt lat="31.2660700" lon="35.2735500">
<ele>317.369995</ele>
<time>2022-03-15T09:19:22.274Z</time>
</trkpt>
<trkpt lat="31.2663400" lon="35.2734800">
<ele>319.179993</ele>
<time>2022-03-15T09:19:22.274Z</time>
</trkpt>
<trkpt lat="31.2664800" lon="35.2734600">
<ele>320.109985</ele>
<time>2022-03-15T09:19:22.274Z</time>
</trkpt>
<trkpt lat="31.2666200" lon="35.2734800">
<ele>321.190002</ele>
<time>2022-03-15T09:19:22.274Z</time>
</trkpt>
<trkpt lat="31.2667900" lon="35.2735400">
<ele>323.300018</ele>
<time>2022-03-15T09:19:22.274Z</time>
</trkpt>
<trkpt lat="31.2671300" lon="35.2736300">
<ele>328.339996</ele>
<time>2022-03-15T09:19:22.274Z</time>
</trkpt>
<trkpt lat="31.2674100" lon="35.2738000">
<ele>331.779999</ele>
<time>2022-03-15T09:19:22.274Z</time>
</trkpt>
<trkpt lat="31.2677100" lon="35.2739100">
<ele>334.329987</ele>
<time>2022-03-15T09:19:22.274Z</time>
</trkpt>
<trkpt lat="31.2678400" lon="35.2739100">
<ele>335.970001</ele>
<time>2022-03-15T09:19:22.274Z</time>
</trkpt>
<trkpt lat="31.2679600" lon="35.2738700">
<ele>337.690002</ele>
<time>2022-03-15T09:19:22.274Z</time>
</trkpt>
<trkpt lat="31.2682800" lon="35.2737000">
<ele>344.559998</ele>
<time>2022-03-15T09:19:22.274Z</time>
</trkpt>
<trkpt lat="31.2682800" lon="35.2737000">
<ele>344.559998</ele>
<time>2022-03-15T09:19:22.275Z</time>
</trkpt>
<trkpt lat="31.2682800" lon="35.2737000">
<ele>344.559998</ele>
<time>2022-03-15T09:19:22.275Z</time>
</trkpt>
<trkpt lat="31.2683300" lon="35.2736700">
<ele>346.080017</ele>
<time>2022-03-15T09:19:22.275Z</time>
</trkpt>
<trkpt lat="31.2684200" lon="35.2736500">
<ele>345.899994</ele>
<time>2022-03-15T09:19:22.275Z</time>
</trkpt>
<trkpt lat="31.2685300" lon="35.2736500">
<ele>345.220001</ele>
<time>2022-03-15T09:19:22.275Z</time>
</trkpt>
<trkpt lat="31.2687900" lon="35.2737600">
<ele>342.639984</ele>
<time>2022-03-15T09:19:22.275Z</time>
</trkpt>
<trkpt lat="31.2688600" lon="35.2737400">
<ele>342.279968</ele>
<time>2022-03-15T09:19:22.275Z</time>
</trkpt>
<trkpt lat="31.2690000" lon="35.2737000">
<ele>341.559998</ele>
<time>2022-03-15T09:19:22.275Z</time>
</trkpt>
<trkpt lat="31.2690800" lon="35.2736300">
<ele>341.489990</ele>
<time>2022-03-15T09:19:22.275Z</time>
</trkpt>
<trkpt lat="31.2694000" lon="35.2732500">
<ele>342.100006</ele>
<time>2022-03-15T09:19:22.275Z</time>
</trkpt>
<trkpt lat="31.2694600" lon="35.2732100">
<ele>341.700012</ele>
<time>2022-03-15T09:19:22.275Z</time>
</trkpt>
<trkpt lat="31.2696000" lon="35.2731800">
<ele>338.890015</ele>
<time>2022-03-15T09:19:22.275Z</time>
</trkpt>
<trkpt lat="31.2700500" lon="35.2731800">
<ele>334.019989</ele>
<time>2022-03-15T09:19:22.276Z</time>
</trkpt>
<trkpt lat="31.2705000" lon="35.2732600">
<ele>333.950012</ele>
<time>2022-03-15T09:19:22.276Z</time>
</trkpt>
<trkpt lat="31.2706000" lon="35.2732600">
<ele>333.849976</ele>
<time>2022-03-15T09:19:22.276Z</time>
</trkpt>
<trkpt lat="31.2707100" lon="35.2732300">
<ele>333.729980</ele>
<time>2022-03-15T09:19:22.276Z</time>
</trkpt>
<trkpt lat="31.2708400" lon="35.2731600">
<ele>333.820007</ele>
<time>2022-03-15T09:19:22.276Z</time>
</trkpt>
<trkpt lat="31.2709700" lon="35.2730600">
<ele>333.490021</ele>
<time>2022-03-15T09:19:22.276Z</time>
</trkpt>
<trkpt lat="31.2711900" lon="35.2727600">
<ele>334.720001</ele>
<time>2022-03-15T09:19:22.276Z</time>
</trkpt>
<trkpt lat="31.2712900" lon="35.2726800">
<ele>335.019989</ele>
<time>2022-03-15T09:19:22.276Z</time>
</trkpt>
<trkpt lat="31.2714000" lon="35.2726600">
<ele>334.069977</ele>
<time>2022-03-15T09:19:22.276Z</time>
</trkpt>
<trkpt lat="31.2717200" lon="35.2727300">
<ele>327.210022</ele>
<time>2022-03-15T09:19:22.277Z</time>
</trkpt>
<trkpt lat="31.2718700" lon="35.2727900">
<ele>322.800018</ele>
<time>2022-03-15T09:19:22.277Z</time>
</trkpt>
<trkpt lat="31.2719800" lon="35.2728600">
<ele>319.630005</ele>
<time>2022-03-15T09:19:22.277Z</time>
</trkpt>
<trkpt lat="31.2724400" lon="35.2731900">
<ele>311.760010</ele>
<time>2022-03-15T09:19:22.277Z</time>
</trkpt>
<trkpt lat="31.2725700" lon="35.2732400">
<ele>311.420013</ele>
<time>2022-03-15T09:19:22.277Z</time>
</trkpt>
<trkpt lat="31.2728400" lon="35.2732800">
<ele>312.610016</ele>
<time>2022-03-15T09:19:22.277Z</time>
</trkpt>
<trkpt lat="31.2729200" lon="35.2733100">
<ele>312.679993</ele>
<time>2022-03-15T09:19:22.277Z</time>
</trkpt>
<trkpt lat="31.2731100" lon="35.2734500">
<ele>311.510010</ele>
<time>2022-03-15T09:19:22.277Z</time>
</trkpt>
<trkpt lat="31.2733900" lon="35.2737800">
<ele>307.359985</ele>
<time>2022-03-15T09:19:22.277Z</time>
</trkpt>
<trkpt lat="31.2735000" lon="35.2739300">
<ele>303.299988</ele>
<time>2022-03-15T09:19:22.277Z</time>
</trkpt>
<trkpt lat="31.2736300" lon="35.2741800">
<ele>297.859985</ele>
<time>2022-03-15T09:19:22.277Z</time>
</trkpt>
<trkpt lat="31.2739700" lon="35.2746000">
<ele>295.250000</ele>
<time>2022-03-15T09:19:22.277Z</time>
</trkpt>
<trkpt lat="31.2743000" lon="35.2751100">
<ele>298.770020</ele>
<time>2022-03-15T09:19:22.277Z</time>
</trkpt>
<trkpt lat="31.2746700" lon="35.2754900">
<ele>299.529999</ele>
<time>2022-03-15T09:19:22.277Z</time>
</trkpt>
<trkpt lat="31.2749000" lon="35.2756700">
<ele>296.480011</ele>
<time>2022-03-15T09:19:22.277Z</time>
</trkpt>
<trkpt lat="31.2750300" lon="35.2756900">
<ele>295.869995</ele>
<time>2022-03-15T09:19:22.277Z</time>
</trkpt>
<trkpt lat="31.2751400" lon="35.2756600">
<ele>297.260010</ele>
<time>2022-03-15T09:19:22.277Z</time>
</trkpt>
<trkpt lat="31.2752700" lon="35.2755800">
<ele>298.850006</ele>
<time>2022-03-15T09:19:22.277Z</time>
</trkpt>
<trkpt lat="31.2755200" lon="35.2753100">
<ele>299.209991</ele>
<time>2022-03-15T09:19:22.278Z</time>
</trkpt>
<trkpt lat="31.2758900" lon="35.2751200">
<ele>305.260010</ele>
<time>2022-03-15T09:19:22.278Z</time>
</trkpt>
<trkpt lat="31.2765000" lon="35.2751200">
<ele>311.449982</ele>
<time>2022-03-15T09:19:22.278Z</time>
</trkpt>
<trkpt lat="31.2768000" lon="35.2750400">
<ele>313.670013</ele>
<time>2022-03-15T09:19:22.278Z</time>
</trkpt>
<trkpt lat="31.2768800" lon="35.2750400">
<ele>314.250000</ele>
<time>2022-03-15T09:19:22.278Z</time>
</trkpt>
<trkpt lat="31.2769600" lon="35.2750800">
<ele>314.669983</ele>
<time>2022-03-15T09:19:22.278Z</time>
</trkpt>
<trkpt lat="31.2770000" lon="35.2751000">
<ele>315.139984</ele>
<time>2022-03-15T09:19:22.278Z</time>
</trkpt>
<trkpt lat="31.2769700" lon="35.2755500">
<ele>313.989990</ele>
<time>2022-03-15T09:19:22.278Z</time>
</trkpt>
<trkpt lat="31.2769000" lon="35.2760400">
<ele>311.820007</ele>
<time>2022-03-15T09:19:22.278Z</time>
</trkpt>
<trkpt lat="31.2769000" lon="35.2760600">
<ele>311.589996</ele>
<time>2022-03-15T09:19:22.278Z</time>
</trkpt>
<trkpt lat="31.2769000" lon="35.2760600">
<ele>311.589996</ele>
<time>2022-03-15T09:19:22.278Z</time>
</trkpt>
<trkpt lat="31.2769200" lon="35.2762200">
<ele>310.220001</ele>
<time>2022-03-15T09:19:22.278Z</time>
</trkpt>
<trkpt lat="31.2770400" lon="35.2766600">
<ele>306.019989</ele>
<time>2022-03-15T09:19:22.278Z</time>
</trkpt>
<trkpt lat="31.2771700" lon="35.2770600">
<ele>300.500000</ele>
<time>2022-03-15T09:19:22.278Z</time>
</trkpt>
<trkpt lat="31.2772400" lon="35.2772000">
<ele>299.029999</ele>
<time>2022-03-15T09:19:22.278Z</time>
</trkpt>
<trkpt lat="31.2774400" lon="35.2774700">
<ele>296.029999</ele>
<time>2022-03-15T09:19:22.278Z</time>
</trkpt>
<trkpt lat="31.2774700" lon="35.2775400">
<ele>295.000000</ele>
<time>2022-03-15T09:19:22.278Z</time>
</trkpt>
<trkpt lat="31.2774500" lon="35.2776700">
<ele>293.880005</ele>
<time>2022-03-15T09:19:22.278Z</time>
</trkpt>
<trkpt lat="31.2773500" lon="35.2779300">
<ele>292.470001</ele>
<time>2022-03-15T09:19:22.278Z</time>
</trkpt>
<trkpt lat="31.2773500" lon="35.2780800">
<ele>290.559998</ele>
<time>2022-03-15T09:19:22.278Z</time>
</trkpt>
<trkpt lat="31.2774300" lon="35.2784800">
<ele>281.630005</ele>
<time>2022-03-15T09:19:22.278Z</time>
</trkpt>
<trkpt lat="31.2774500" lon="35.2788600">
<ele>277.450012</ele>
<time>2022-03-15T09:19:22.279Z</time>
</trkpt>
<trkpt lat="31.2775400" lon="35.2793300">
<ele>276.559998</ele>
<time>2022-03-15T09:19:22.279Z</time>
</trkpt>
<trkpt lat="31.2775400" lon="35.2796300">
<ele>274.709991</ele>
<time>2022-03-15T09:19:22.279Z</time>
</trkpt>
<trkpt lat="31.2774800" lon="35.2802100">
<ele>271.750000</ele>
<time>2022-03-15T09:19:22.279Z</time>
</trkpt>
<trkpt lat="31.2774400" lon="35.2803400">
<ele>270.690002</ele>
<time>2022-03-15T09:19:22.279Z</time>
</trkpt>
<trkpt lat="31.2771900" lon="35.2807000">
<ele>264.209991</ele>
<time>2022-03-15T09:19:22.279Z</time>
</trkpt>
<trkpt lat="31.2770700" lon="35.2809800">
<ele>261.970001</ele>
<time>2022-03-15T09:19:22.279Z</time>
</trkpt>
<trkpt lat="31.2768000" lon="35.2815400">
<ele>255.669998</ele>
<time>2022-03-15T09:19:22.279Z</time>
</trkpt>
<trkpt lat="31.2767700" lon="35.2817000">
<ele>252.020004</ele>
<time>2022-03-15T09:19:22.279Z</time>
</trkpt>
<trkpt lat="31.2767700" lon="35.2818700">
<ele>249.660004</ele>
<time>2022-03-15T09:19:22.279Z</time>
</trkpt>
<trkpt lat="31.2768600" lon="35.2826400">
<ele>245.150009</ele>
<time>2022-03-15T09:19:22.279Z</time>
</trkpt>
<trkpt lat="31.2768300" lon="35.2828100">
<ele>245.040009</ele>
<time>2022-03-15T09:19:22.279Z</time>
</trkpt>
<trkpt lat="31.2767700" lon="35.2829600">
<ele>244.660004</ele>
<time>2022-03-15T09:19:22.279Z</time>
</trkpt>
<trkpt lat="31.2766400" lon="35.2831600">
<ele>241.490005</ele>
<time>2022-03-15T09:19:22.279Z</time>
</trkpt>
<trkpt lat="31.2765800" lon="35.2832900">
<ele>239.220001</ele>
<time>2022-03-15T09:19:22.279Z</time>
</trkpt>
<trkpt lat="31.2765400" lon="35.2838000">
<ele>235.360001</ele>
<time>2022-03-15T09:19:22.279Z</time>
</trkpt>
<trkpt lat="31.2765100" lon="35.2838600">
<ele>234.389984</ele>
<time>2022-03-15T09:19:22.279Z</time>
</trkpt>
<trkpt lat="31.2764800" lon="35.2839100">
<ele>233.490005</ele>
<time>2022-03-15T09:19:22.280Z</time>
</trkpt>
<trkpt lat="31.2764100" lon="35.2839600">
<ele>232.070007</ele>
<time>2022-03-15T09:19:22.280Z</time>
</trkpt>
<trkpt lat="31.2763600" lon="35.2839700">
<ele>231.949997</ele>
<time>2022-03-15T09:19:22.280Z</time>
</trkpt>
<trkpt lat="31.2763000" lon="35.2839800">
<ele>232.420013</ele>
<time>2022-03-15T09:19:22.280Z</time>
</trkpt>
<trkpt lat="31.2751200" lon="35.2837700">
<ele>234.199997</ele>
<time>2022-03-15T09:19:22.280Z</time>
</trkpt>
<trkpt lat="31.2750500" lon="35.2837800">
<ele>235.710007</ele>
<time>2022-03-15T09:19:22.280Z</time>
</trkpt>
<trkpt lat="31.2749700" lon="35.2838100">
<ele>237.150009</ele>
<time>2022-03-15T09:19:22.280Z</time>
</trkpt>
<trkpt lat="31.2749200" lon="35.2838500">
<ele>237.929993</ele>
<time>2022-03-15T09:19:22.280Z</time>
</trkpt>
<trkpt lat="31.2748800" lon="35.2839200">
<ele>238.690002</ele>
<time>2022-03-15T09:19:22.280Z</time>
</trkpt>
<trkpt lat="31.2748700" lon="35.2839800">
<ele>239.120010</ele>
<time>2022-03-15T09:19:22.280Z</time>
</trkpt>
<trkpt lat="31.2748700" lon="35.2841100">
<ele>239.549988</ele>
<time>2022-03-15T09:19:22.280Z</time>
</trkpt>
<trkpt lat="31.2749500" lon="35.2846200">
<ele>232.949997</ele>
<time>2022-03-15T09:19:22.280Z</time>
</trkpt>
<trkpt lat="31.2749300" lon="35.2848100">
<ele>231.399994</ele>
<time>2022-03-15T09:19:22.281Z</time>
</trkpt>
<trkpt lat="31.2748600" lon="35.2852200">
<ele>228.030014</ele>
<time>2022-03-15T09:19:22.281Z</time>
</trkpt>
<trkpt lat="31.2748600" lon="35.2855100">
<ele>224.979996</ele>
<time>2022-03-15T09:19:22.281Z</time>
</trkpt>
<trkpt lat="31.2748300" lon="35.2856200">
<ele>224.289993</ele>
<time>2022-03-15T09:19:22.281Z</time>
</trkpt>
<trkpt lat="31.2747800" lon="35.2857200">
<ele>223.519989</ele>
<time>2022-03-15T09:19:22.281Z</time>
</trkpt>
<trkpt lat="31.2747100" lon="35.2858900">
<ele>221.739990</ele>
<time>2022-03-15T09:19:22.281Z</time>
</trkpt>
<trkpt lat="31.2747100" lon="35.2858900">
<ele>221.739990</ele>
<time>2022-03-15T09:19:22.281Z</time>
</trkpt>
<trkpt lat="31.2747100" lon="35.2858900">
<ele>221.739990</ele>
<time>2022-03-15T09:19:22.281Z</time>
</trkpt>
<trkpt lat="31.2746800" lon="35.2859600">
<ele>221.319992</ele>
<time>2022-03-15T09:19:22.281Z</time>
</trkpt>
<trkpt lat="31.2744400" lon="35.2863800">
<ele>220.049988</ele>
<time>2022-03-15T09:19:22.281Z</time>
</trkpt>
<trkpt lat="31.2744100" lon="35.2864500">
<ele>220.730011</ele>
<time>2022-03-15T09:19:22.281Z</time>
</trkpt>
<trkpt lat="31.2744100" lon="35.2865200">
<ele>220.850006</ele>
<time>2022-03-15T09:19:22.281Z</time>
</trkpt>
<trkpt lat="31.2744300" lon="35.2866100">
<ele>220.430008</ele>
<time>2022-03-15T09:19:22.281Z</time>
</trkpt>
<trkpt lat="31.2745000" lon="35.2866900">
<ele>219.649994</ele>
<time>2022-03-15T09:19:22.281Z</time>
</trkpt>
<trkpt lat="31.2746700" lon="35.2867500">
<ele>216.900009</ele>
<time>2022-03-15T09:19:22.281Z</time>
</trkpt>
<trkpt lat="31.2747700" lon="35.2867600">
<ele>215.889999</ele>
<time>2022-03-15T09:19:22.282Z</time>
</trkpt>
<trkpt lat="31.2751000" lon="35.2867400">
<ele>216.809998</ele>
<time>2022-03-15T09:19:22.282Z</time>
</trkpt>
<trkpt lat="31.2752700" lon="35.2867500">
<ele>215.060013</ele>
<time>2022-03-15T09:19:22.282Z</time>
</trkpt>
<trkpt lat="31.2755900" lon="35.2868400">
<ele>210.889999</ele>
<time>2022-03-15T09:19:22.282Z</time>
</trkpt>
<trkpt lat="31.2758000" lon="35.2869400">
<ele>211.110001</ele>
<time>2022-03-15T09:19:22.282Z</time>
</trkpt>
<trkpt lat="31.2758800" lon="35.2870200">
<ele>208.989990</ele>
<time>2022-03-15T09:19:22.282Z</time>
</trkpt>
<trkpt lat="31.2759200" lon="35.2871100">
<ele>206.070007</ele>
<time>2022-03-15T09:19:22.282Z</time>
</trkpt>
<trkpt lat="31.2759300" lon="35.2871700">
<ele>203.860001</ele>
<time>2022-03-15T09:19:22.282Z</time>
</trkpt>
<trkpt lat="31.2759200" lon="35.2872500">
<ele>201.259995</ele>
<time>2022-03-15T09:19:22.282Z</time>
</trkpt>
<trkpt lat="31.2758600" lon="35.2873400">
<ele>198.770004</ele>
<time>2022-03-15T09:19:22.282Z</time>
</trkpt>
<trkpt lat="31.2756100" lon="35.2875900">
<ele>193.460007</ele>
<time>2022-03-15T09:19:22.282Z</time>
</trkpt>
<trkpt lat="31.2754600" lon="35.2876900">
<ele>194.239990</ele>
<time>2022-03-15T09:19:22.282Z</time>
</trkpt>
<trkpt lat="31.2751700" lon="35.2879800">
<ele>202.320007</ele>
<time>2022-03-15T09:19:22.283Z</time>
</trkpt>
<trkpt lat="31.2751400" lon="35.2880600">
<ele>203.500000</ele>
<time>2022-03-15T09:19:22.283Z</time>
</trkpt>
<trkpt lat="31.2750900" lon="35.2883600">
<ele>204.990005</ele>
<time>2022-03-15T09:19:22.283Z</time>
</trkpt>
<trkpt lat="31.2750600" lon="35.2884700">
<ele>206.190002</ele>
<time>2022-03-15T09:19:22.283Z</time>
</trkpt>
<trkpt lat="31.2749900" lon="35.2885700">
<ele>206.790009</ele>
<time>2022-03-15T09:19:22.283Z</time>
</trkpt>
<trkpt lat="31.2749100" lon="35.2886100">
<ele>207.639999</ele>
<time>2022-03-15T09:19:22.283Z</time>
</trkpt>
<trkpt lat="31.2748400" lon="35.2886300">
<ele>208.610001</ele>
<time>2022-03-15T09:19:22.283Z</time>
</trkpt>
<trkpt lat="31.2747000" lon="35.2886300">
<ele>209.610001</ele>
<time>2022-03-15T09:19:22.283Z</time>
</trkpt>
<trkpt lat="31.2744300" lon="35.2885800">
<ele>213.679993</ele>
<time>2022-03-15T09:19:22.283Z</time>
</trkpt>
<trkpt lat="31.2743000" lon="35.2885800">
<ele>214.770004</ele>
<time>2022-03-15T09:19:22.283Z</time>
</trkpt>
<trkpt lat="31.2742000" lon="35.2885500">
<ele>216.440002</ele>
<time>2022-03-15T09:19:22.283Z</time>
</trkpt>
<trkpt lat="31.2741000" lon="35.2885600">
<ele>218.369995</ele>
<time>2022-03-15T09:19:22.283Z</time>
</trkpt>
<trkpt lat="31.2740500" lon="35.2886000">
<ele>219.000015</ele>
<time>2022-03-15T09:19:22.283Z</time>
</trkpt>
<trkpt lat="31.2739600" lon="35.2887100">
<ele>220.629990</ele>
<time>2022-03-15T09:19:22.283Z</time>
</trkpt>
<trkpt lat="31.2738800" lon="35.2887600">
<ele>222.510010</ele>
<time>2022-03-15T09:19:22.283Z</time>
</trkpt>
<trkpt lat="31.2737200" lon="35.2887900">
<ele>224.279999</ele>
<time>2022-03-15T09:19:22.283Z</time>
</trkpt>
<trkpt lat="31.2735800" lon="35.2888600">
<ele>225.520004</ele>
<time>2022-03-15T09:19:22.284Z</time>
</trkpt>
<trkpt lat="31.2734600" lon="35.2888900">
<ele>226.630005</ele>
<time>2022-03-15T09:19:22.284Z</time>
</trkpt>
<trkpt lat="31.2731200" lon="35.2891300">
<ele>227.840012</ele>
<time>2022-03-15T09:19:22.284Z</time>
</trkpt>
<trkpt lat="31.2730600" lon="35.2891400">
<ele>227.059998</ele>
<time>2022-03-15T09:19:22.284Z</time>
</trkpt>
<trkpt lat="31.2730100" lon="35.2891300">
<ele>225.769989</ele>
<time>2022-03-15T09:19:22.284Z</time>
</trkpt>
<trkpt lat="31.2730100" lon="35.2891300">
<ele>225.769989</ele>
<time>2022-03-15T09:19:22.284Z</time>
</trkpt>
<trkpt lat="31.2729800" lon="35.2891200">
<ele>224.909988</ele>
<time>2022-03-15T09:19:22.284Z</time>
</trkpt>
<trkpt lat="31.2727800" lon="35.2889700">
<ele>217.250000</ele>
<time>2022-03-15T09:19:22.284Z</time>
</trkpt>
<trkpt lat="31.2727200" lon="35.2889000">
<ele>214.480011</ele>
<time>2022-03-15T09:19:22.284Z</time>
</trkpt>
<trkpt lat="31.2725900" lon="35.2887100">
<ele>215.120010</ele>
<time>2022-03-15T09:19:22.284Z</time>
</trkpt>
<trkpt lat="31.2725200" lon="35.2886400">
<ele>215.550003</ele>
<time>2022-03-15T09:19:22.284Z</time>
</trkpt>
<trkpt lat="31.2721100" lon="35.2883000">
<ele>214.919998</ele>
<time>2022-03-15T09:19:22.284Z</time>
</trkpt>
<trkpt lat="31.2720300" lon="35.2882800">
<ele>212.600006</ele>
<time>2022-03-15T09:19:22.284Z</time>
</trkpt>
<trkpt lat="31.2719800" lon="35.2882900">
<ele>210.800003</ele>
<time>2022-03-15T09:19:22.284Z</time>
</trkpt>
<trkpt lat="31.2719200" lon="35.2883500">
<ele>209.250000</ele>
<time>2022-03-15T09:19:22.284Z</time>
</trkpt>
<trkpt lat="31.2718000" lon="35.2886200">
<ele>209.550003</ele>
<time>2022-03-15T09:19:22.284Z</time>
</trkpt>
<trkpt lat="31.2715900" lon="35.2890100">
<ele>209.610001</ele>
<time>2022-03-15T09:19:22.284Z</time>
</trkpt>
<trkpt lat="31.2715200" lon="35.2892200">
<ele>206.009995</ele>
<time>2022-03-15T09:19:22.284Z</time>
</trkpt>
<trkpt lat="31.2714200" lon="35.2894200">
<ele>203.080002</ele>
<time>2022-03-15T09:19:22.284Z</time>
</trkpt>
<trkpt lat="31.2714000" lon="35.2896800">
<ele>202.949997</ele>
<time>2022-03-15T09:19:22.284Z</time>
</trkpt>
<trkpt lat="31.2713500" lon="35.2898900">
<ele>206.360001</ele>
<time>2022-03-15T09:19:22.284Z</time>
</trkpt>
<trkpt lat="31.2713500" lon="35.2900300">
<ele>207.110001</ele>
<time>2022-03-15T09:19:22.284Z</time>
</trkpt>
<trkpt lat="31.2713900" lon="35.2902200">
<ele>203.830002</ele>
<time>2022-03-15T09:19:22.284Z</time>
</trkpt>
<trkpt lat="31.2713700" lon="35.2904100">
<ele>205.740005</ele>
<time>2022-03-15T09:19:22.284Z</time>
</trkpt>
<trkpt lat="31.2712900" lon="35.2907600">
<ele>206.300003</ele>
<time>2022-03-15T09:19:22.284Z</time>
</trkpt>
<trkpt lat="31.2712500" lon="35.2908600">
<ele>205.500000</ele>
<time>2022-03-15T09:19:22.284Z</time>
</trkpt>
<trkpt lat="31.2712200" lon="35.2909000">
<ele>205.009995</ele>
<time>2022-03-15T09:19:22.284Z</time>
</trkpt>
<trkpt lat="31.2711600" lon="35.2909500">
<ele>204.149994</ele>
<time>2022-03-15T09:19:22.284Z</time>
</trkpt>
<trkpt lat="31.2709200" lon="35.2909600">
<ele>203.460007</ele>
<time>2022-03-15T09:19:22.284Z</time>
</trkpt>
<trkpt lat="31.2708500" lon="35.2909800">
<ele>203.529999</ele>
<time>2022-03-15T09:19:22.284Z</time>
</trkpt>
<trkpt lat="31.2707300" lon="35.2910600">
<ele>205.610001</ele>
<time>2022-03-15T09:19:22.284Z</time>
</trkpt>
<trkpt lat="31.2704600" lon="35.2912800">
<ele>213.250000</ele>
<time>2022-03-15T09:19:22.284Z</time>
</trkpt>
<trkpt lat="31.2703800" lon="35.2913800">
<ele>216.069992</ele>
<time>2022-03-15T09:19:22.284Z</time>
</trkpt>
<trkpt lat="31.2702600" lon="35.2916000">
<ele>218.750000</ele>
<time>2022-03-15T09:19:22.284Z</time>
</trkpt>
<trkpt lat="31.2701300" lon="35.2917500">
<ele>216.410004</ele>
<time>2022-03-15T09:19:22.285Z</time>
</trkpt>
<trkpt lat="31.2700700" lon="35.2918600">
<ele>214.220001</ele>
<time>2022-03-15T09:19:22.285Z</time>
</trkpt>
<trkpt lat="31.2699500" lon="35.2921800">
<ele>206.710007</ele>
<time>2022-03-15T09:19:22.285Z</time>
</trkpt>
<trkpt lat="31.2699100" lon="35.2923400">
<ele>198.059998</ele>
<time>2022-03-15T09:19:22.285Z</time>
</trkpt>
<trkpt lat="31.2697300" lon="35.2926400">
<ele>180.980011</ele>
<time>2022-03-15T09:19:22.285Z</time>
</trkpt>
<trkpt lat="31.2696700" lon="35.2928800">
<ele>172.299988</ele>
<time>2022-03-15T09:19:22.285Z</time>
</trkpt>
<trkpt lat="31.2695700" lon="35.2930400">
<ele>172.420013</ele>
<time>2022-03-15T09:19:22.286Z</time>
</trkpt>
<trkpt lat="31.2694600" lon="35.2933000">
<ele>172.809998</ele>
<time>2022-03-15T09:19:22.286Z</time>
</trkpt>
<trkpt lat="31.2694300" lon="35.2936200">
<ele>165.669998</ele>
<time>2022-03-15T09:19:22.286Z</time>
</trkpt>
<trkpt lat="31.2694200" lon="35.2937000">
<ele>162.220001</ele>
<time>2022-03-15T09:19:22.286Z</time>
</trkpt>
<trkpt lat="31.2693100" lon="35.2940200">
<ele>145.279999</ele>
<time>2022-03-15T09:19:22.286Z</time>
</trkpt>
<trkpt lat="31.2692100" lon="35.2944200">
<ele>127.149994</ele>
<time>2022-03-15T09:19:22.286Z</time>
</trkpt>
<trkpt lat="31.2691700" lon="35.2945100">
<ele>124.379997</ele>
<time>2022-03-15T09:19:22.286Z</time>
</trkpt>
<trkpt lat="31.2689200" lon="35.2949300">
<ele>111.970001</ele>
<time>2022-03-15T09:19:22.286Z</time>
</trkpt>
<trkpt lat="31.2687700" lon="35.2951500">
<ele>103.330002</ele>
<time>2022-03-15T09:19:22.286Z</time>
</trkpt>
<trkpt lat="31.2685400" lon="35.2955500">
<ele>92.830002</ele>
<time>2022-03-15T09:19:22.286Z</time>
</trkpt>
<trkpt lat="31.2684100" lon="35.2957000">
<ele>89.910004</ele>
<time>2022-03-15T09:19:22.286Z</time>
</trkpt>
<trkpt lat="31.2681300" lon="35.2961300">
<ele>85.680000</ele>
<time>2022-03-15T09:19:22.286Z</time>
</trkpt>
<trkpt lat="31.2680300" lon="35.2962200">
<ele>87.570007</ele>
<time>2022-03-15T09:19:22.286Z</time>
</trkpt>
<trkpt lat="31.2679500" lon="35.2963800">
<ele>88.919998</ele>
<time>2022-03-15T09:19:22.286Z</time>
</trkpt>
<trkpt lat="31.2678300" lon="35.2964800">
<ele>91.060005</ele>
<time>2022-03-15T09:19:22.287Z</time>
</trkpt>
<trkpt lat="31.2678300" lon="35.2965600">
<ele>91.060005</ele>
<time>2022-03-15T09:19:22.287Z</time>
</trkpt>
<trkpt lat="31.2679600" lon="35.2968200">
<ele>89.080002</ele>
<time>2022-03-15T09:19:22.287Z</time>
</trkpt>
<trkpt lat="31.2679800" lon="35.2969100">
<ele>89.000000</ele>
<time>2022-03-15T09:19:22.287Z</time>
</trkpt>
<trkpt lat="31.2679900" lon="35.2970000">
<ele>88.699997</ele>
<time>2022-03-15T09:19:22.287Z</time>
</trkpt>
<trkpt lat="31.2679800" lon="35.2970700">
<ele>88.510002</ele>
<time>2022-03-15T09:19:22.287Z</time>
</trkpt>
<trkpt lat="31.2679400" lon="35.2971400">
<ele>88.669998</ele>
<time>2022-03-15T09:19:22.287Z</time>
</trkpt>
<trkpt lat="31.2678400" lon="35.2972400">
<ele>89.139999</ele>
<time>2022-03-15T09:19:22.287Z</time>
</trkpt>
<trkpt lat="31.2678200" lon="35.2972900">
<ele>88.810005</ele>
<time>2022-03-15T09:19:22.287Z</time>
</trkpt>
<trkpt lat="31.2678100" lon="35.2973900">
<ele>87.839996</ele>
<time>2022-03-15T09:19:22.287Z</time>
</trkpt>
<trkpt lat="31.2678300" lon="35.2976100">
<ele>85.250000</ele>
<time>2022-03-15T09:19:22.287Z</time>
</trkpt>
<trkpt lat="31.2678300" lon="35.2977300">
<ele>83.950005</ele>
<time>2022-03-15T09:19:22.287Z</time>
</trkpt>
<trkpt lat="31.2678100" lon="35.2978200">
<ele>82.720001</ele>
<time>2022-03-15T09:19:22.287Z</time>
</trkpt>
<trkpt lat="31.2676900" lon="35.2981700">
<ele>77.659996</ele>
<time>2022-03-15T09:19:22.287Z</time>
</trkpt>
<trkpt lat="31.2676800" lon="35.2982500">
<ele>77.099998</ele>
<time>2022-03-15T09:19:22.287Z</time>
</trkpt>
<trkpt lat="31.2677100" lon="35.2983900">
<ele>75.820000</ele>
<time>2022-03-15T09:19:22.287Z</time>
</trkpt>
<trkpt lat="31.2678300" lon="35.2985700">
<ele>73.370003</ele>
<time>2022-03-15T09:19:22.287Z</time>
</trkpt>
<trkpt lat="31.2678600" lon="35.2986400">
<ele>72.709999</ele>
<time>2022-03-15T09:19:22.287Z</time>
</trkpt>
<trkpt lat="31.2678700" lon="35.2987100">
<ele>72.320000</ele>
<time>2022-03-15T09:19:22.288Z</time>
</trkpt>
<trkpt lat="31.2678400" lon="35.2988500">
<ele>72.239998</ele>
<time>2022-03-15T09:19:22.288Z</time>
</trkpt>
<trkpt lat="31.2677900" lon="35.2989500">
<ele>71.770004</ele>
<time>2022-03-15T09:19:22.288Z</time>
</trkpt>
<trkpt lat="31.2677300" lon="35.2990200">
<ele>71.500000</ele>
<time>2022-03-15T09:19:22.288Z</time>
</trkpt>
<trkpt lat="31.2674600" lon="35.2992000">
<ele>71.680000</ele>
<time>2022-03-15T09:19:22.288Z</time>
</trkpt>
<trkpt lat="31.2674000" lon="35.2992500">
<ele>69.949997</ele>
<time>2022-03-15T09:19:22.288Z</time>
</trkpt>
<trkpt lat="31.2673600" lon="35.2993200">
<ele>68.180000</ele>
<time>2022-03-15T09:19:22.288Z</time>
</trkpt>
<trkpt lat="31.2672800" lon="35.2996400">
<ele>62.540001</ele>
<time>2022-03-15T09:19:22.288Z</time>
</trkpt>
<trkpt lat="31.2671800" lon="35.2997600">
<ele>61.529999</ele>
<time>2022-03-15T09:19:22.288Z</time>
</trkpt>
<trkpt lat="31.2671600" lon="35.2998700">
<ele>59.919998</ele>
<time>2022-03-15T09:19:22.288Z</time>
</trkpt>
<trkpt lat="31.2671600" lon="35.3000200">
<ele>57.730003</ele>
<time>2022-03-15T09:19:22.288Z</time>
</trkpt>
<trkpt lat="31.2670900" lon="35.3001000">
<ele>58.340000</ele>
<time>2022-03-15T09:19:22.288Z</time>
</trkpt>
<trkpt lat="31.2670100" lon="35.3001600">
<ele>59.650002</ele>
<time>2022-03-15T09:19:22.288Z</time>
</trkpt>
<trkpt lat="31.2669800" lon="35.3002000">
<ele>60.209999</ele>
<time>2022-03-15T09:19:22.288Z</time>
</trkpt>
<trkpt lat="31.2669100" lon="35.3003800">
<ele>61.700001</ele>
<time>2022-03-15T09:19:22.288Z</time>
</trkpt>
<trkpt lat="31.2668600" lon="35.3004900">
<ele>62.589996</ele>
<time>2022-03-15T09:19:22.288Z</time>
</trkpt>
<trkpt lat="31.2668500" lon="35.3005700">
<ele>62.630001</ele>
<time>2022-03-15T09:19:22.288Z</time>
</trkpt>
<trkpt lat="31.2669600" lon="35.3008900">
<ele>60.059998</ele>
<time>2022-03-15T09:19:22.288Z</time>
</trkpt>
<trkpt lat="31.2669800" lon="35.3011600">
<ele>61.189999</ele>
<time>2022-03-15T09:19:22.288Z</time>
</trkpt>
<trkpt lat="31.2668700" lon="35.3030300">
<ele>55.600002</ele>
<time>2022-03-15T09:19:22.288Z</time>
</trkpt>
<trkpt lat="31.2668600" lon="35.3034700">
<ele>56.610001</ele>
<time>2022-03-15T09:19:22.288Z</time>
</trkpt>
<trkpt lat="31.2668600" lon="35.3039900">
<ele>57.139999</ele>
<time>2022-03-15T09:19:22.289Z</time>
</trkpt>
<trkpt lat="31.2669300" lon="35.3048300">
<ele>55.480000</ele>
<time>2022-03-15T09:19:22.289Z</time>
</trkpt>
<trkpt lat="31.2669300" lon="35.3048300">
<ele>55.480000</ele>
<time>2022-03-15T09:19:22.289Z</time>
</trkpt>
<trkpt lat="31.2669700" lon="35.3053600">
<ele>52.910000</ele>
<time>2022-03-15T09:19:22.289Z</time>
</trkpt>
<trkpt lat="31.2668700" lon="35.3065700">
<ele>51.309998</ele>
<time>2022-03-15T09:19:22.289Z</time>
</trkpt>
<trkpt lat="31.2667600" lon="35.3071600">
<ele>47.770000</ele>
<time>2022-03-15T09:19:22.289Z</time>
</trkpt>
<trkpt lat="31.2663700" lon="35.3084700">
<ele>53.549999</ele>
<time>2022-03-15T09:19:22.289Z</time>
</trkpt>
<trkpt lat="31.2661500" lon="35.3090000">
<ele>53.400002</ele>
<time>2022-03-15T09:19:22.289Z</time>
</trkpt>
<trkpt lat="31.2661100" lon="35.3092500">
<ele>52.689999</ele>
<time>2022-03-15T09:19:22.289Z</time>
</trkpt>
<trkpt lat="31.2661300" lon="35.3100300">
<ele>52.369999</ele>
<time>2022-03-15T09:19:22.289Z</time>
</trkpt>
<trkpt lat="31.2662900" lon="35.3108800">
<ele>40.029999</ele>
<time>2022-03-15T09:19:22.290Z</time>
</trkpt>
<trkpt lat="31.2664600" lon="35.3112400">
<ele>38.389999</ele>
<time>2022-03-15T09:19:22.290Z</time>
</trkpt>
<trkpt lat="31.2665300" lon="35.3117000">
<ele>37.770000</ele>
<time>2022-03-15T09:19:22.290Z</time>
</trkpt>
<trkpt lat="31.2664300" lon="35.3122900">
<ele>36.420002</ele>
<time>2022-03-15T09:19:22.290Z</time>
</trkpt>
<trkpt lat="31.2666200" lon="35.3127900">
<ele>37.540001</ele>
<time>2022-03-15T09:19:22.290Z</time>
</trkpt>
<trkpt lat="31.2669000" lon="35.3131900">
<ele>34.130001</ele>
<time>2022-03-15T09:19:22.290Z</time>
</trkpt>
<trkpt lat="31.2669400" lon="35.3136000">
<ele>34.959999</ele>
<time>2022-03-15T09:19:22.290Z</time>
</trkpt>
<trkpt lat="31.2668500" lon="35.3141500">
<ele>32.439999</ele>
<time>2022-03-15T09:19:22.290Z</time>
</trkpt>
<trkpt lat="31.2666000" lon="35.3145900">
<ele>24.459999</ele>
<time>2022-03-15T09:19:22.290Z</time>
</trkpt>
<trkpt lat="31.2659700" lon="35.3148000">
<ele>27.420000</ele>
<time>2022-03-15T09:19:22.290Z</time>
</trkpt>
<trkpt lat="31.2657400" lon="35.3149300">
<ele>22.990000</ele>
<time>2022-03-15T09:19:22.290Z</time>
</trkpt>
<trkpt lat="31.2657000" lon="35.3149300">
<ele>21.910000</ele>
<time>2022-03-15T09:19:22.290Z</time>
</trkpt>
<trkpt lat="31.2657000" lon="35.3148000">
<ele>23.289999</ele>
<time>2022-03-15T09:19:22.290Z</time>
</trkpt>
<trkpt lat="31.2656500" lon="35.3147400">
<ele>22.830000</ele>
<time>2022-03-15T09:19:22.290Z</time>
</trkpt>
<trkpt lat="31.2655400" lon="35.3147000">
<ele>21.070000</ele>
<time>2022-03-15T09:19:22.290Z</time>
</trkpt>
<trkpt lat="31.2654200" lon="35.3147400">
<ele>19.400000</ele>
<time>2022-03-15T09:19:22.290Z</time>
</trkpt>
<trkpt lat="31.2653500" lon="35.3148900">
<ele>18.150000</ele>
<time>2022-03-15T09:19:22.290Z</time>
</trkpt>
<trkpt lat="31.2653200" lon="35.3149600">
<ele>17.940001</ele>
<time>2022-03-15T09:19:22.290Z</time>
</trkpt>
<trkpt lat="31.2654300" lon="35.3153400">
<ele>17.680000</ele>
<time>2022-03-15T09:19:22.290Z</time>
</trkpt>
<trkpt lat="31.2654400" lon="35.3156100">
<ele>20.260000</ele>
<time>2022-03-15T09:19:22.290Z</time>
</trkpt>
<trkpt lat="31.2655900" lon="35.3158800">
<ele>17.670000</ele>
<time>2022-03-15T09:19:22.290Z</time>
</trkpt>
<trkpt lat="31.2656000" lon="35.3160500">
<ele>20.119999</ele>
<time>2022-03-15T09:19:22.290Z</time>
</trkpt>
<trkpt lat="31.2654800" lon="35.3163300">
<ele>25.809999</ele>
<time>2022-03-15T09:19:22.290Z</time>
</trkpt>
<trkpt lat="31.2655200" lon="35.3164400">
<ele>27.070000</ele>
<time>2022-03-15T09:19:22.291Z</time>
</trkpt>
<trkpt lat="31.2655500" lon="35.3165100">
<ele>27.789999</ele>
<time>2022-03-15T09:19:22.291Z</time>
</trkpt>
<trkpt lat="31.2659100" lon="35.3165300">
<ele>26.150000</ele>
<time>2022-03-15T09:19:22.291Z</time>
</trkpt>
<trkpt lat="31.2662300" lon="35.3167800">
<ele>25.490000</ele>
<time>2022-03-15T09:19:22.291Z</time>
</trkpt>
<trkpt lat="31.2664200" lon="35.3172900">
<ele>25.070000</ele>
<time>2022-03-15T09:19:22.291Z</time>
</trkpt>
<trkpt lat="31.2664200" lon="35.3175500">
<ele>26.010000</ele>
<time>2022-03-15T09:19:22.291Z</time>
</trkpt>
<trkpt lat="31.2665300" lon="35.3181300">
<ele>22.189999</ele>
<time>2022-03-15T09:19:22.291Z</time>
</trkpt>
<trkpt lat="31.2666800" lon="35.3185900">
<ele>20.580000</ele>
<time>2022-03-15T09:19:22.291Z</time>
</trkpt>
<trkpt lat="31.2667700" lon="35.3191000">
<ele>21.450001</ele>
<time>2022-03-15T09:19:22.291Z</time>
</trkpt>
<trkpt lat="31.2669100" lon="35.3192700">
<ele>22.189999</ele>
<time>2022-03-15T09:19:22.291Z</time>
</trkpt>
<trkpt lat="31.2670900" lon="35.3192500">
<ele>22.419998</ele>
<time>2022-03-15T09:19:22.291Z</time>
</trkpt>
<trkpt lat="31.2672300" lon="35.3198800">
<ele>22.810001</ele>
<time>2022-03-15T09:19:22.291Z</time>
</trkpt>
<trkpt lat="31.2674400" lon="35.3203600">
<ele>17.139999</ele>
<time>2022-03-15T09:19:22.291Z</time>
</trkpt>
<trkpt lat="31.2673100" lon="35.3214100">
<ele>15.719999</ele>
<time>2022-03-15T09:19:22.291Z</time>
</trkpt>
<trkpt lat="31.2669600" lon="35.3217200">
<ele>12.150001</ele>
<time>2022-03-15T09:19:22.291Z</time>
</trkpt>
<trkpt lat="31.2668600" lon="35.3218700">
<ele>10.349999</ele>
<time>2022-03-15T09:19:22.291Z</time>
</trkpt>
<trkpt lat="31.2666900" lon="35.3226300">
<ele>8.240000</ele>
<time>2022-03-15T09:19:22.291Z</time>
</trkpt>
<trkpt lat="31.2667100" lon="35.3253100">
<ele>2.060000</ele>
<time>2022-03-15T09:19:22.291Z</time>
</trkpt>
<trkpt lat="31.2667100" lon="35.3253100">
<ele>2.060000</ele>
<time>2022-03-15T09:19:22.291Z</time>
</trkpt>
<trkpt lat="31.2667100" lon="35.3253600">
<ele>2.160000</ele>
<time>2022-03-15T09:19:22.291Z</time>
</trkpt>
<trkpt lat="31.2666400" lon="35.3264400">
<ele>-0.560000</ele>
<time>2022-03-15T09:19:22.291Z</time>
</trkpt>
<trkpt lat="31.2666500" lon="35.3270000">
<ele>0.740000</ele>
<time>2022-03-15T09:19:22.291Z</time>
</trkpt>
<trkpt lat="31.2665200" lon="35.3272600">
<ele>-0.590000</ele>
<time>2022-03-15T09:19:22.291Z</time>
</trkpt>
<trkpt lat="31.2664700" lon="35.3277500">
<ele>-1.900000</ele>
<time>2022-03-15T09:19:22.291Z</time>
</trkpt>
<trkpt lat="31.2665000" lon="35.3281300">
<ele>-2.490000</ele>
<time>2022-03-15T09:19:22.291Z</time>
</trkpt>
<trkpt lat="31.2664300" lon="35.3286400">
<ele>-2.850000</ele>
<time>2022-03-15T09:19:22.291Z</time>
</trkpt>
<trkpt lat="31.2666200" lon="35.3297800">
<ele>-3.060000</ele>
<time>2022-03-15T09:19:22.291Z</time>
</trkpt>
<trkpt lat="31.2669200" lon="35.3309100">
<ele>0.140000</ele>
<time>2022-03-15T09:19:22.291Z</time>
</trkpt>
<trkpt lat="31.2669800" lon="35.3314800">
<ele>-2.080000</ele>
<time>2022-03-15T09:19:22.291Z</time>
</trkpt>
<trkpt lat="31.2667400" lon="35.3325900">
<ele>-6.970000</ele>
<time>2022-03-15T09:19:22.291Z</time>
</trkpt>
<trkpt lat="31.2665200" lon="35.3331100">
<ele>-6.330000</ele>
<time>2022-03-15T09:19:22.291Z</time>
</trkpt>
<trkpt lat="31.2661300" lon="35.3336500">
<ele>-3.910000</ele>
<time>2022-03-15T09:19:22.292Z</time>
</trkpt>
<trkpt lat="31.2658800" lon="35.3338800">
<ele>-2.090000</ele>
<time>2022-03-15T09:19:22.292Z</time>
</trkpt>
<trkpt lat="31.2656700" lon="35.3340100">
<ele>0.150000</ele>
<time>2022-03-15T09:19:22.292Z</time>
</trkpt>
<trkpt lat="31.2653400" lon="35.3335500">
<ele>-3.100000</ele>
<time>2022-03-15T09:19:22.293Z</time>
</trkpt>
<trkpt lat="31.2647500" lon="35.3331400">
<ele>-2.930000</ele>
<time>2022-03-15T09:19:22.293Z</time>
</trkpt>
<trkpt lat="31.2643400" lon="35.3328600">
<ele>-5.940000</ele>
<time>2022-03-15T09:19:22.293Z</time>
</trkpt>
<trkpt lat="31.2635900" lon="35.3325300">
<ele>-3.900000</ele>
<time>2022-03-15T09:19:22.293Z</time>
</trkpt>
<trkpt lat="31.2633100" lon="35.3325000">
<ele>-0.660000</ele>
<time>2022-03-15T09:19:22.293Z</time>
</trkpt>
<trkpt lat="31.2629600" lon="35.3326900">
<ele>1.390000</ele>
<time>2022-03-15T09:19:22.293Z</time>
</trkpt>
<trkpt lat="31.2628800" lon="35.3327000">
<ele>0.560000</ele>
<time>2022-03-15T09:19:22.293Z</time>
</trkpt>
<trkpt lat="31.2628800" lon="35.3326900">
<ele>0.620000</ele>
<time>2022-03-15T09:19:22.293Z</time>
</trkpt>
<trkpt lat="31.2624100" lon="35.3327200">
<ele>1.740000</ele>
<time>2022-03-15T09:19:22.293Z</time>
</trkpt>
<trkpt lat="31.2617100" lon="35.3329600">
<ele>1.850000</ele>
<time>2022-03-15T09:19:22.293Z</time>
</trkpt>
<trkpt lat="31.2614500" lon="35.3329800">
<ele>6.710000</ele>
<time>2022-03-15T09:19:22.293Z</time>
</trkpt>
<trkpt lat="31.2609500" lon="35.3331100">
<ele>6.980000</ele>
<time>2022-03-15T09:19:22.293Z</time>
</trkpt>
<trkpt lat="31.2604400" lon="35.3332300">
<ele>6.100000</ele>
<time>2022-03-15T09:19:22.293Z</time>
</trkpt>
<trkpt lat="31.2599600" lon="35.3334800">
<ele>4.550000</ele>
<time>2022-03-15T09:19:22.293Z</time>
</trkpt>
<trkpt lat="31.2597500" lon="35.3334900">
<ele>7.110000</ele>
<time>2022-03-15T09:19:22.293Z</time>
</trkpt>
<trkpt lat="31.2595400" lon="35.3335800">
<ele>9.300000</ele>
<time>2022-03-15T09:19:22.293Z</time>
</trkpt>
<trkpt lat="31.2594700" lon="35.3337500">
<ele>8.320000</ele>
<time>2022-03-15T09:19:22.293Z</time>
</trkpt>
<trkpt lat="31.2592800" lon="35.3338900">
<ele>12.309999</ele>
<time>2022-03-15T09:19:22.293Z</time>
</trkpt>
<trkpt lat="31.2587900" lon="35.3340000">
<ele>7.950000</ele>
<time>2022-03-15T09:19:22.293Z</time>
</trkpt>
<trkpt lat="31.2583300" lon="35.3339100">
<ele>13.790000</ele>
<time>2022-03-15T09:19:22.293Z</time>
</trkpt>
<trkpt lat="31.2578700" lon="35.3338100">
<ele>8.800000</ele>
<time>2022-03-15T09:19:22.293Z</time>
</trkpt>
<trkpt lat="31.2573400" lon="35.3336000">
<ele>11.130000</ele>
<time>2022-03-15T09:19:22.294Z</time>
</trkpt>
<trkpt lat="31.2567900" lon="35.3336200">
<ele>12.380000</ele>
<time>2022-03-15T09:19:22.294Z</time>
</trkpt>
<trkpt lat="31.2562300" lon="35.3336400">
<ele>10.550000</ele>
<time>2022-03-15T09:19:22.294Z</time>
</trkpt>
<trkpt lat="31.2558900" lon="35.3337400">
<ele>8.730000</ele>
<time>2022-03-15T09:19:22.294Z</time>
</trkpt>
<trkpt lat="31.2554100" lon="35.3340600">
<ele>8.760000</ele>
<time>2022-03-15T09:19:22.294Z</time>
</trkpt>
<trkpt lat="31.2549200" lon="35.3343900">
<ele>16.250000</ele>
<time>2022-03-15T09:19:22.294Z</time>
</trkpt>
<trkpt lat="31.2544400" lon="35.3347100">
<ele>15.910000</ele>
<time>2022-03-15T09:19:22.294Z</time>
</trkpt>
<trkpt lat="31.2542400" lon="35.3347500">
<ele>13.990000</ele>
<time>2022-03-15T09:19:22.294Z</time>
</trkpt>
<trkpt lat="31.2539200" lon="35.3349600">
<ele>15.090000</ele>
<time>2022-03-15T09:19:22.295Z</time>
</trkpt>
<trkpt lat="31.2534700" lon="35.3350900">
<ele>22.180000</ele>
<time>2022-03-15T09:19:22.295Z</time>
</trkpt>
<trkpt lat="31.2533000" lon="35.3353300">
<ele>25.049999</ele>
<time>2022-03-15T09:19:22.295Z</time>
</trkpt>
<trkpt lat="31.2533400" lon="35.3357400">
<ele>26.650000</ele>
<time>2022-03-15T09:19:22.295Z</time>
</trkpt>
<trkpt lat="31.2533100" lon="35.3359700">
<ele>26.709999</ele>
<time>2022-03-15T09:19:22.295Z</time>
</trkpt>
<trkpt lat="31.2530100" lon="35.3364800">
<ele>24.330002</ele>
<time>2022-03-15T09:19:22.295Z</time>
</trkpt>
<trkpt lat="31.2528400" lon="35.3366500">
<ele>24.940001</ele>
<time>2022-03-15T09:19:22.295Z</time>
</trkpt>
<trkpt lat="31.2526300" lon="35.3366700">
<ele>26.070000</ele>
<time>2022-03-15T09:19:22.295Z</time>
</trkpt>
<trkpt lat="31.2520900" lon="35.3369300">
<ele>27.469999</ele>
<time>2022-03-15T09:19:22.295Z</time>
</trkpt>
<trkpt lat="31.2514600" lon="35.3370700">
<ele>35.530003</ele>
<time>2022-03-15T09:19:22.295Z</time>
</trkpt>
<trkpt lat="31.2508300" lon="35.3371600">
<ele>32.490002</ele>
<time>2022-03-15T09:19:22.295Z</time>
</trkpt>
<trkpt lat="31.2504600" lon="35.3371300">
<ele>36.459999</ele>
<time>2022-03-15T09:19:22.295Z</time>
</trkpt>
<trkpt lat="31.2496300" lon="35.3372100">
<ele>30.260000</ele>
<time>2022-03-15T09:19:22.295Z</time>
</trkpt>
<trkpt lat="31.2492100" lon="35.3372500">
<ele>28.669998</ele>
<time>2022-03-15T09:19:22.295Z</time>
</trkpt>
<trkpt lat="31.2484600" lon="35.3374700">
<ele>24.879999</ele>
<time>2022-03-15T09:19:22.296Z</time>
</trkpt>
<trkpt lat="31.2481100" lon="35.3375000">
<ele>26.219999</ele>
<time>2022-03-15T09:19:22.296Z</time>
</trkpt>
<trkpt lat="31.2476200" lon="35.3374000">
<ele>26.490000</ele>
<time>2022-03-15T09:19:22.296Z</time>
</trkpt>
<trkpt lat="31.2471200" lon="35.3373000">
<ele>23.270000</ele>
<time>2022-03-15T09:19:22.296Z</time>
</trkpt>
<trkpt lat="31.2466300" lon="35.3372000">
<ele>20.469999</ele>
<time>2022-03-15T09:19:22.296Z</time>
</trkpt>
<trkpt lat="31.2462300" lon="35.3373200">
<ele>21.920000</ele>
<time>2022-03-15T09:19:22.296Z</time>
</trkpt>
<trkpt lat="31.2462300" lon="35.3373200">
<ele>21.920000</ele>
<time>2022-03-15T09:19:22.296Z</time>
</trkpt>
<trkpt lat="31.2456700" lon="35.3374900">
<ele>19.639999</ele>
<time>2022-03-15T09:19:22.296Z</time>
</trkpt>
<trkpt lat="31.2452100" lon="35.3375600">
<ele>19.859999</ele>
<time>2022-03-15T09:19:22.296Z</time>
</trkpt>
<trkpt lat="31.2447800" lon="35.3376200">
<ele>21.020000</ele>
<time>2022-03-15T09:19:22.296Z</time>
</trkpt>
<trkpt lat="31.2442500" lon="35.3377500">
<ele>25.299999</ele>
<time>2022-03-15T09:19:22.296Z</time>
</trkpt>
<trkpt lat="31.2437100" lon="35.3378800">
<ele>25.719999</ele>
<time>2022-03-15T09:19:22.296Z</time>
</trkpt>
<trkpt lat="31.2432400" lon="35.3378600">
<ele>26.280001</ele>
<time>2022-03-15T09:19:22.297Z</time>
</trkpt>
<trkpt lat="31.2429900" lon="35.3378300">
<ele>28.100000</ele>
<time>2022-03-15T09:19:22.297Z</time>
</trkpt>
<trkpt lat="31.2424000" lon="35.3376200">
<ele>26.609999</ele>
<time>2022-03-15T09:19:22.297Z</time>
</trkpt>
<trkpt lat="31.2420800" lon="35.3375500">
<ele>25.550001</ele>
<time>2022-03-15T09:19:22.297Z</time>
</trkpt>
<trkpt lat="31.2418400" lon="35.3374900">
<ele>26.940001</ele>
<time>2022-03-15T09:19:22.297Z</time>
</trkpt>
<trkpt lat="31.2410300" lon="35.3374400">
<ele>25.879999</ele>
<time>2022-03-15T09:19:22.297Z</time>
</trkpt>
<trkpt lat="31.2404000" lon="35.3372800">
<ele>33.110001</ele>
<time>2022-03-15T09:19:22.297Z</time>
</trkpt>
<trkpt lat="31.2397700" lon="35.3371100">
<ele>31.570002</ele>
<time>2022-03-15T09:19:22.297Z</time>
</trkpt>
<trkpt lat="31.2389000" lon="35.3371100">
<ele>31.519999</ele>
<time>2022-03-15T09:19:22.297Z</time>
</trkpt>
<trkpt lat="31.2383800" lon="35.3371800">
<ele>26.470001</ele>
<time>2022-03-15T09:19:22.297Z</time>
</trkpt>
<trkpt lat="31.2378500" lon="35.3372400">
<ele>32.250000</ele>
<time>2022-03-15T09:19:22.297Z</time>
</trkpt>
<trkpt lat="31.2374500" lon="35.3371900">
<ele>32.779999</ele>
<time>2022-03-15T09:19:22.297Z</time>
</trkpt>
<trkpt lat="31.2371900" lon="35.3372200">
<ele>31.760000</ele>
<time>2022-03-15T09:19:22.297Z</time>
</trkpt>
<trkpt lat="31.2369400" lon="35.3373900">
<ele>31.830000</ele>
<time>2022-03-15T09:19:22.297Z</time>
</trkpt>
<trkpt lat="31.2367500" lon="35.3376900">
<ele>32.110001</ele>
<time>2022-03-15T09:19:22.297Z</time>
</trkpt>
<trkpt lat="31.2365900" lon="35.3377600">
<ele>32.100002</ele>
<time>2022-03-15T09:19:22.298Z</time>
</trkpt>
<trkpt lat="31.2359300" lon="35.3378200">
<ele>32.480000</ele>
<time>2022-03-15T09:19:22.298Z</time>
</trkpt>
<trkpt lat="31.2352600" lon="35.3378700">
<ele>31.230001</ele>
<time>2022-03-15T09:19:22.298Z</time>
</trkpt>
<trkpt lat="31.2347100" lon="35.3379100">
<ele>30.390001</ele>
<time>2022-03-15T09:19:22.298Z</time>
</trkpt>
<trkpt lat="31.2341200" lon="35.3378300">
<ele>24.160000</ele>
<time>2022-03-15T09:19:22.298Z</time>
</trkpt>
<trkpt lat="31.2335200" lon="35.3377600">
<ele>28.190001</ele>
<time>2022-03-15T09:19:22.298Z</time>
</trkpt>
<trkpt lat="31.2329300" lon="35.3376800">
<ele>24.389999</ele>
<time>2022-03-15T09:19:22.298Z</time>
</trkpt>
<trkpt lat="31.2321300" lon="35.3376600">
<ele>22.600000</ele>
<time>2022-03-15T09:19:22.298Z</time>
</trkpt>
<trkpt lat="31.2319300" lon="35.3375800">
<ele>24.190001</ele>
<time>2022-03-15T09:19:22.298Z</time>
</trkpt>
<trkpt lat="31.2318400" lon="35.3375800">
<ele>24.510000</ele>
<time>2022-03-15T09:19:22.298Z</time>
</trkpt>
<trkpt lat="31.2318400" lon="35.3375800">
<ele>24.510000</ele>
<time>2022-03-15T09:19:22.298Z</time>
</trkpt>
<trkpt lat="31.2318300" lon="35.3375800">
<ele>24.549999</ele>
<time>2022-03-15T09:19:22.298Z</time>
</trkpt>
<trkpt lat="31.2316100" lon="35.3375800">
<ele>25.049999</ele>
<time>2022-03-15T09:19:22.298Z</time>
</trkpt>
<trkpt lat="31.2314900" lon="35.3375500">
<ele>25.049999</ele>
<time>2022-03-15T09:19:22.298Z</time>
</trkpt>
<trkpt lat="31.2313300" lon="35.3375000">
<ele>25.000000</ele>
<time>2022-03-15T09:19:22.298Z</time>
</trkpt>
<trkpt lat="31.2310300" lon="35.3375100">
<ele>25.570000</ele>
<time>2022-03-15T09:19:22.298Z</time>
</trkpt>
<trkpt lat="31.2304500" lon="35.3374400">
<ele>29.949999</ele>
<time>2022-03-15T09:19:22.299Z</time>
</trkpt>
<trkpt lat="31.2296600" lon="35.3369700">
<ele>34.709999</ele>
<time>2022-03-15T09:19:22.299Z</time>
</trkpt>
<trkpt lat="31.2294300" lon="35.3365200">
<ele>33.869999</ele>
<time>2022-03-15T09:19:22.299Z</time>
</trkpt>
<trkpt lat="31.2294400" lon="35.3366000">
<ele>33.959999</ele>
<time>2022-03-15T09:19:22.299Z</time>
</trkpt>
<trkpt lat="31.2293600" lon="35.3369000">
<ele>32.810001</ele>
<time>2022-03-15T09:19:22.299Z</time>
</trkpt>
<trkpt lat="31.2293600" lon="35.3370500">
<ele>34.220001</ele>
<time>2022-03-15T09:19:22.299Z</time>
</trkpt>
<trkpt lat="31.2294000" lon="35.3373600">
<ele>38.740002</ele>
<time>2022-03-15T09:19:22.299Z</time>
</trkpt>
<trkpt lat="31.2293900" lon="35.3376900">
<ele>43.209999</ele>
<time>2022-03-15T09:19:22.299Z</time>
</trkpt>
<trkpt lat="31.2293500" lon="35.3378000">
<ele>44.139999</ele>
<time>2022-03-15T09:19:22.299Z</time>
</trkpt>
<trkpt lat="31.2291700" lon="35.3382000">
<ele>44.040001</ele>
<time>2022-03-15T09:19:22.299Z</time>
</trkpt>
<trkpt lat="31.2290300" lon="35.3384200">
<ele>43.040001</ele>
<time>2022-03-15T09:19:22.299Z</time>
</trkpt>
<trkpt lat="31.2289800" lon="35.3388100">
<ele>41.050003</ele>
<time>2022-03-15T09:19:22.299Z</time>
</trkpt>
<trkpt lat="31.2290700" lon="35.3400000">
<ele>40.350002</ele>
<time>2022-03-15T09:19:22.299Z</time>
</trkpt>
<trkpt lat="31.2294800" lon="35.3423600">
<ele>37.830002</ele>
<time>2022-03-15T09:19:22.299Z</time>
</trkpt>
<trkpt lat="31.2297300" lon="35.3429500">
<ele>39.360001</ele>
<time>2022-03-15T09:19:22.299Z</time>
</trkpt>
<trkpt lat="31.2301000" lon="35.3435100">
<ele>36.830002</ele>
<time>2022-03-15T09:19:22.299Z</time>
</trkpt>
<trkpt lat="31.2305600" lon="35.3444200">
<ele>33.020000</ele>
<time>2022-03-15T09:19:22.299Z</time>
</trkpt>
<trkpt lat="31.2313800" lon="35.3453500">
<ele>29.119999</ele>
<time>2022-03-15T09:19:22.300Z</time>
</trkpt>
<trkpt lat="31.2316500" lon="35.3455500">
<ele>28.240000</ele>
<time>2022-03-15T09:19:22.300Z</time>
</trkpt>
<trkpt lat="31.2318000" lon="35.3455400">
<ele>28.959999</ele>
<time>2022-03-15T09:19:22.300Z</time>
</trkpt>
<trkpt lat="31.2332000" lon="35.3448800">
<ele>28.450001</ele>
<time>2022-03-15T09:19:22.300Z</time>
</trkpt>
<trkpt lat="31.2335800" lon="35.3449500">
<ele>32.959999</ele>
<time>2022-03-15T09:19:22.300Z</time>
</trkpt>
<trkpt lat="31.2337400" lon="35.3449200">
<ele>33.070000</ele>
<time>2022-03-15T09:19:22.300Z</time>
</trkpt>
<trkpt lat="31.2343100" lon="35.3443000">
<ele>35.990002</ele>
<time>2022-03-15T09:19:22.300Z</time>
</trkpt>
<trkpt lat="31.2349900" lon="35.3439900">
<ele>39.010002</ele>
<time>2022-03-15T09:19:22.300Z</time>
</trkpt>
<trkpt lat="31.2356300" lon="35.3440400">
<ele>31.770000</ele>
<time>2022-03-15T09:19:22.300Z</time>
</trkpt>
<trkpt lat="31.2365400" lon="35.3439900">
<ele>25.260000</ele>
<time>2022-03-15T09:19:22.300Z</time>
</trkpt>
<trkpt lat="31.2366800" lon="35.3439800">
<ele>25.700001</ele>
<time>2022-03-15T09:19:22.300Z</time>
</trkpt>
<trkpt lat="31.2370400" lon="35.3439600">
<ele>24.710001</ele>
<time>2022-03-15T09:19:22.300Z</time>
</trkpt>
<trkpt lat="31.2371400" lon="35.3440400">
<ele>23.789999</ele>
<time>2022-03-15T09:19:22.300Z</time>
</trkpt>
<trkpt lat="31.2371400" lon="35.3440400">
<ele>23.789999</ele>
<time>2022-03-15T09:19:22.300Z</time>
</trkpt>
<trkpt lat="31.2371400" lon="35.3440400">
<ele>23.789999</ele>
<time>2022-03-15T09:19:22.300Z</time>
</trkpt>
<trkpt lat="31.2371400" lon="35.3440400">
<ele>23.789999</ele>
<time>2022-03-15T09:19:22.300Z</time>
</trkpt>
<trkpt lat="31.2370400" lon="35.3439600">
<ele>24.710001</ele>
<time>2022-03-15T09:19:22.301Z</time>
</trkpt>
<trkpt lat="31.2366800" lon="35.3439800">
<ele>25.700001</ele>
<time>2022-03-15T09:19:22.301Z</time>
</trkpt>
<trkpt lat="31.2365400" lon="35.3439900">
<ele>25.260000</ele>
<time>2022-03-15T09:19:22.301Z</time>
</trkpt>
<trkpt lat="31.2360900" lon="35.3440200">
<ele>25.600000</ele>
<time>2022-03-15T09:19:22.301Z</time>
</trkpt>
<trkpt lat="31.2356300" lon="35.3440400">
<ele>31.770000</ele>
<time>2022-03-15T09:19:22.301Z</time>
</trkpt>
<trkpt lat="31.2349900" lon="35.3439900">
<ele>39.010002</ele>
<time>2022-03-15T09:19:22.301Z</time>
</trkpt>
<trkpt lat="31.2343100" lon="35.3443000">
<ele>35.990002</ele>
<time>2022-03-15T09:19:22.301Z</time>
</trkpt>
<trkpt lat="31.2337400" lon="35.3449200">
<ele>33.070000</ele>
<time>2022-03-15T09:19:22.301Z</time>
</trkpt>
<trkpt lat="31.2335800" lon="35.3449500">
<ele>32.959999</ele>
<time>2022-03-15T09:19:22.301Z</time>
</trkpt>
<trkpt lat="31.2332000" lon="35.3448800">
<ele>28.450001</ele>
<time>2022-03-15T09:19:22.301Z</time>
</trkpt>
<trkpt lat="31.2327300" lon="35.3451000">
<ele>30.080002</ele>
<time>2022-03-15T09:19:22.301Z</time>
</trkpt>
<trkpt lat="31.2322700" lon="35.3453200">
<ele>30.400000</ele>
<time>2022-03-15T09:19:22.301Z</time>
</trkpt>
<trkpt lat="31.2318000" lon="35.3455400">
<ele>28.959999</ele>
<time>2022-03-15T09:19:22.301Z</time>
</trkpt>
<trkpt lat="31.2316500" lon="35.3455500">
<ele>28.240000</ele>
<time>2022-03-15T09:19:22.301Z</time>
</trkpt>
<trkpt lat="31.2313800" lon="35.3453500">
<ele>29.119999</ele>
<time>2022-03-15T09:19:22.301Z</time>
</trkpt>
<trkpt lat="31.2309700" lon="35.3448900">
<ele>32.189999</ele>
<time>2022-03-15T09:19:22.301Z</time>
</trkpt>
<trkpt lat="31.2305600" lon="35.3444200">
<ele>33.020000</ele>
<time>2022-03-15T09:19:22.301Z</time>
</trkpt>
<trkpt lat="31.2303300" lon="35.3439600">
<ele>34.560001</ele>
<time>2022-03-15T09:19:22.302Z</time>
</trkpt>
<trkpt lat="31.2301000" lon="35.3435100">
<ele>36.830002</ele>
<time>2022-03-15T09:19:22.302Z</time>
</trkpt>
<trkpt lat="31.2297300" lon="35.3429500">
<ele>39.360001</ele>
<time>2022-03-15T09:19:22.302Z</time>
</trkpt>
<trkpt lat="31.2294800" lon="35.3423600">
<ele>37.830002</ele>
<time>2022-03-15T09:19:22.302Z</time>
</trkpt>
<trkpt lat="31.2293800" lon="35.3417700">
<ele>36.399998</ele>
<time>2022-03-15T09:19:22.302Z</time>
</trkpt>
<trkpt lat="31.2292800" lon="35.3411800">
<ele>37.869999</ele>
<time>2022-03-15T09:19:22.302Z</time>
</trkpt>
<trkpt lat="31.2291700" lon="35.3405900">
<ele>39.900002</ele>
<time>2022-03-15T09:19:22.302Z</time>
</trkpt>
<trkpt lat="31.2290700" lon="35.3400000">
<ele>40.350002</ele>
<time>2022-03-15T09:19:22.302Z</time>
</trkpt>
<trkpt lat="31.2290300" lon="35.3394100">
<ele>38.510002</ele>
<time>2022-03-15T09:19:22.302Z</time>
</trkpt>
<trkpt lat="31.2289800" lon="35.3388100">
<ele>41.050003</ele>
<time>2022-03-15T09:19:22.302Z</time>
</trkpt>
<trkpt lat="31.2290300" lon="35.3384200">
<ele>43.040001</ele>
<time>2022-03-15T09:19:22.302Z</time>
</trkpt>
<trkpt lat="31.2288400" lon="35.3383400">
<ele>42.980000</ele>
<time>2022-03-15T09:19:22.302Z</time>
</trkpt>
<trkpt lat="31.2283800" lon="35.3385600">
<ele>42.859997</ele>
<time>2022-03-15T09:19:22.302Z</time>
</trkpt>
<trkpt lat="31.2279300" lon="35.3387800">
<ele>39.610001</ele>
<time>2022-03-15T09:19:22.302Z</time>
</trkpt>
<trkpt lat="31.2274700" lon="35.3389900">
<ele>39.039997</ele>
<time>2022-03-15T09:19:22.302Z</time>
</trkpt>
<trkpt lat="31.2270100" lon="35.3392100">
<ele>39.879997</ele>
<time>2022-03-15T09:19:22.302Z</time>
</trkpt>
<trkpt lat="31.2269200" lon="35.3392300">
<ele>39.680000</ele>
<time>2022-03-15T09:19:22.303Z</time>
</trkpt>
<trkpt lat="31.2269200" lon="35.3392300">
<ele>39.680000</ele>
<time>2022-03-15T09:19:22.303Z</time>
</trkpt>
<trkpt lat="31.2264800" lon="35.3393500">
<ele>37.900002</ele>
<time>2022-03-15T09:19:22.303Z</time>
</trkpt>
<trkpt lat="31.2260300" lon="35.3394600">
<ele>35.389999</ele>
<time>2022-03-15T09:19:22.303Z</time>
</trkpt>
<trkpt lat="31.2256300" lon="35.3394600">
<ele>40.789997</ele>
<time>2022-03-15T09:19:22.303Z</time>
</trkpt>
<trkpt lat="31.2250100" lon="35.3395600">
<ele>35.660000</ele>
<time>2022-03-15T09:19:22.303Z</time>
</trkpt>
<trkpt lat="31.2243800" lon="35.3396600">
<ele>31.040001</ele>
<time>2022-03-15T09:19:22.303Z</time>
</trkpt>
<trkpt lat="31.2237800" lon="35.3396400">
<ele>31.700001</ele>
<time>2022-03-15T09:19:22.303Z</time>
</trkpt>
<trkpt lat="31.2233800" lon="35.3398000">
<ele>30.379999</ele>
<time>2022-03-15T09:19:22.303Z</time>
</trkpt>
<trkpt lat="31.2228600" lon="35.3398200">
<ele>27.310001</ele>
<time>2022-03-15T09:19:22.303Z</time>
</trkpt>
<trkpt lat="31.2227100" lon="35.3398700">
<ele>26.759998</ele>
<time>2022-03-15T09:19:22.303Z</time>
</trkpt>
<trkpt lat="31.2224700" lon="35.3400500">
<ele>26.120001</ele>
<time>2022-03-15T09:19:22.303Z</time>
</trkpt>
<trkpt lat="31.2218200" lon="35.3401800">
<ele>34.590000</ele>
<time>2022-03-15T09:19:22.303Z</time>
</trkpt>
<trkpt lat="31.2211400" lon="35.3404300">
<ele>36.600002</ele>
<time>2022-03-15T09:19:22.303Z</time>
</trkpt>
<trkpt lat="31.2203600" lon="35.3409200">
<ele>35.790001</ele>
<time>2022-03-15T09:19:22.303Z</time>
</trkpt>
<trkpt lat="31.2199400" lon="35.3412500">
<ele>36.680000</ele>
<time>2022-03-15T09:19:22.303Z</time>
</trkpt>
<trkpt lat="31.2195200" lon="35.3415700">
<ele>34.920002</ele>
<time>2022-03-15T09:19:22.304Z</time>
</trkpt>
<trkpt lat="31.2191000" lon="35.3419000">
<ele>34.200001</ele>
<time>2022-03-15T09:19:22.304Z</time>
</trkpt>
<trkpt lat="31.2187700" lon="35.3420400">
<ele>35.049999</ele>
<time>2022-03-15T09:19:22.304Z</time>
</trkpt>
<trkpt lat="31.2183800" lon="35.3423400">
<ele>32.689999</ele>
<time>2022-03-15T09:19:22.304Z</time>
</trkpt>
<trkpt lat="31.2179800" lon="35.3426500">
<ele>31.000000</ele>
<time>2022-03-15T09:19:22.304Z</time>
</trkpt>
<trkpt lat="31.2174400" lon="35.3431400">
<ele>32.520000</ele>
<time>2022-03-15T09:19:22.304Z</time>
</trkpt>
<trkpt lat="31.2170400" lon="35.3433800">
<ele>35.459999</ele>
<time>2022-03-15T09:19:22.304Z</time>
</trkpt>
<trkpt lat="31.2163500" lon="35.3434300">
<ele>25.990000</ele>
<time>2022-03-15T09:19:22.304Z</time>
</trkpt>
<trkpt lat="31.2160100" lon="35.3435100">
<ele>24.710001</ele>
<time>2022-03-15T09:19:22.304Z</time>
</trkpt>
<trkpt lat="31.2157600" lon="35.3434400">
<ele>25.949999</ele>
<time>2022-03-15T09:19:22.304Z</time>
</trkpt>
<trkpt lat="31.2153100" lon="35.3435300">
<ele>21.280001</ele>
<time>2022-03-15T09:19:22.304Z</time>
</trkpt>
<trkpt lat="31.2144200" lon="35.3435400">
<ele>18.230000</ele>
<time>2022-03-15T09:19:22.304Z</time>
</trkpt>
<trkpt lat="31.2138000" lon="35.3434500">
<ele>19.350000</ele>
<time>2022-03-15T09:19:22.304Z</time>
</trkpt>
<trkpt lat="31.2131800" lon="35.3433500">
<ele>15.680000</ele>
<time>2022-03-15T09:19:22.304Z</time>
</trkpt>
<trkpt lat="31.2129800" lon="35.3434100">
<ele>13.600000</ele>
<time>2022-03-15T09:19:22.304Z</time>
</trkpt>
<trkpt lat="31.2126200" lon="35.3436700">
<ele>12.530001</ele>
<time>2022-03-15T09:19:22.305Z</time>
</trkpt>
<trkpt lat="31.2122100" lon="35.3438900">
<ele>14.219999</ele>
<time>2022-03-15T09:19:22.305Z</time>
</trkpt>
<trkpt lat="31.2117900" lon="35.3441200">
<ele>19.920000</ele>
<time>2022-03-15T09:19:22.305Z</time>
</trkpt>
<trkpt lat="31.2113800" lon="35.3443400">
<ele>16.629999</ele>
<time>2022-03-15T09:19:22.305Z</time>
</trkpt>
<trkpt lat="31.2108700" lon="35.3445600">
<ele>16.050001</ele>
<time>2022-03-15T09:19:22.305Z</time>
</trkpt>
<trkpt lat="31.2103500" lon="35.3447700">
<ele>23.360001</ele>
<time>2022-03-15T09:19:22.305Z</time>
</trkpt>
<trkpt lat="31.2097400" lon="35.3449400">
<ele>27.270000</ele>
<time>2022-03-15T09:19:22.305Z</time>
</trkpt>
<trkpt lat="31.2091700" lon="35.3451700">
<ele>26.010000</ele>
<time>2022-03-15T09:19:22.305Z</time>
</trkpt>
<trkpt lat="31.2090100" lon="35.3451300">
<ele>24.870001</ele>
<time>2022-03-15T09:19:22.305Z</time>
</trkpt>
<trkpt lat="31.2083100" lon="35.3453700">
<ele>24.160000</ele>
<time>2022-03-15T09:19:22.305Z</time>
</trkpt>
<trkpt lat="31.2080300" lon="35.3453600">
<ele>22.020000</ele>
<time>2022-03-15T09:19:22.305Z</time>
</trkpt>
<trkpt lat="31.2075200" lon="35.3455500">
<ele>22.750000</ele>
<time>2022-03-15T09:19:22.305Z</time>
</trkpt>
<trkpt lat="31.2070100" lon="35.3457300">
<ele>24.910000</ele>
<time>2022-03-15T09:19:22.305Z</time>
</trkpt>
<trkpt lat="31.2065100" lon="35.3458400">
<ele>23.430000</ele>
<time>2022-03-15T09:19:22.305Z</time>
</trkpt>
<trkpt lat="31.2060100" lon="35.3459600">
<ele>25.090000</ele>
<time>2022-03-15T09:19:22.305Z</time>
</trkpt>
<trkpt lat="31.2055900" lon="35.3464100">
<ele>26.200001</ele>
<time>2022-03-15T09:19:22.305Z</time>
</trkpt>
<trkpt lat="31.2052300" lon="35.3469500">
<ele>30.690001</ele>
<time>2022-03-15T09:19:22.305Z</time>
</trkpt>
<trkpt lat="31.2052400" lon="35.3475800">
<ele>29.710001</ele>
<time>2022-03-15T09:19:22.306Z</time>
</trkpt>
<trkpt lat="31.2052200" lon="35.3475800">
<ele>29.639999</ele>
<time>2022-03-15T09:19:22.306Z</time>
</trkpt>
<trkpt lat="31.2052200" lon="35.3475800">
<ele>29.639999</ele>
<time>2022-03-15T09:19:22.306Z</time>
</trkpt>
<trkpt lat="31.2048100" lon="35.3476900">
<ele>25.210001</ele>
<time>2022-03-15T09:19:22.306Z</time>
</trkpt>
<trkpt lat="31.2045600" lon="35.3479200">
<ele>23.480000</ele>
<time>2022-03-15T09:19:22.306Z</time>
</trkpt>
<trkpt lat="31.2041800" lon="35.3479000">
<ele>22.080002</ele>
<time>2022-03-15T09:19:22.306Z</time>
</trkpt>
<trkpt lat="31.2037200" lon="35.3481800">
<ele>19.049999</ele>
<time>2022-03-15T09:19:22.306Z</time>
</trkpt>
<trkpt lat="31.2031600" lon="35.3480500">
<ele>21.590000</ele>
<time>2022-03-15T09:19:22.306Z</time>
</trkpt>
<trkpt lat="31.2027100" lon="35.3483500">
<ele>17.260000</ele>
<time>2022-03-15T09:19:22.306Z</time>
</trkpt>
<trkpt lat="31.2023900" lon="35.3484800">
<ele>17.360001</ele>
<time>2022-03-15T09:19:22.306Z</time>
</trkpt>
<trkpt lat="31.2021900" lon="35.3484700">
<ele>15.020000</ele>
<time>2022-03-15T09:19:22.306Z</time>
</trkpt>
<trkpt lat="31.2021100" lon="35.3484200">
<ele>13.620000</ele>
<time>2022-03-15T09:19:22.306Z</time>
</trkpt>
<trkpt lat="31.2020100" lon="35.3484500">
<ele>12.450001</ele>
<time>2022-03-15T09:19:22.306Z</time>
</trkpt>
<trkpt lat="31.2018900" lon="35.3485200">
<ele>10.480000</ele>
<time>2022-03-15T09:19:22.306Z</time>
</trkpt>
<trkpt lat="31.2016800" lon="35.3485500">
<ele>7.200000</ele>
<time>2022-03-15T09:19:22.306Z</time>
</trkpt>
<trkpt lat="31.2015500" lon="35.3485600">
<ele>2.660000</ele>
<time>2022-03-15T09:19:22.306Z</time>
</trkpt>
<trkpt lat="31.2014600" lon="35.3486600">
<ele>-4.120000</ele>
<time>2022-03-15T09:19:22.306Z</time>
</trkpt>
<trkpt lat="31.2013500" lon="35.3486500">
<ele>-11.220000</ele>
<time>2022-03-15T09:19:22.307Z</time>
</trkpt>
<trkpt lat="31.2012800" lon="35.3485800">
<ele>-14.610000</ele>
<time>2022-03-15T09:19:22.307Z</time>
</trkpt>
<trkpt lat="31.2012000" lon="35.3485300">
<ele>-18.720001</ele>
<time>2022-03-15T09:19:22.307Z</time>
</trkpt>
<trkpt lat="31.2010900" lon="35.3485500">
<ele>-30.630001</ele>
<time>2022-03-15T09:19:22.307Z</time>
</trkpt>
<trkpt lat="31.2010600" lon="35.3484900">
<ele>-29.080000</ele>
<time>2022-03-15T09:19:22.307Z</time>
</trkpt>
<trkpt lat="31.2010700" lon="35.3484500">
<ele>-24.459999</ele>
<time>2022-03-15T09:19:22.307Z</time>
</trkpt>
<trkpt lat="31.2010700" lon="35.3484500">
<ele>-24.459999</ele>
<time>2022-03-15T09:19:22.307Z</time>
</trkpt>
<trkpt lat="31.2010800" lon="35.3484400">
<ele>-22.250000</ele>
<time>2022-03-15T09:19:22.307Z</time>
</trkpt>
<trkpt lat="31.2011300" lon="35.3484000">
<ele>-13.150000</ele>
<time>2022-03-15T09:19:22.307Z</time>
</trkpt>
<trkpt lat="31.2012300" lon="35.3484200">
<ele>-8.710000</ele>
<time>2022-03-15T09:19:22.307Z</time>
</trkpt>
<trkpt lat="31.2014000" lon="35.3483700">
<ele>2.980000</ele>
<time>2022-03-15T09:19:22.307Z</time>
</trkpt>
<trkpt lat="31.2015200" lon="35.3483300">
<ele>5.450000</ele>
<time>2022-03-15T09:19:22.307Z</time>
</trkpt>
<trkpt lat="31.2015300" lon="35.3482900">
<ele>5.990000</ele>
<time>2022-03-15T09:19:22.307Z</time>
</trkpt>
<trkpt lat="31.2015100" lon="35.3482200">
<ele>6.580000</ele>
<time>2022-03-15T09:19:22.307Z</time>
</trkpt>
<trkpt lat="31.2013700" lon="35.3481700">
<ele>5.740000</ele>
<time>2022-03-15T09:19:22.307Z</time>
</trkpt>
<trkpt lat="31.2012800" lon="35.3481600">
<ele>3.020000</ele>
<time>2022-03-15T09:19:22.307Z</time>
</trkpt>
<trkpt lat="31.2011900" lon="35.3482100">
<ele>-1.230000</ele>
<time>2022-03-15T09:19:22.307Z</time>
</trkpt>
<trkpt lat="31.2010700" lon="35.3482200">
<ele>-10.020000</ele>
<time>2022-03-15T09:19:22.307Z</time>
</trkpt>
<trkpt lat="31.2010100" lon="35.3481800">
<ele>-16.199999</ele>
<time>2022-03-15T09:19:22.307Z</time>
</trkpt>
<trkpt lat="31.2009900" lon="35.3481100">
<ele>-14.780000</ele>
<time>2022-03-15T09:19:22.307Z</time>
</trkpt>
<trkpt lat="31.2010200" lon="35.3480200">
<ele>-7.330000</ele>
<time>2022-03-15T09:19:22.307Z</time>
</trkpt>
<trkpt lat="31.2010200" lon="35.3480200">
<ele>-7.330000</ele>
<time>2022-03-15T09:19:22.307Z</time>
</trkpt>
<trkpt lat="31.2010200" lon="35.3480100">
<ele>-7.000000</ele>
<time>2022-03-15T09:19:22.307Z</time>
</trkpt>
<trkpt lat="31.2011300" lon="35.3479100">
<ele>2.380000</ele>
<time>2022-03-15T09:19:22.307Z</time>
</trkpt>
<trkpt lat="31.2012500" lon="35.3478500">
<ele>4.500000</ele>
<time>2022-03-15T09:19:22.307Z</time>
</trkpt>
<trkpt lat="31.2014000" lon="35.3478000">
<ele>6.350000</ele>
<time>2022-03-15T09:19:22.308Z</time>
</trkpt>
<trkpt lat="31.2015000" lon="35.3477600">
<ele>8.030000</ele>
<time>2022-03-15T09:19:22.308Z</time>
</trkpt>
<trkpt lat="31.2016200" lon="35.3476900">
<ele>10.420000</ele>
<time>2022-03-15T09:19:22.308Z</time>
</trkpt>
<trkpt lat="31.2016900" lon="35.3476500">
<ele>11.540000</ele>
<time>2022-03-15T09:19:22.308Z</time>
</trkpt>
<trkpt lat="31.2017500" lon="35.3476300">
<ele>11.830000</ele>
<time>2022-03-15T09:19:22.308Z</time>
</trkpt>
<trkpt lat="31.2018300" lon="35.3476300">
<ele>12.120000</ele>
<time>2022-03-15T09:19:22.308Z</time>
</trkpt>
<trkpt lat="31.2018800" lon="35.3475200">
<ele>12.700001</ele>
<time>2022-03-15T09:19:22.308Z</time>
</trkpt>
<trkpt lat="31.2018600" lon="35.3474200">
<ele>12.410000</ele>
<time>2022-03-15T09:19:22.308Z</time>
</trkpt>
<trkpt lat="31.2011300" lon="35.3467400">
<ele>5.320000</ele>
<time>2022-03-15T09:19:22.308Z</time>
</trkpt>
<trkpt lat="31.2009400" lon="35.3466000">
<ele>5.950000</ele>
<time>2022-03-15T09:19:22.308Z</time>
</trkpt>
<trkpt lat="31.2009400" lon="35.3466000">
<ele>5.950000</ele>
<time>2022-03-15T09:19:22.308Z</time>
</trkpt>
<trkpt lat="31.2007800" lon="35.3464800">
<ele>7.060000</ele>
<time>2022-03-15T09:19:22.308Z</time>
</trkpt>
<trkpt lat="31.2003200" lon="35.3462700">
<ele>9.010000</ele>
<time>2022-03-15T09:19:22.308Z</time>
</trkpt>
<trkpt lat="31.2001700" lon="35.3461600">
<ele>9.190001</ele>
<time>2022-03-15T09:19:22.308Z</time>
</trkpt>
<trkpt lat="31.1996500" lon="35.3456900">
<ele>11.130000</ele>
<time>2022-03-15T09:19:22.308Z</time>
</trkpt>
<trkpt lat="31.1990800" lon="35.3452700">
<ele>13.080001</ele>
<time>2022-03-15T09:19:22.308Z</time>
</trkpt>
<trkpt lat="31.1988500" lon="35.3450400">
<ele>10.800000</ele>
<time>2022-03-15T09:19:22.309Z</time>
</trkpt>
<trkpt lat="31.1986700" lon="35.3448300">
<ele>10.470000</ele>
<time>2022-03-15T09:19:22.309Z</time>
</trkpt>
<trkpt lat="31.1985300" lon="35.3448100">
<ele>7.760000</ele>
<time>2022-03-15T09:19:22.309Z</time>
</trkpt>
<trkpt lat="31.1983700" lon="35.3445000">
<ele>1.240000</ele>
<time>2022-03-15T09:19:22.309Z</time>
</trkpt>
<trkpt lat="31.1983700" lon="35.3445000">
<ele>1.240000</ele>
<time>2022-03-15T09:19:22.309Z</time>
</trkpt>
<trkpt lat="31.1985100" lon="35.3443900">
<ele>2.980000</ele>
<time>2022-03-15T09:19:22.309Z</time>
</trkpt>
<trkpt lat="31.1987000" lon="35.3442500">
<ele>4.200000</ele>
<time>2022-03-15T09:19:22.309Z</time>
</trkpt>
<trkpt lat="31.1988400" lon="35.3443300">
<ele>8.540000</ele>
<time>2022-03-15T09:19:22.309Z</time>
</trkpt>
<trkpt lat="31.1988100" lon="35.3445200">
<ele>10.800000</ele>
<time>2022-03-15T09:19:22.309Z</time>
</trkpt>
<trkpt lat="31.1989600" lon="35.3445500">
<ele>12.890000</ele>
<time>2022-03-15T09:19:22.309Z</time>
</trkpt>
<trkpt lat="31.1992000" lon="35.3444700">
<ele>14.440000</ele>
<time>2022-03-15T09:19:22.309Z</time>
</trkpt>
<trkpt lat="31.1993200" lon="35.3444000">
<ele>15.180000</ele>
<time>2022-03-15T09:19:22.309Z</time>
</trkpt>
<trkpt lat="31.1993200" lon="35.3442900">
<ele>13.990000</ele>
<time>2022-03-15T09:19:22.309Z</time>
</trkpt>
<trkpt lat="31.1993200" lon="35.3442900">
<ele>13.990000</ele>
<time>2022-03-15T09:19:22.309Z</time>
</trkpt>
<trkpt lat="31.1993100" lon="35.3440500">
<ele>12.139999</ele>
<time>2022-03-15T09:19:22.309Z</time>
</trkpt>
<trkpt lat="31.1991700" lon="35.3438900">
<ele>9.070000</ele>
<time>2022-03-15T09:19:22.309Z</time>
</trkpt>
<trkpt lat="31.1993200" lon="35.3437800">
<ele>12.059999</ele>
<time>2022-03-15T09:19:22.310Z</time>
</trkpt>
<trkpt lat="31.1991700" lon="35.3436200">
<ele>7.180000</ele>
<time>2022-03-15T09:19:22.310Z</time>
</trkpt>
<trkpt lat="31.1989600" lon="35.3437200">
<ele>1.090000</ele>
<time>2022-03-15T09:19:22.310Z</time>
</trkpt>
<trkpt lat="31.1987700" lon="35.3438700">
<ele>-1.450000</ele>
<time>2022-03-15T09:19:22.310Z</time>
</trkpt>
<trkpt lat="31.1986400" lon="35.3437800">
<ele>-3.820000</ele>
<time>2022-03-15T09:19:22.310Z</time>
</trkpt>
<trkpt lat="31.1983600" lon="35.3437100">
<ele>-5.900000</ele>
<time>2022-03-15T09:19:22.310Z</time>
</trkpt>
<trkpt lat="31.1980700" lon="35.3434500">
<ele>-6.700000</ele>
<time>2022-03-15T09:19:22.310Z</time>
</trkpt>
<trkpt lat="31.1979000" lon="35.3432500">
<ele>-4.060000</ele>
<time>2022-03-15T09:19:22.310Z</time>
</trkpt>
<trkpt lat="31.1977500" lon="35.3431200">
<ele>-2.180000</ele>
<time>2022-03-15T09:19:22.310Z</time>
</trkpt>
<trkpt lat="31.1976900" lon="35.3430200">
<ele>-1.690000</ele>
<time>2022-03-15T09:19:22.310Z</time>
</trkpt>
<trkpt lat="31.1976000" lon="35.3427800">
<ele>-0.940000</ele>
<time>2022-03-15T09:19:22.310Z</time>
</trkpt>
<trkpt lat="31.1971400" lon="35.3421900">
<ele>-6.850000</ele>
<time>2022-03-15T09:19:22.310Z</time>
</trkpt>
<trkpt lat="31.1970400" lon="35.3420800">
<ele>-7.630000</ele>
<time>2022-03-15T09:19:22.310Z</time>
</trkpt>
<trkpt lat="31.1969100" lon="35.3419300">
<ele>-7.340000</ele>
<time>2022-03-15T09:19:22.310Z</time>
</trkpt>
<trkpt lat="31.1969000" lon="35.3419300">
<ele>-7.230000</ele>
<time>2022-03-15T09:19:22.310Z</time>
</trkpt>
<trkpt lat="31.1969000" lon="35.3419300">
<ele>-7.230000</ele>
<time>2022-03-15T09:19:22.310Z</time>
</trkpt>
<trkpt lat="31.1968400" lon="35.3419100">
<ele>-6.270000</ele>
<time>2022-03-15T09:19:22.311Z</time>
</trkpt>
<trkpt lat="31.1967300" lon="35.3417900">
<ele>-3.640000</ele>
<time>2022-03-15T09:19:22.311Z</time>
</trkpt>
<trkpt lat="31.1965000" lon="35.3415700">
<ele>-0.240000</ele>
<time>2022-03-15T09:19:22.311Z</time>
</trkpt>
<trkpt lat="31.1963300" lon="35.3413500">
<ele>0.000000</ele>
<time>2022-03-15T09:19:22.311Z</time>
</trkpt>
<trkpt lat="31.1959200" lon="35.3414600">
<ele>-6.270000</ele>
<time>2022-03-15T09:19:22.311Z</time>
</trkpt>
<trkpt lat="31.1957600" lon="35.3416400">
<ele>-23.129999</ele>
<time>2022-03-15T09:19:22.311Z</time>
</trkpt>
<trkpt lat="31.1956900" lon="35.3413100">
<ele>-13.120000</ele>
<time>2022-03-15T09:19:22.311Z</time>
</trkpt>
<trkpt lat="31.1957400" lon="35.3410300">
<ele>-5.150000</ele>
<time>2022-03-15T09:19:22.311Z</time>
</trkpt>
<trkpt lat="31.1957400" lon="35.3410300">
<ele>-5.150000</ele>
<time>2022-03-15T09:19:22.311Z</time>
</trkpt>
<trkpt lat="31.1958000" lon="35.3406500">
<ele>-0.240000</ele>
<time>2022-03-15T09:19:22.311Z</time>
</trkpt>
<trkpt lat="31.1954900" lon="35.3405000">
<ele>-2.840000</ele>
<time>2022-03-15T09:19:22.311Z</time>
</trkpt>
<trkpt lat="31.1953500" lon="35.3403500">
<ele>-2.260000</ele>
<time>2022-03-15T09:19:22.311Z</time>
</trkpt>
<trkpt lat="31.1951500" lon="35.3404300">
<ele>-3.050000</ele>
<time>2022-03-15T09:19:22.311Z</time>
</trkpt>
<trkpt lat="31.1949600" lon="35.3403000">
<ele>-3.960000</ele>
<time>2022-03-15T09:19:22.311Z</time>
</trkpt>
<trkpt lat="31.1948600" lon="35.3402100">
<ele>-6.650000</ele>
<time>2022-03-15T09:19:22.311Z</time>
</trkpt>
<trkpt lat="31.1948600" lon="35.3402100">
<ele>-6.650000</ele>
<time>2022-03-15T09:19:22.311Z</time>
</trkpt>
<trkpt lat="31.1947500" lon="35.3401100">
<ele>-8.880000</ele>
<time>2022-03-15T09:19:22.311Z</time>
</trkpt>
<trkpt lat="31.1946900" lon="35.3399200">
<ele>-9.540000</ele>
<time>2022-03-15T09:19:22.312Z</time>
</trkpt>
<trkpt lat="31.1947600" lon="35.3397200">
<ele>-10.070001</ele>
<time>2022-03-15T09:19:22.312Z</time>
</trkpt>
<trkpt lat="31.1947100" lon="35.3396000">
<ele>-12.219999</ele>
<time>2022-03-15T09:19:22.312Z</time>
</trkpt>
<trkpt lat="31.1946400" lon="35.3393600">
<ele>-13.330000</ele>
<time>2022-03-15T09:19:22.312Z</time>
</trkpt>
<trkpt lat="31.1946100" lon="35.3394400">
<ele>-12.410000</ele>
<time>2022-03-15T09:19:22.312Z</time>
</trkpt>
<trkpt lat="31.1944600" lon="35.3394800">
<ele>-10.200000</ele>
<time>2022-03-15T09:19:22.312Z</time>
</trkpt>
<trkpt lat="31.1942500" lon="35.3394300">
<ele>-8.540000</ele>
<time>2022-03-15T09:19:22.312Z</time>
</trkpt>
<trkpt lat="31.1942400" lon="35.3394800">
<ele>-8.340000</ele>
<time>2022-03-15T09:19:22.312Z</time>
</trkpt>
<trkpt lat="31.1943500" lon="35.3395700">
<ele>-9.010000</ele>
<time>2022-03-15T09:19:22.312Z</time>
</trkpt>
<trkpt lat="31.1943200" lon="35.3398000">
<ele>-7.930000</ele>
<time>2022-03-15T09:19:22.312Z</time>
</trkpt>
<trkpt lat="31.1943200" lon="35.3399900">
<ele>-7.240000</ele>
<time>2022-03-15T09:19:22.312Z</time>
</trkpt>
<trkpt lat="31.1943300" lon="35.3401800">
<ele>-7.620000</ele>
<time>2022-03-15T09:19:22.312Z</time>
</trkpt>
<trkpt lat="31.1942800" lon="35.3403600">
<ele>-7.800000</ele>
<time>2022-03-15T09:19:22.312Z</time>
</trkpt>
<trkpt lat="31.1942700" lon="35.3404400">
<ele>-8.370000</ele>
<time>2022-03-15T09:19:22.312Z</time>
</trkpt>
<trkpt lat="31.1942700" lon="35.3404400">
<ele>-8.370000</ele>
<time>2022-03-15T09:19:22.312Z</time>
</trkpt>
<trkpt lat="31.1942600" lon="35.3404900">
<ele>-8.780000</ele>
<time>2022-03-15T09:19:22.312Z</time>
</trkpt>
<trkpt lat="31.1942500" lon="35.3402800">
<ele>-6.920000</ele>
<time>2022-03-15T09:19:22.313Z</time>
</trkpt>
<trkpt lat="31.1942200" lon="35.3401900">
<ele>-6.320000</ele>
<time>2022-03-15T09:19:22.313Z</time>
</trkpt>
<trkpt lat="31.1941200" lon="35.3398800">
<ele>-4.690000</ele>
<time>2022-03-15T09:19:22.313Z</time>
</trkpt>
<trkpt lat="31.1940600" lon="35.3398600">
<ele>-3.770000</ele>
<time>2022-03-15T09:19:22.313Z</time>
</trkpt>
<trkpt lat="31.1940500" lon="35.3398900">
<ele>-3.550000</ele>
<time>2022-03-15T09:19:22.313Z</time>
</trkpt>
<trkpt lat="31.1940500" lon="35.3398900">
<ele>-3.550000</ele>
<time>2022-03-15T09:19:22.313Z</time>
</trkpt>
<trkpt lat="31.1940500" lon="35.3399100">
<ele>-3.510000</ele>
<time>2022-03-15T09:19:22.313Z</time>
</trkpt>
<trkpt lat="31.1941600" lon="35.3400800">
<ele>-5.160000</ele>
<time>2022-03-15T09:19:22.313Z</time>
</trkpt>
<trkpt lat="31.1941700" lon="35.3401900">
<ele>-5.720000</ele>
<time>2022-03-15T09:19:22.313Z</time>
</trkpt>
<trkpt lat="31.1941200" lon="35.3403200">
<ele>-5.190000</ele>
<time>2022-03-15T09:19:22.313Z</time>
</trkpt>
<trkpt lat="31.1941000" lon="35.3404000">
<ele>-5.520000</ele>
<time>2022-03-15T09:19:22.313Z</time>
</trkpt>
<trkpt lat="31.1940200" lon="35.3401200">
<ele>-2.410000</ele>
<time>2022-03-15T09:19:22.313Z</time>
</trkpt>
<trkpt lat="31.1939000" lon="35.3398200">
<ele>-1.190000</ele>
<time>2022-03-15T09:19:22.313Z</time>
</trkpt>
<trkpt lat="31.1937800" lon="35.3397000">
<ele>1.710000</ele>
<time>2022-03-15T09:19:22.313Z</time>
</trkpt>
<trkpt lat="31.1936300" lon="35.3396500">
<ele>5.280000</ele>
<time>2022-03-15T09:19:22.313Z</time>
</trkpt>
<trkpt lat="31.1936300" lon="35.3396500">
<ele>5.280000</ele>
<time>2022-03-15T09:19:22.314Z</time>
</trkpt>
<trkpt lat="31.1931500" lon="35.3394900">
<ele>2.900000</ele>
<time>2022-03-15T09:19:22.314Z</time>
</trkpt>
<trkpt lat="31.1929000" lon="35.3394300">
<ele>1.470000</ele>
<time>2022-03-15T09:19:22.314Z</time>
</trkpt>
<trkpt lat="31.1928400" lon="35.3393600">
<ele>1.460000</ele>
<time>2022-03-15T09:19:22.314Z</time>
</trkpt>
<trkpt lat="31.1927100" lon="35.3391500">
<ele>2.360000</ele>
<time>2022-03-15T09:19:22.314Z</time>
</trkpt>
<trkpt lat="31.1927100" lon="35.3391500">
<ele>2.360000</ele>
<time>2022-03-15T09:19:22.314Z</time>
</trkpt>
<trkpt lat="31.1926800" lon="35.3391100">
<ele>2.760000</ele>
<time>2022-03-15T09:19:22.314Z</time>
</trkpt>
<trkpt lat="31.1926400" lon="35.3390200">
<ele>3.550000</ele>
<time>2022-03-15T09:19:22.314Z</time>
</trkpt>
<trkpt lat="31.1926400" lon="35.3387900">
<ele>3.790000</ele>
<time>2022-03-15T09:19:22.314Z</time>
</trkpt>
<trkpt lat="31.1928500" lon="35.3382600">
<ele>1.610000</ele>
<time>2022-03-15T09:19:22.314Z</time>
</trkpt>
<trkpt lat="31.1928500" lon="35.3379600">
<ele>-0.350000</ele>
<time>2022-03-15T09:19:22.314Z</time>
</trkpt>
<trkpt lat="31.1929500" lon="35.3377200">
<ele>-2.080000</ele>
<time>2022-03-15T09:19:22.315Z</time>
</trkpt>
<trkpt lat="31.1929100" lon="35.3375000">
<ele>-2.520000</ele>
<time>2022-03-15T09:19:22.315Z</time>
</trkpt>
<trkpt lat="31.1929100" lon="35.3375000">
<ele>-2.520000</ele>
<time>2022-03-15T09:19:22.315Z</time>
</trkpt>
<trkpt lat="31.1928800" lon="35.3373700">
<ele>-2.160000</ele>
<time>2022-03-15T09:19:22.315Z</time>
</trkpt>
<trkpt lat="31.1928200" lon="35.3369800">
<ele>-0.840000</ele>
<time>2022-03-15T09:19:22.315Z</time>
</trkpt>
<trkpt lat="31.1927200" lon="35.3367100">
<ele>1.100000</ele>
<time>2022-03-15T09:19:22.315Z</time>
</trkpt>
<trkpt lat="31.1925700" lon="35.3364200">
<ele>4.500000</ele>
<time>2022-03-15T09:19:22.315Z</time>
</trkpt>
<trkpt lat="31.1923900" lon="35.3362800">
<ele>7.050000</ele>
<time>2022-03-15T09:19:22.315Z</time>
</trkpt>
<trkpt lat="31.1922900" lon="35.3361500">
<ele>8.550000</ele>
<time>2022-03-15T09:19:22.315Z</time>
</trkpt>
<trkpt lat="31.1921900" lon="35.3362300">
<ele>8.090000</ele>
<time>2022-03-15T09:19:22.315Z</time>
</trkpt>
<trkpt lat="31.1919800" lon="35.3363600">
<ele>5.310000</ele>
<time>2022-03-15T09:19:22.315Z</time>
</trkpt>
<trkpt lat="31.1914900" lon="35.3365500">
<ele>4.840000</ele>
<time>2022-03-15T09:19:22.315Z</time>
</trkpt>
<trkpt lat="31.1913800" lon="35.3365700">
<ele>4.390000</ele>
<time>2022-03-15T09:19:22.315Z</time>
</trkpt>
<trkpt lat="31.1912300" lon="35.3366300">
<ele>4.780000</ele>
<time>2022-03-15T09:19:22.315Z</time>
</trkpt>
<trkpt lat="31.1910800" lon="35.3367100">
<ele>5.600000</ele>
<time>2022-03-15T09:19:22.315Z</time>
</trkpt>
<trkpt lat="31.1910600" lon="35.3367300">
<ele>5.960000</ele>
<time>2022-03-15T09:19:22.315Z</time>
</trkpt>
<trkpt lat="31.1910600" lon="35.3367300">
<ele>5.960000</ele>
<time>2022-03-15T09:19:22.316Z</time>
</trkpt>
<trkpt lat="31.1909000" lon="35.3368500">
<ele>8.700000</ele>
<time>2022-03-15T09:19:22.316Z</time>
</trkpt>
<trkpt lat="31.1907600" lon="35.3368800">
<ele>9.889999</ele>
<time>2022-03-15T09:19:22.316Z</time>
</trkpt>
<trkpt lat="31.1904300" lon="35.3368500">
<ele>11.400000</ele>
<time>2022-03-15T09:19:22.316Z</time>
</trkpt>
<trkpt lat="31.1898100" lon="35.3369700">
<ele>13.160000</ele>
<time>2022-03-15T09:19:22.316Z</time>
</trkpt>
<trkpt lat="31.1896500" lon="35.3371800">
<ele>11.560000</ele>
<time>2022-03-15T09:19:22.316Z</time>
</trkpt>
<trkpt lat="31.1894000" lon="35.3372100">
<ele>12.080000</ele>
<time>2022-03-15T09:19:22.316Z</time>
</trkpt>
<trkpt lat="31.1892800" lon="35.3370800">
<ele>12.720000</ele>
<time>2022-03-15T09:19:22.316Z</time>
</trkpt>
<trkpt lat="31.1890400" lon="35.3368400">
<ele>14.700001</ele>
<time>2022-03-15T09:19:22.316Z</time>
</trkpt>
<trkpt lat="31.1890300" lon="35.3368700">
<ele>14.520000</ele>
<time>2022-03-15T09:19:22.316Z</time>
</trkpt>
<trkpt lat="31.1890300" lon="35.3368700">
<ele>14.520000</ele>
<time>2022-03-15T09:19:22.316Z</time>
</trkpt>
<trkpt lat="31.1889300" lon="35.3371100">
<ele>12.580000</ele>
<time>2022-03-15T09:19:22.316Z</time>
</trkpt>
<trkpt lat="31.1889400" lon="35.3372800">
<ele>11.690001</ele>
<time>2022-03-15T09:19:22.316Z</time>
</trkpt>
<trkpt lat="31.1886700" lon="35.3373100">
<ele>12.490001</ele>
<time>2022-03-15T09:19:22.316Z</time>
</trkpt>
<trkpt lat="31.1881600" lon="35.3375700">
<ele>15.530000</ele>
<time>2022-03-15T09:19:22.316Z</time>
</trkpt>
<trkpt lat="31.1881300" lon="35.3376100">
<ele>15.629999</ele>
<time>2022-03-15T09:19:22.316Z</time>
</trkpt>
<trkpt lat="31.1880400" lon="35.3375900">
<ele>16.110001</ele>
<time>2022-03-15T09:19:22.317Z</time>
</trkpt>
<trkpt lat="31.1878800" lon="35.3376200">
<ele>17.260000</ele>
<time>2022-03-15T09:19:22.317Z</time>
</trkpt>
<trkpt lat="31.1878800" lon="35.3376200">
<ele>17.260000</ele>
<time>2022-03-15T09:19:22.317Z</time>
</trkpt>
<trkpt lat="31.1876300" lon="35.3372900">
<ele>20.270000</ele>
<time>2022-03-15T09:19:22.317Z</time>
</trkpt>
<trkpt lat="31.1875500" lon="35.3370000">
<ele>20.860001</ele>
<time>2022-03-15T09:19:22.317Z</time>
</trkpt>
<trkpt lat="31.1873900" lon="35.3368400">
<ele>19.580000</ele>
<time>2022-03-15T09:19:22.317Z</time>
</trkpt>
<trkpt lat="31.1870000" lon="35.3366600">
<ele>19.639999</ele>
<time>2022-03-15T09:19:22.317Z</time>
</trkpt>
<trkpt lat="31.1868800" lon="35.3365600">
<ele>20.770000</ele>
<time>2022-03-15T09:19:22.317Z</time>
</trkpt>
<trkpt lat="31.1868800" lon="35.3365600">
<ele>20.770000</ele>
<time>2022-03-15T09:19:22.317Z</time>
</trkpt>
<trkpt lat="31.1867900" lon="35.3364900">
<ele>21.269999</ele>
<time>2022-03-15T09:19:22.317Z</time>
</trkpt>
<trkpt lat="31.1865400" lon="35.3362800">
<ele>22.880001</ele>
<time>2022-03-15T09:19:22.317Z</time>
</trkpt>
<trkpt lat="31.1864200" lon="35.3361300">
<ele>23.099998</ele>
<time>2022-03-15T09:19:22.317Z</time>
</trkpt>
<trkpt lat="31.1862300" lon="35.3358200">
<ele>21.920000</ele>
<time>2022-03-15T09:19:22.317Z</time>
</trkpt>
<trkpt lat="31.1860400" lon="35.3355800">
<ele>20.389999</ele>
<time>2022-03-15T09:19:22.317Z</time>
</trkpt>
<trkpt lat="31.1857300" lon="35.3351100">
<ele>18.870001</ele>
<time>2022-03-15T09:19:22.317Z</time>
</trkpt>
<trkpt lat="31.1854800" lon="35.3348800">
<ele>23.850000</ele>
<time>2022-03-15T09:19:22.317Z</time>
</trkpt>
<trkpt lat="31.1851500" lon="35.3344600">
<ele>28.480001</ele>
<time>2022-03-15T09:19:22.317Z</time>
</trkpt>
<trkpt lat="31.1847400" lon="35.3343100">
<ele>31.350000</ele>
<time>2022-03-15T09:19:22.318Z</time>
</trkpt>
<trkpt lat="31.1845800" lon="35.3342800">
<ele>31.380001</ele>
<time>2022-03-15T09:19:22.318Z</time>
</trkpt>
<trkpt lat="31.1843400" lon="35.3342300">
<ele>30.210001</ele>
<time>2022-03-15T09:19:22.318Z</time>
</trkpt>
<trkpt lat="31.1842100" lon="35.3340700">
<ele>29.689999</ele>
<time>2022-03-15T09:19:22.318Z</time>
</trkpt>
<trkpt lat="31.1841600" lon="35.3339500">
<ele>31.129999</ele>
<time>2022-03-15T09:19:22.318Z</time>
</trkpt>
<trkpt lat="31.1840800" lon="35.3338800">
<ele>32.040001</ele>
<time>2022-03-15T09:19:22.318Z</time>
</trkpt>
<trkpt lat="31.1839300" lon="35.3339900">
<ele>31.160000</ele>
<time>2022-03-15T09:19:22.318Z</time>
</trkpt>
<trkpt lat="31.1837400" lon="35.3340300">
<ele>31.789999</ele>
<time>2022-03-15T09:19:22.318Z</time>
</trkpt>
<trkpt lat="31.1836200" lon="35.3339100">
<ele>32.889999</ele>
<time>2022-03-15T09:19:22.318Z</time>
</trkpt>
<trkpt lat="31.1837100" lon="35.3338100">
<ele>33.780003</ele>
<time>2022-03-15T09:19:22.318Z</time>
</trkpt>
<trkpt lat="31.1837200" lon="35.3338200">
<ele>33.599998</ele>
<time>2022-03-15T09:19:22.318Z</time>
</trkpt>
<trkpt lat="31.1837200" lon="35.3338200">
<ele>33.599998</ele>
<time>2022-03-15T09:19:22.318Z</time>
</trkpt>
<trkpt lat="31.1838900" lon="35.3338500">
<ele>32.560001</ele>
<time>2022-03-15T09:19:22.318Z</time>
</trkpt>
<trkpt lat="31.1837300" lon="35.3336600">
<ele>35.869999</ele>
<time>2022-03-15T09:19:22.318Z</time>
</trkpt>
<trkpt lat="31.1836100" lon="35.3334900">
<ele>38.740002</ele>
<time>2022-03-15T09:19:22.318Z</time>
</trkpt>
<trkpt lat="31.1832100" lon="35.3332900">
<ele>38.709999</ele>
<time>2022-03-15T09:19:22.319Z</time>
</trkpt>
<trkpt lat="31.1831700" lon="35.3332200">
<ele>38.820000</ele>
<time>2022-03-15T09:19:22.319Z</time>
</trkpt>
<trkpt lat="31.1828600" lon="35.3329600">
<ele>41.599998</ele>
<time>2022-03-15T09:19:22.319Z</time>
</trkpt>
<trkpt lat="31.1825700" lon="35.3329600">
<ele>40.930000</ele>
<time>2022-03-15T09:19:22.319Z</time>
</trkpt>
<trkpt lat="31.1823600" lon="35.3326800">
<ele>41.700001</ele>
<time>2022-03-15T09:19:22.319Z</time>
</trkpt>
<trkpt lat="31.1823300" lon="35.3325500">
<ele>42.640003</ele>
<time>2022-03-15T09:19:22.319Z</time>
</trkpt>
<trkpt lat="31.1823300" lon="35.3325500">
<ele>42.640003</ele>
<time>2022-03-15T09:19:22.319Z</time>
</trkpt>
<trkpt lat="31.1823300" lon="35.3325100">
<ele>42.929996</ele>
<time>2022-03-15T09:19:22.319Z</time>
</trkpt>
<trkpt lat="31.1825000" lon="35.3324800">
<ele>43.139999</ele>
<time>2022-03-15T09:19:22.319Z</time>
</trkpt>
<trkpt lat="31.1827000" lon="35.3325100">
<ele>47.860001</ele>
<time>2022-03-15T09:19:22.319Z</time>
</trkpt>
<trkpt lat="31.1830100" lon="35.3324700">
<ele>45.709999</ele>
<time>2022-03-15T09:19:22.319Z</time>
</trkpt>
<trkpt lat="31.1830300" lon="35.3321600">
<ele>52.509998</ele>
<time>2022-03-15T09:19:22.319Z</time>
</trkpt>
<trkpt lat="31.1828500" lon="35.3319600">
<ele>54.049999</ele>
<time>2022-03-15T09:19:22.319Z</time>
</trkpt>
<trkpt lat="31.1826000" lon="35.3317600">
<ele>56.250000</ele>
<time>2022-03-15T09:19:22.319Z</time>
</trkpt>
<trkpt lat="31.1822000" lon="35.3316800">
<ele>53.750000</ele>
<time>2022-03-15T09:19:22.319Z</time>
</trkpt>
<trkpt lat="31.1817500" lon="35.3317800">
<ele>53.250000</ele>
<time>2022-03-15T09:19:22.319Z</time>
</trkpt>
<trkpt lat="31.1813700" lon="35.3319500">
<ele>55.860001</ele>
<time>2022-03-15T09:19:22.319Z</time>
</trkpt>
<trkpt lat="31.1811000" lon="35.3318900">
<ele>57.029999</ele>
<time>2022-03-15T09:19:22.320Z</time>
</trkpt>
<trkpt lat="31.1811000" lon="35.3318900">
<ele>57.029999</ele>
<time>2022-03-15T09:19:22.320Z</time>
</trkpt>
<trkpt lat="31.1809800" lon="35.3318700">
<ele>55.970001</ele>
<time>2022-03-15T09:19:22.320Z</time>
</trkpt>
<trkpt lat="31.1805600" lon="35.3321300">
<ele>45.029999</ele>
<time>2022-03-15T09:19:22.320Z</time>
</trkpt>
<trkpt lat="31.1798100" lon="35.3325300">
<ele>52.250000</ele>
<time>2022-03-15T09:19:22.320Z</time>
</trkpt>
<trkpt lat="31.1793700" lon="35.3327000">
<ele>50.399998</ele>
<time>2022-03-15T09:19:22.320Z</time>
</trkpt>
<trkpt lat="31.1791500" lon="35.3327300">
<ele>49.919998</ele>
<time>2022-03-15T09:19:22.320Z</time>
</trkpt>
<trkpt lat="31.1790700" lon="35.3325700">
<ele>53.090000</ele>
<time>2022-03-15T09:19:22.320Z</time>
</trkpt>
<trkpt lat="31.1789600" lon="35.3322300">
<ele>59.360001</ele>
<time>2022-03-15T09:19:22.320Z</time>
</trkpt>
<trkpt lat="31.1788600" lon="35.3323200">
<ele>58.309998</ele>
<time>2022-03-15T09:19:22.320Z</time>
</trkpt>
<trkpt lat="31.1788600" lon="35.3323200">
<ele>58.309998</ele>
<time>2022-03-15T09:19:22.320Z</time>
</trkpt>
<trkpt lat="31.1788600" lon="35.3323200">
<ele>58.309998</ele>
<time>2022-03-15T09:19:22.321Z</time>
</trkpt>
<trkpt lat="31.1788600" lon="35.3323200">
<ele>58.309998</ele>
<time>2022-03-15T09:19:22.321Z</time>
</trkpt>
<trkpt lat="31.1790100" lon="35.3328000">
<ele>49.310001</ele>
<time>2022-03-15T09:19:22.321Z</time>
</trkpt>
<trkpt lat="31.1788700" lon="35.3329500">
<ele>47.700001</ele>
<time>2022-03-15T09:19:22.321Z</time>
</trkpt>
<trkpt lat="31.1786900" lon="35.3330000">
<ele>48.799999</ele>
<time>2022-03-15T09:19:22.321Z</time>
</trkpt>
<trkpt lat="31.1785900" lon="35.3329200">
<ele>50.430000</ele>
<time>2022-03-15T09:19:22.321Z</time>
</trkpt>
<trkpt lat="31.1785200" lon="35.3328100">
<ele>51.609997</ele>
<time>2022-03-15T09:19:22.321Z</time>
</trkpt>
<trkpt lat="31.1784700" lon="35.3328400">
<ele>51.209999</ele>
<time>2022-03-15T09:19:22.321Z</time>
</trkpt>
<trkpt lat="31.1784900" lon="35.3329600">
<ele>49.750000</ele>
<time>2022-03-15T09:19:22.321Z</time>
</trkpt>
<trkpt lat="31.1783600" lon="35.3330500">
<ele>48.169998</ele>
<time>2022-03-15T09:19:22.321Z</time>
</trkpt>
<trkpt lat="31.1780300" lon="35.3331900">
<ele>45.660000</ele>
<time>2022-03-15T09:19:22.321Z</time>
</trkpt>
<trkpt lat="31.1777400" lon="35.3332300">
<ele>45.880001</ele>
<time>2022-03-15T09:19:22.321Z</time>
</trkpt>
<trkpt lat="31.1776300" lon="35.3332000">
<ele>48.520000</ele>
<time>2022-03-15T09:19:22.321Z</time>
</trkpt>
<trkpt lat="31.1775700" lon="35.3333500">
<ele>45.620003</ele>
<time>2022-03-15T09:19:22.321Z</time>
</trkpt>
<trkpt lat="31.1774900" lon="35.3334900">
<ele>44.200001</ele>
<time>2022-03-15T09:19:22.321Z</time>
</trkpt>
<trkpt lat="31.1771700" lon="35.3334700">
<ele>45.219997</ele>
<time>2022-03-15T09:19:22.321Z</time>
</trkpt>
<trkpt lat="31.1768800" lon="35.3335500">
<ele>44.320004</ele>
<time>2022-03-15T09:19:22.321Z</time>
</trkpt>
<trkpt lat="31.1767300" lon="35.3334300">
<ele>46.910004</ele>
<time>2022-03-15T09:19:22.321Z</time>
</trkpt>
<trkpt lat="31.1765400" lon="35.3335000">
<ele>45.490002</ele>
<time>2022-03-15T09:19:22.321Z</time>
</trkpt>
<trkpt lat="31.1764300" lon="35.3336000">
<ele>44.020000</ele>
<time>2022-03-15T09:19:22.321Z</time>
</trkpt>
<trkpt lat="31.1764100" lon="35.3336800">
<ele>42.190002</ele>
<time>2022-03-15T09:19:22.321Z</time>
</trkpt>
<trkpt lat="31.1764000" lon="35.3336800">
<ele>42.220001</ele>
<time>2022-03-15T09:19:22.321Z</time>
</trkpt>
<trkpt lat="31.1764000" lon="35.3336900">
<ele>41.970001</ele>
<time>2022-03-15T09:19:22.321Z</time>
</trkpt>
<trkpt lat="31.1758500" lon="35.3339100">
<ele>36.750000</ele>
<time>2022-03-15T09:19:22.321Z</time>
</trkpt>
<trkpt lat="31.1754700" lon="35.3340500">
<ele>34.489998</ele>
<time>2022-03-15T09:19:22.321Z</time>
</trkpt>
<trkpt lat="31.1753400" lon="35.3341100">
<ele>34.689999</ele>
<time>2022-03-15T09:19:22.321Z</time>
</trkpt>
<trkpt lat="31.1752800" lon="35.3342500">
<ele>34.680000</ele>
<time>2022-03-15T09:19:22.321Z</time>
</trkpt>
<trkpt lat="31.1752200" lon="35.3342900">
<ele>35.200001</ele>
<time>2022-03-15T09:19:22.321Z</time>
</trkpt>
<trkpt lat="31.1751600" lon="35.3342400">
<ele>36.209999</ele>
<time>2022-03-15T09:19:22.322Z</time>
</trkpt>
<trkpt lat="31.1751700" lon="35.3341000">
<ele>36.370003</ele>
<time>2022-03-15T09:19:22.322Z</time>
</trkpt>
<trkpt lat="31.1749200" lon="35.3337900">
<ele>38.270000</ele>
<time>2022-03-15T09:19:22.322Z</time>
</trkpt>
<trkpt lat="31.1748500" lon="35.3336500">
<ele>38.950001</ele>
<time>2022-03-15T09:19:22.322Z</time>
</trkpt>
<trkpt lat="31.1746100" lon="35.3335700">
<ele>38.660000</ele>
<time>2022-03-15T09:19:22.322Z</time>
</trkpt>
<trkpt lat="31.1743800" lon="35.3336400">
<ele>37.070000</ele>
<time>2022-03-15T09:19:22.322Z</time>
</trkpt>
<trkpt lat="31.1742200" lon="35.3334400">
<ele>35.380001</ele>
<time>2022-03-15T09:19:22.322Z</time>
</trkpt>
<trkpt lat="31.1741400" lon="35.3334300">
<ele>34.520000</ele>
<time>2022-03-15T09:19:22.322Z</time>
</trkpt>
<trkpt lat="31.1741100" lon="35.3334200">
<ele>34.419998</ele>
<time>2022-03-15T09:19:22.322Z</time>
</trkpt>
<trkpt lat="31.1741100" lon="35.3334200">
<ele>34.419998</ele>
<time>2022-03-15T09:19:22.322Z</time>
</trkpt>
<trkpt lat="31.1738800" lon="35.3333600">
<ele>33.840000</ele>
<time>2022-03-15T09:19:22.322Z</time>
</trkpt>
<trkpt lat="31.1737300" lon="35.3331700">
<ele>36.420002</ele>
<time>2022-03-15T09:19:22.323Z</time>
</trkpt>
<trkpt lat="31.1736600" lon="35.3330600">
<ele>38.410000</ele>
<time>2022-03-15T09:19:22.323Z</time>
</trkpt>
<trkpt lat="31.1736300" lon="35.3328200">
<ele>40.489998</ele>
<time>2022-03-15T09:19:22.323Z</time>
</trkpt>
<trkpt lat="31.1735600" lon="35.3326100">
<ele>39.980003</ele>
<time>2022-03-15T09:19:22.323Z</time>
</trkpt>
<trkpt lat="31.1734700" lon="35.3326400">
<ele>40.520000</ele>
<time>2022-03-15T09:19:22.323Z</time>
</trkpt>
<trkpt lat="31.1734000" lon="35.3328700">
<ele>40.840000</ele>
<time>2022-03-15T09:19:22.323Z</time>
</trkpt>
<trkpt lat="31.1733100" lon="35.3329500">
<ele>40.139999</ele>
<time>2022-03-15T09:19:22.323Z</time>
</trkpt>
<trkpt lat="31.1731600" lon="35.3329000">
<ele>40.680000</ele>
<time>2022-03-15T09:19:22.323Z</time>
</trkpt>
<trkpt lat="31.1728200" lon="35.3326600">
<ele>43.989998</ele>
<time>2022-03-15T09:19:22.323Z</time>
</trkpt>
<trkpt lat="31.1726100" lon="35.3325000">
<ele>48.020000</ele>
<time>2022-03-15T09:19:22.323Z</time>
</trkpt>
<trkpt lat="31.1725200" lon="35.3324600">
<ele>49.369999</ele>
<time>2022-03-15T09:19:22.323Z</time>
</trkpt>
<trkpt lat="31.1724500" lon="35.3325200">
<ele>50.570004</ele>
<time>2022-03-15T09:19:22.323Z</time>
</trkpt>
<trkpt lat="31.1724900" lon="35.3326600">
<ele>50.149998</ele>
<time>2022-03-15T09:19:22.323Z</time>
</trkpt>
<trkpt lat="31.1726300" lon="35.3332000">
<ele>44.200001</ele>
<time>2022-03-15T09:19:22.323Z</time>
</trkpt>
<trkpt lat="31.1727500" lon="35.3336800">
<ele>43.500000</ele>
<time>2022-03-15T09:19:22.323Z</time>
</trkpt>
<trkpt lat="31.1726300" lon="35.3341700">
<ele>41.350002</ele>
<time>2022-03-15T09:19:22.323Z</time>
</trkpt>
<trkpt lat="31.1726300" lon="35.3341700">
<ele>41.350002</ele>
<time>2022-03-15T09:19:22.323Z</time>
</trkpt>
<trkpt lat="31.1725500" lon="35.3344900">
<ele>41.450001</ele>
<time>2022-03-15T09:19:22.323Z</time>
</trkpt>
<trkpt lat="31.1724900" lon="35.3346900">
<ele>40.570000</ele>
<time>2022-03-15T09:19:22.323Z</time>
</trkpt>
<trkpt lat="31.1724300" lon="35.3351000">
<ele>37.209999</ele>
<time>2022-03-15T09:19:22.323Z</time>
</trkpt>
<trkpt lat="31.1722900" lon="35.3350700">
<ele>38.630001</ele>
<time>2022-03-15T09:19:22.323Z</time>
</trkpt>
<trkpt lat="31.1721400" lon="35.3349000">
<ele>43.049999</ele>
<time>2022-03-15T09:19:22.324Z</time>
</trkpt>
<trkpt lat="31.1721000" lon="35.3352100">
<ele>40.150002</ele>
<time>2022-03-15T09:19:22.324Z</time>
</trkpt>
<trkpt lat="31.1718300" lon="35.3347400">
<ele>50.960003</ele>
<time>2022-03-15T09:19:22.324Z</time>
</trkpt>
<trkpt lat="31.1715200" lon="35.3340600">
<ele>54.150002</ele>
<time>2022-03-15T09:19:22.324Z</time>
</trkpt>
<trkpt lat="31.1715400" lon="35.3338300">
<ele>55.340000</ele>
<time>2022-03-15T09:19:22.324Z</time>
</trkpt>
<trkpt lat="31.1712900" lon="35.3334500">
<ele>58.880001</ele>
<time>2022-03-15T09:19:22.324Z</time>
</trkpt>
<trkpt lat="31.1707400" lon="35.3333400">
<ele>61.720001</ele>
<time>2022-03-15T09:19:22.324Z</time>
</trkpt>
<trkpt lat="31.1705400" lon="35.3330000">
<ele>59.699997</ele>
<time>2022-03-15T09:19:22.324Z</time>
</trkpt>
<trkpt lat="31.1703300" lon="35.3328500">
<ele>59.539997</ele>
<time>2022-03-15T09:19:22.324Z</time>
</trkpt>
<trkpt lat="31.1703300" lon="35.3328500">
<ele>59.539997</ele>
<time>2022-03-15T09:19:22.324Z</time>
</trkpt>
<trkpt lat="31.1702400" lon="35.3327900">
<ele>59.389999</ele>
<time>2022-03-15T09:19:22.324Z</time>
</trkpt>
<trkpt lat="31.1701600" lon="35.3323700">
<ele>56.670002</ele>
<time>2022-03-15T09:19:22.324Z</time>
</trkpt>
<trkpt lat="31.1699400" lon="35.3322200">
<ele>53.990002</ele>
<time>2022-03-15T09:19:22.324Z</time>
</trkpt>
<trkpt lat="31.1694200" lon="35.3319900">
<ele>53.310001</ele>
<time>2022-03-15T09:19:22.324Z</time>
</trkpt>
<trkpt lat="31.1691000" lon="35.3318400">
<ele>52.899998</ele>
<time>2022-03-15T09:19:22.324Z</time>
</trkpt>
<trkpt lat="31.1690200" lon="35.3318400">
<ele>52.320004</ele>
<time>2022-03-15T09:19:22.324Z</time>
</trkpt>
<trkpt lat="31.1689000" lon="35.3318700">
<ele>51.350002</ele>
<time>2022-03-15T09:19:22.324Z</time>
</trkpt>
<trkpt lat="31.1684800" lon="35.3320600">
<ele>48.689999</ele>
<time>2022-03-15T09:19:22.324Z</time>
</trkpt>
<trkpt lat="31.1682400" lon="35.3321500">
<ele>49.000000</ele>
<time>2022-03-15T09:19:22.324Z</time>
</trkpt>
<trkpt lat="31.1680600" lon="35.3322000">
<ele>49.000000</ele>
<time>2022-03-15T09:19:22.324Z</time>
</trkpt>
<trkpt lat="31.1678700" lon="35.3321900">
<ele>48.099998</ele>
<time>2022-03-15T09:19:22.324Z</time>
</trkpt>
<trkpt lat="31.1677200" lon="35.3322100">
<ele>47.279999</ele>
<time>2022-03-15T09:19:22.324Z</time>
</trkpt>
<trkpt lat="31.1677200" lon="35.3322100">
<ele>47.279999</ele>
<time>2022-03-15T09:19:22.325Z</time>
</trkpt>
<trkpt lat="31.1675900" lon="35.3322300">
<ele>45.990002</ele>
<time>2022-03-15T09:19:22.325Z</time>
</trkpt>
<trkpt lat="31.1674800" lon="35.3322700">
<ele>45.110001</ele>
<time>2022-03-15T09:19:22.325Z</time>
</trkpt>
<trkpt lat="31.1672800" lon="35.3323900">
<ele>45.150002</ele>
<time>2022-03-15T09:19:22.325Z</time>
</trkpt>
<trkpt lat="31.1668600" lon="35.3325200">
<ele>40.020000</ele>
<time>2022-03-15T09:19:22.325Z</time>
</trkpt>
<trkpt lat="31.1665000" lon="35.3327000">
<ele>36.320000</ele>
<time>2022-03-15T09:19:22.325Z</time>
</trkpt>
<trkpt lat="31.1663800" lon="35.3327800">
<ele>34.250000</ele>
<time>2022-03-15T09:19:22.325Z</time>
</trkpt>
<trkpt lat="31.1660800" lon="35.3330500">
<ele>42.770000</ele>
<time>2022-03-15T09:19:22.325Z</time>
</trkpt>
<trkpt lat="31.1660100" lon="35.3330800">
<ele>44.360001</ele>
<time>2022-03-15T09:19:22.325Z</time>
</trkpt>
<trkpt lat="31.1657600" lon="35.3330900">
<ele>48.499996</ele>
<time>2022-03-15T09:19:22.325Z</time>
</trkpt>
<trkpt lat="31.1656600" lon="35.3331300">
<ele>47.930000</ele>
<time>2022-03-15T09:19:22.325Z</time>
</trkpt>
<trkpt lat="31.1653500" lon="35.3333500">
<ele>44.139999</ele>
<time>2022-03-15T09:19:22.325Z</time>
</trkpt>
<trkpt lat="31.1653500" lon="35.3333500">
<ele>44.139999</ele>
<time>2022-03-15T09:19:22.325Z</time>
</trkpt>
<trkpt lat="31.1652800" lon="35.3334000">
<ele>43.529999</ele>
<time>2022-03-15T09:19:22.325Z</time>
</trkpt>
<trkpt lat="31.1651700" lon="35.3336300">
<ele>41.099998</ele>
<time>2022-03-15T09:19:22.325Z</time>
</trkpt>
<trkpt lat="31.1652800" lon="35.3337800">
<ele>41.399998</ele>
<time>2022-03-15T09:19:22.325Z</time>
</trkpt>
<trkpt lat="31.1650600" lon="35.3340500">
<ele>35.209999</ele>
<time>2022-03-15T09:19:22.325Z</time>
</trkpt>
<trkpt lat="31.1647500" lon="35.3341100">
<ele>25.309999</ele>
<time>2022-03-15T09:19:22.325Z</time>
</trkpt>
<trkpt lat="31.1642200" lon="35.3347500">
<ele>9.840000</ele>
<time>2022-03-15T09:19:22.325Z</time>
</trkpt>
<trkpt lat="31.1642100" lon="35.3342000">
<ele>7.850000</ele>
<time>2022-03-15T09:19:22.325Z</time>
</trkpt>
<trkpt lat="31.1641500" lon="35.3339600">
<ele>12.820000</ele>
<time>2022-03-15T09:19:22.326Z</time>
</trkpt>
<trkpt lat="31.1639900" lon="35.3339300">
<ele>12.450001</ele>
<time>2022-03-15T09:19:22.326Z</time>
</trkpt>
<trkpt lat="31.1638000" lon="35.3340700">
<ele>8.110000</ele>
<time>2022-03-15T09:19:22.326Z</time>
</trkpt>
<trkpt lat="31.1638000" lon="35.3340700">
<ele>8.110000</ele>
<time>2022-03-15T09:19:22.326Z</time>
</trkpt>
<trkpt lat="31.1637100" lon="35.3341300">
<ele>6.730000</ele>
<time>2022-03-15T09:19:22.326Z</time>
</trkpt>
<trkpt lat="31.1635300" lon="35.3342000">
<ele>7.580000</ele>
<time>2022-03-15T09:19:22.326Z</time>
</trkpt>
<trkpt lat="31.1633600" lon="35.3342900">
<ele>10.960000</ele>
<time>2022-03-15T09:19:22.326Z</time>
</trkpt>
<trkpt lat="31.1630200" lon="35.3343500">
<ele>14.050000</ele>
<time>2022-03-15T09:19:22.326Z</time>
</trkpt>
<trkpt lat="31.1626800" lon="35.3344600">
<ele>12.999999</ele>
<time>2022-03-15T09:19:22.326Z</time>
</trkpt>
<trkpt lat="31.1623700" lon="35.3344900">
<ele>10.720000</ele>
<time>2022-03-15T09:19:22.326Z</time>
</trkpt>
<trkpt lat="31.1622500" lon="35.3345600">
<ele>8.190001</ele>
<time>2022-03-15T09:19:22.326Z</time>
</trkpt>
<trkpt lat="31.1621500" lon="35.3346100">
<ele>5.600000</ele>
<time>2022-03-15T09:19:22.326Z</time>
</trkpt>
<trkpt lat="31.1622100" lon="35.3348900">
<ele>6.350000</ele>
<time>2022-03-15T09:19:22.326Z</time>
</trkpt>
<trkpt lat="31.1620600" lon="35.3351000">
<ele>4.650000</ele>
<time>2022-03-15T09:19:22.326Z</time>
</trkpt>
<trkpt lat="31.1619500" lon="35.3351800">
<ele>3.380000</ele>
<time>2022-03-15T09:19:22.326Z</time>
</trkpt>
<trkpt lat="31.1617700" lon="35.3353300">
<ele>5.030000</ele>
<time>2022-03-15T09:19:22.326Z</time>
</trkpt>
<trkpt lat="31.1616300" lon="35.3356600">
<ele>6.110000</ele>
<time>2022-03-15T09:19:22.326Z</time>
</trkpt>
<trkpt lat="31.1613200" lon="35.3357500">
<ele>4.550000</ele>
<time>2022-03-15T09:19:22.326Z</time>
</trkpt>
<trkpt lat="31.1613600" lon="35.3354900">
<ele>3.670000</ele>
<time>2022-03-15T09:19:22.326Z</time>
</trkpt>
<trkpt lat="31.1613300" lon="35.3350500">
<ele>0.060000</ele>
<time>2022-03-15T09:19:22.326Z</time>
</trkpt>
<trkpt lat="31.1610700" lon="35.3352700">
<ele>-3.700000</ele>
<time>2022-03-15T09:19:22.326Z</time>
</trkpt>
<trkpt lat="31.1610700" lon="35.3352700">
<ele>-3.700000</ele>
<time>2022-03-15T09:19:22.326Z</time>
</trkpt>
<trkpt lat="31.1608500" lon="35.3354500">
<ele>-3.080000</ele>
<time>2022-03-15T09:19:22.326Z</time>
</trkpt>
<trkpt lat="31.1606900" lon="35.3353500">
<ele>-7.770000</ele>
<time>2022-03-15T09:19:22.326Z</time>
</trkpt>
<trkpt lat="31.1606700" lon="35.3356500">
<ele>-3.310000</ele>
<time>2022-03-15T09:19:22.327Z</time>
</trkpt>
<trkpt lat="31.1605600" lon="35.3357800">
<ele>-3.680000</ele>
<time>2022-03-15T09:19:22.327Z</time>
</trkpt>
<trkpt lat="31.1604500" lon="35.3355800">
<ele>-8.270000</ele>
<time>2022-03-15T09:19:22.327Z</time>
</trkpt>
<trkpt lat="31.1601700" lon="35.3359100">
<ele>-11.440001</ele>
<time>2022-03-15T09:19:22.327Z</time>
</trkpt>
<trkpt lat="31.1601300" lon="35.3363400">
<ele>-10.000000</ele>
<time>2022-03-15T09:19:22.327Z</time>
</trkpt>
<trkpt lat="31.1600700" lon="35.3364000">
<ele>-10.760000</ele>
<time>2022-03-15T09:19:22.327Z</time>
</trkpt>
<trkpt lat="31.1599600" lon="35.3364600">
<ele>-12.320001</ele>
<time>2022-03-15T09:19:22.327Z</time>
</trkpt>
<trkpt lat="31.1590500" lon="35.3359500">
<ele>-26.510000</ele>
<time>2022-03-15T09:19:22.327Z</time>
</trkpt>
<trkpt lat="31.1587100" lon="35.3363700">
<ele>-25.580000</ele>
<time>2022-03-15T09:19:22.327Z</time>
</trkpt>
<trkpt lat="31.1581000" lon="35.3364000">
<ele>-30.350000</ele>
<time>2022-03-15T09:19:22.327Z</time>
</trkpt>
<trkpt lat="31.1579500" lon="35.3365400">
<ele>-28.370001</ele>
<time>2022-03-15T09:19:22.327Z</time>
</trkpt>
<trkpt lat="31.1579500" lon="35.3365400">
<ele>-28.370001</ele>
<time>2022-03-15T09:19:22.327Z</time>
</trkpt>
<trkpt lat="31.1578800" lon="35.3366000">
<ele>-27.930000</ele>
<time>2022-03-15T09:19:22.327Z</time>
</trkpt>
<trkpt lat="31.1576200" lon="35.3367800">
<ele>-31.300001</ele>
<time>2022-03-15T09:19:22.328Z</time>
</trkpt>
<trkpt lat="31.1575900" lon="35.3368900">
<ele>-29.630001</ele>
<time>2022-03-15T09:19:22.328Z</time>
</trkpt>
<trkpt lat="31.1576500" lon="35.3369300">
<ele>-27.580000</ele>
<time>2022-03-15T09:19:22.328Z</time>
</trkpt>
<trkpt lat="31.1583100" lon="35.3368400">
<ele>-19.340000</ele>
<time>2022-03-15T09:19:22.328Z</time>
</trkpt>
<trkpt lat="31.1587500" lon="35.3366300">
<ele>-21.400002</ele>
<time>2022-03-15T09:19:22.328Z</time>
</trkpt>
<trkpt lat="31.1589100" lon="35.3369700">
<ele>-19.889999</ele>
<time>2022-03-15T09:19:22.328Z</time>
</trkpt>
<trkpt lat="31.1589100" lon="35.3370600">
<ele>-19.519999</ele>
<time>2022-03-15T09:19:22.328Z</time>
</trkpt>
<trkpt lat="31.1589100" lon="35.3370600">
<ele>-19.519999</ele>
<time>2022-03-15T09:19:22.328Z</time>
</trkpt>
<trkpt lat="31.1589100" lon="35.3371900">
<ele>-18.980000</ele>
<time>2022-03-15T09:19:22.328Z</time>
</trkpt>
<trkpt lat="31.1590200" lon="35.3373000">
<ele>-17.629999</ele>
<time>2022-03-15T09:19:22.328Z</time>
</trkpt>
<trkpt lat="31.1589400" lon="35.3375100">
<ele>-16.850000</ele>
<time>2022-03-15T09:19:22.328Z</time>
</trkpt>
<trkpt lat="31.1588200" lon="35.3374400">
<ele>-18.600000</ele>
<time>2022-03-15T09:19:22.328Z</time>
</trkpt>
<trkpt lat="31.1586700" lon="35.3370800">
<ele>-19.920000</ele>
<time>2022-03-15T09:19:22.328Z</time>
</trkpt>
<trkpt lat="31.1585800" lon="35.3372800">
<ele>-20.080000</ele>
<time>2022-03-15T09:19:22.328Z</time>
</trkpt>
<trkpt lat="31.1586800" lon="35.3374400">
<ele>-20.969999</ele>
<time>2022-03-15T09:19:22.328Z</time>
</trkpt>
<trkpt lat="31.1586100" lon="35.3376200">
<ele>-24.309999</ele>
<time>2022-03-15T09:19:22.328Z</time>
</trkpt>
<trkpt lat="31.1579000" lon="35.3373000">
<ele>-28.030001</ele>
<time>2022-03-15T09:19:22.328Z</time>
</trkpt>
<trkpt lat="31.1577800" lon="35.3373100">
<ele>-27.950001</ele>
<time>2022-03-15T09:19:22.328Z</time>
</trkpt>
<trkpt lat="31.1577400" lon="35.3373200">
<ele>-28.190001</ele>
<time>2022-03-15T09:19:22.328Z</time>
</trkpt>
<trkpt lat="31.1576200" lon="35.3374600">
<ele>-30.139999</ele>
<time>2022-03-15T09:19:22.328Z</time>
</trkpt>
<trkpt lat="31.1574600" lon="35.3374600">
<ele>-31.120001</ele>
<time>2022-03-15T09:19:22.328Z</time>
</trkpt>
<trkpt lat="31.1573600" lon="35.3375500">
<ele>-33.469997</ele>
<time>2022-03-15T09:19:22.328Z</time>
</trkpt>
<trkpt lat="31.1574000" lon="35.3377000">
<ele>-34.139999</ele>
<time>2022-03-15T09:19:22.328Z</time>
</trkpt>
<trkpt lat="31.1574200" lon="35.3377100">
<ele>-33.880001</ele>
<time>2022-03-15T09:19:22.328Z</time>
</trkpt>
<trkpt lat="31.1574200" lon="35.3377100">
<ele>-33.880001</ele>
<time>2022-03-15T09:19:22.329Z</time>
</trkpt>
<trkpt lat="31.1575400" lon="35.3377300">
<ele>-32.389999</ele>
<time>2022-03-15T09:19:22.329Z</time>
</trkpt>
<trkpt lat="31.1576800" lon="35.3376600">
<ele>-31.129999</ele>
<time>2022-03-15T09:19:22.329Z</time>
</trkpt>
<trkpt lat="31.1578900" lon="35.3377800">
<ele>-30.210001</ele>
<time>2022-03-15T09:19:22.329Z</time>
</trkpt>
<trkpt lat="31.1579000" lon="35.3379100">
<ele>-31.070000</ele>
<time>2022-03-15T09:19:22.329Z</time>
</trkpt>
<trkpt lat="31.1577500" lon="35.3378300">
<ele>-31.559999</ele>
<time>2022-03-15T09:19:22.329Z</time>
</trkpt>
<trkpt lat="31.1575400" lon="35.3378700">
<ele>-33.090000</ele>
<time>2022-03-15T09:19:22.329Z</time>
</trkpt>
<trkpt lat="31.1574300" lon="35.3379100">
<ele>-34.740002</ele>
<time>2022-03-15T09:19:22.329Z</time>
</trkpt>
<trkpt lat="31.1569000" lon="35.3376900">
<ele>-43.940002</ele>
<time>2022-03-15T09:19:22.329Z</time>
</trkpt>
<trkpt lat="31.1568700" lon="35.3378400">
<ele>-45.129997</ele>
<time>2022-03-15T09:19:22.329Z</time>
</trkpt>
<trkpt lat="31.1570900" lon="35.3380800">
<ele>-41.689999</ele>
<time>2022-03-15T09:19:22.329Z</time>
</trkpt>
<trkpt lat="31.1572500" lon="35.3383200">
<ele>-41.450001</ele>
<time>2022-03-15T09:19:22.329Z</time>
</trkpt>
<trkpt lat="31.1574200" lon="35.3383900">
<ele>-40.459999</ele>
<time>2022-03-15T09:19:22.329Z</time>
</trkpt>
<trkpt lat="31.1573500" lon="35.3385300">
<ele>-44.349998</ele>
<time>2022-03-15T09:19:22.329Z</time>
</trkpt>
<trkpt lat="31.1574600" lon="35.3386100">
<ele>-45.259998</ele>
<time>2022-03-15T09:19:22.329Z</time>
</trkpt>
<trkpt lat="31.1573000" lon="35.3386400">
<ele>-47.029999</ele>
<time>2022-03-15T09:19:22.329Z</time>
</trkpt>
<trkpt lat="31.1569400" lon="35.3384400">
<ele>-49.619999</ele>
<time>2022-03-15T09:19:22.329Z</time>
</trkpt>
<trkpt lat="31.1565000" lon="35.3381100">
<ele>-54.349998</ele>
<time>2022-03-15T09:19:22.329Z</time>
</trkpt>
<trkpt lat="31.1563800" lon="35.3381200">
<ele>-57.570004</ele>
<time>2022-03-15T09:19:22.329Z</time>
</trkpt>
<trkpt lat="31.1562400" lon="35.3380800">
<ele>-58.829998</ele>
<time>2022-03-15T09:19:22.330Z</time>
</trkpt>
<trkpt lat="31.1561500" lon="35.3380100">
<ele>-58.900002</ele>
<time>2022-03-15T09:19:22.330Z</time>
</trkpt>
<trkpt lat="31.1560500" lon="35.3377900">
<ele>-56.169998</ele>
<time>2022-03-15T09:19:22.330Z</time>
</trkpt>
<trkpt lat="31.1560500" lon="35.3377900">
<ele>-56.169998</ele>
<time>2022-03-15T09:19:22.330Z</time>
</trkpt>
<trkpt lat="31.1560500" lon="35.3377900">
<ele>-56.169998</ele>
<time>2022-03-15T09:19:22.330Z</time>
</trkpt>
<trkpt lat="31.1560500" lon="35.3377900">
<ele>-56.169998</ele>
<time>2022-03-15T09:19:22.330Z</time>
</trkpt>
<trkpt lat="31.1559600" lon="35.3377400">
<ele>-55.790001</ele>
<time>2022-03-15T09:19:22.330Z</time>
</trkpt>
<trkpt lat="31.1558000" lon="35.3378200">
<ele>-56.320000</ele>
<time>2022-03-15T09:19:22.330Z</time>
</trkpt>
<trkpt lat="31.1556400" lon="35.3379200">
<ele>-56.480000</ele>
<time>2022-03-15T09:19:22.330Z</time>
</trkpt>
<trkpt lat="31.1553400" lon="35.3379000">
<ele>-58.889999</ele>
<time>2022-03-15T09:19:22.331Z</time>
</trkpt>
<trkpt lat="31.1551700" lon="35.3378000">
<ele>-62.170002</ele>
<time>2022-03-15T09:19:22.331Z</time>
</trkpt>
<trkpt lat="31.1548800" lon="35.3376900">
<ele>-68.079994</ele>
<time>2022-03-15T09:19:22.331Z</time>
</trkpt>
<trkpt lat="31.1548400" lon="35.3376000">
<ele>-66.769997</ele>
<time>2022-03-15T09:19:22.331Z</time>
</trkpt>
<trkpt lat="31.1548800" lon="35.3374800">
<ele>-63.719997</ele>
<time>2022-03-15T09:19:22.331Z</time>
</trkpt>
<trkpt lat="31.1549700" lon="35.3373400">
<ele>-61.899998</ele>
<time>2022-03-15T09:19:22.331Z</time>
</trkpt>
<trkpt lat="31.1549900" lon="35.3372600">
<ele>-61.340000</ele>
<time>2022-03-15T09:19:22.331Z</time>
</trkpt>
<trkpt lat="31.1551600" lon="35.3370500">
<ele>-59.450001</ele>
<time>2022-03-15T09:19:22.331Z</time>
</trkpt>
<trkpt lat="31.1551100" lon="35.3369200">
<ele>-62.349998</ele>
<time>2022-03-15T09:19:22.331Z</time>
</trkpt>
<trkpt lat="31.1549200" lon="35.3369500">
<ele>-68.360001</ele>
<time>2022-03-15T09:19:22.331Z</time>
</trkpt>
<trkpt lat="31.1548500" lon="35.3370100">
<ele>-70.279999</ele>
<time>2022-03-15T09:19:22.331Z</time>
</trkpt>
<trkpt lat="31.1548500" lon="35.3371700">
<ele>-67.360001</ele>
<time>2022-03-15T09:19:22.331Z</time>
</trkpt>
<trkpt lat="31.1547700" lon="35.3372300">
<ele>-69.190002</ele>
<time>2022-03-15T09:19:22.331Z</time>
</trkpt>
<trkpt lat="31.1545000" lon="35.3372200">
<ele>-79.830002</ele>
<time>2022-03-15T09:19:22.331Z</time>
</trkpt>
<trkpt lat="31.1542400" lon="35.3372300">
<ele>-85.510002</ele>
<time>2022-03-15T09:19:22.331Z</time>
</trkpt>
<trkpt lat="31.1541700" lon="35.3372800">
<ele>-85.689995</ele>
<time>2022-03-15T09:19:22.331Z</time>
</trkpt>
<trkpt lat="31.1541700" lon="35.3372800">
<ele>-85.689995</ele>
<time>2022-03-15T09:19:22.331Z</time>
</trkpt>
<trkpt lat="31.1541500" lon="35.3372800">
<ele>-86.120003</ele>
<time>2022-03-15T09:19:22.331Z</time>
</trkpt>
<trkpt lat="31.1540600" lon="35.3373900">
<ele>-85.910004</ele>
<time>2022-03-15T09:19:22.332Z</time>
</trkpt>
<trkpt lat="31.1539700" lon="35.3375500">
<ele>-85.419998</ele>
<time>2022-03-15T09:19:22.332Z</time>
</trkpt>
<trkpt lat="31.1540300" lon="35.3375900">
<ele>-83.470001</ele>
<time>2022-03-15T09:19:22.332Z</time>
</trkpt>
<trkpt lat="31.1541700" lon="35.3376200">
<ele>-79.650002</ele>
<time>2022-03-15T09:19:22.332Z</time>
</trkpt>
<trkpt lat="31.1542100" lon="35.3378100">
<ele>-77.750000</ele>
<time>2022-03-15T09:19:22.332Z</time>
</trkpt>
<trkpt lat="31.1540700" lon="35.3377200">
<ele>-81.059998</ele>
<time>2022-03-15T09:19:22.332Z</time>
</trkpt>
<trkpt lat="31.1539800" lon="35.3377000">
<ele>-83.540001</ele>
<time>2022-03-15T09:19:22.332Z</time>
</trkpt>
<trkpt lat="31.1539500" lon="35.3377400">
<ele>-83.869995</ele>
<time>2022-03-15T09:19:22.332Z</time>
</trkpt>
<trkpt lat="31.1539900" lon="35.3378600">
<ele>-82.669998</ele>
<time>2022-03-15T09:19:22.332Z</time>
</trkpt>
<trkpt lat="31.1539400" lon="35.3381600">
<ele>-85.510002</ele>
<time>2022-03-15T09:19:22.332Z</time>
</trkpt>
<trkpt lat="31.1539000" lon="35.3383000">
<ele>-88.279999</ele>
<time>2022-03-15T09:19:22.332Z</time>
</trkpt>
<trkpt lat="31.1539100" lon="35.3384100">
<ele>-89.939995</ele>
<time>2022-03-15T09:19:22.332Z</time>
</trkpt>
<trkpt lat="31.1540700" lon="35.3384300">
<ele>-87.049995</ele>
<time>2022-03-15T09:19:22.332Z</time>
</trkpt>
<trkpt lat="31.1541400" lon="35.3385100">
<ele>-87.330002</ele>
<time>2022-03-15T09:19:22.332Z</time>
</trkpt>
<trkpt lat="31.1541400" lon="35.3385100">
<ele>-87.330002</ele>
<time>2022-03-15T09:19:22.332Z</time>
</trkpt>
<trkpt lat="31.1541900" lon="35.3385600">
<ele>-87.480003</ele>
<time>2022-03-15T09:19:22.332Z</time>
</trkpt>
<trkpt lat="31.1541100" lon="35.3386300">
<ele>-90.480003</ele>
<time>2022-03-15T09:19:22.332Z</time>
</trkpt>
<trkpt lat="31.1540100" lon="35.3386700">
<ele>-93.179993</ele>
<time>2022-03-15T09:19:22.332Z</time>
</trkpt>
<trkpt lat="31.1539300" lon="35.3386600">
<ele>-94.339996</ele>
<time>2022-03-15T09:19:22.332Z</time>
</trkpt>
<trkpt lat="31.1538500" lon="35.3384700">
<ele>-92.379997</ele>
<time>2022-03-15T09:19:22.332Z</time>
</trkpt>
<trkpt lat="31.1537700" lon="35.3383400">
<ele>-92.920006</ele>
<time>2022-03-15T09:19:22.332Z</time>
</trkpt>
<trkpt lat="31.1536700" lon="35.3381900">
<ele>-94.430000</ele>
<time>2022-03-15T09:19:22.332Z</time>
</trkpt>
<trkpt lat="31.1536400" lon="35.3379600">
<ele>-93.960007</ele>
<time>2022-03-15T09:19:22.333Z</time>
</trkpt>
<trkpt lat="31.1534900" lon="35.3378600">
<ele>-98.790001</ele>
<time>2022-03-15T09:19:22.333Z</time>
</trkpt>
<trkpt lat="31.1534400" lon="35.3378900">
<ele>-100.299995</ele>
<time>2022-03-15T09:19:22.333Z</time>
</trkpt>
<trkpt lat="31.1534500" lon="35.3379100">
<ele>-99.940002</ele>
<time>2022-03-15T09:19:22.333Z</time>
</trkpt>
<trkpt lat="31.1534500" lon="35.3379100">
<ele>-99.940002</ele>
<time>2022-03-15T09:19:22.333Z</time>
</trkpt>
<trkpt lat="31.1534500" lon="35.3379100">
<ele>-99.940002</ele>
<time>2022-03-15T09:19:22.333Z</time>
</trkpt>
<trkpt lat="31.1534600" lon="35.3379600">
<ele>-99.540001</ele>
<time>2022-03-15T09:19:22.333Z</time>
</trkpt>
<trkpt lat="31.1535500" lon="35.3381000">
<ele>-97.170006</ele>
<time>2022-03-15T09:19:22.333Z</time>
</trkpt>
<trkpt lat="31.1535100" lon="35.3382300">
<ele>-99.340004</ele>
<time>2022-03-15T09:19:22.333Z</time>
</trkpt>
<trkpt lat="31.1531400" lon="35.3386100">
<ele>-111.950005</ele>
<time>2022-03-15T09:19:22.333Z</time>
</trkpt>
<trkpt lat="31.1530500" lon="35.3386900">
<ele>-115.389999</ele>
<time>2022-03-15T09:19:22.333Z</time>
</trkpt>
<trkpt lat="31.1530600" lon="35.3388800">
<ele>-115.839996</ele>
<time>2022-03-15T09:19:22.333Z</time>
</trkpt>
<trkpt lat="31.1532200" lon="35.3389300">
<ele>-111.670006</ele>
<time>2022-03-15T09:19:22.333Z</time>
</trkpt>
<trkpt lat="31.1533400" lon="35.3390100">
<ele>-109.580002</ele>
<time>2022-03-15T09:19:22.333Z</time>
</trkpt>
<trkpt lat="31.1533300" lon="35.3390200">
<ele>-109.970001</ele>
<time>2022-03-15T09:19:22.333Z</time>
</trkpt>
<trkpt lat="31.1533300" lon="35.3390200">
<ele>-109.970001</ele>
<time>2022-03-15T09:19:22.333Z</time>
</trkpt>
<trkpt lat="31.1533100" lon="35.3390500">
<ele>-110.849998</ele>
<time>2022-03-15T09:19:22.333Z</time>
</trkpt>
<trkpt lat="31.1532500" lon="35.3390400">
<ele>-112.089996</ele>
<time>2022-03-15T09:19:22.334Z</time>
</trkpt>
<trkpt lat="31.1531700" lon="35.3390100">
<ele>-113.680000</ele>
<time>2022-03-15T09:19:22.334Z</time>
</trkpt>
<trkpt lat="31.1531200" lon="35.3390800">
<ele>-115.310005</ele>
<time>2022-03-15T09:19:22.334Z</time>
</trkpt>
<trkpt lat="31.1531800" lon="35.3391700">
<ele>-114.820000</ele>
<time>2022-03-15T09:19:22.334Z</time>
</trkpt>
<trkpt lat="31.1531800" lon="35.3391700">
<ele>-114.820000</ele>
<time>2022-03-15T09:19:22.334Z</time>
</trkpt>
<trkpt lat="31.1531800" lon="35.3391700">
<ele>-114.820000</ele>
<time>2022-03-15T09:19:22.334Z</time>
</trkpt>
<trkpt lat="31.1531800" lon="35.3392600">
<ele>-116.410004</ele>
<time>2022-03-15T09:19:22.334Z</time>
</trkpt>
<trkpt lat="31.1531200" lon="35.3393800">
<ele>-119.270004</ele>
<time>2022-03-15T09:19:22.334Z</time>
</trkpt>
<trkpt lat="31.1530900" lon="35.3395900">
<ele>-123.769997</ele>
<time>2022-03-15T09:19:22.334Z</time>
</trkpt>
<trkpt lat="31.1531900" lon="35.3396600">
<ele>-124.199997</ele>
<time>2022-03-15T09:19:22.334Z</time>
</trkpt>
<trkpt lat="31.1532900" lon="35.3396100">
<ele>-122.040001</ele>
<time>2022-03-15T09:19:22.334Z</time>
</trkpt>
<trkpt lat="31.1533700" lon="35.3394900">
<ele>-117.930000</ele>
<time>2022-03-15T09:19:22.334Z</time>
</trkpt>
<trkpt lat="31.1534300" lon="35.3394300">
<ele>-114.900002</ele>
<time>2022-03-15T09:19:22.334Z</time>
</trkpt>
<trkpt lat="31.1535900" lon="35.3395100">
<ele>-112.019997</ele>
<time>2022-03-15T09:19:22.334Z</time>
</trkpt>
<trkpt lat="31.1536800" lon="35.3395900">
<ele>-112.139999</ele>
<time>2022-03-15T09:19:22.334Z</time>
</trkpt>
<trkpt lat="31.1537700" lon="35.3396500">
<ele>-111.879997</ele>
<time>2022-03-15T09:19:22.334Z</time>
</trkpt>
<trkpt lat="31.1538600" lon="35.3396900">
<ele>-111.030006</ele>
<time>2022-03-15T09:19:22.334Z</time>
</trkpt>
<trkpt lat="31.1539900" lon="35.3397400">
<ele>-111.849998</ele>
<time>2022-03-15T09:19:22.334Z</time>
</trkpt>
<trkpt lat="31.1540500" lon="35.3397800">
<ele>-112.970001</ele>
<time>2022-03-15T09:19:22.334Z</time>
</trkpt>
<trkpt lat="31.1540500" lon="35.3397800">
<ele>-112.970001</ele>
<time>2022-03-15T09:19:22.334Z</time>
</trkpt>
<trkpt lat="31.1540600" lon="35.3397800">
<ele>-112.979996</ele>
<time>2022-03-15T09:19:22.335Z</time>
</trkpt>
<trkpt lat="31.1540600" lon="35.3398500">
<ele>-114.620003</ele>
<time>2022-03-15T09:19:22.335Z</time>
</trkpt>
<trkpt lat="31.1539900" lon="35.3398800">
<ele>-115.650002</ele>
<time>2022-03-15T09:19:22.335Z</time>
</trkpt>
<trkpt lat="31.1539000" lon="35.3398100">
<ele>-113.830002</ele>
<time>2022-03-15T09:19:22.335Z</time>
</trkpt>
<trkpt lat="31.1538200" lon="35.3397600">
<ele>-113.459999</ele>
<time>2022-03-15T09:19:22.335Z</time>
</trkpt>
<trkpt lat="31.1537400" lon="35.3397300">
<ele>-113.930000</ele>
<time>2022-03-15T09:19:22.335Z</time>
</trkpt>
<trkpt lat="31.1536400" lon="35.3397100">
<ele>-115.229996</ele>
<time>2022-03-15T09:19:22.335Z</time>
</trkpt>
<trkpt lat="31.1535500" lon="35.3396700">
<ele>-116.629997</ele>
<time>2022-03-15T09:19:22.335Z</time>
</trkpt>
<trkpt lat="31.1534700" lon="35.3397100">
<ele>-119.799995</ele>
<time>2022-03-15T09:19:22.335Z</time>
</trkpt>
<trkpt lat="31.1536000" lon="35.3398100">
<ele>-119.150002</ele>
<time>2022-03-15T09:19:22.335Z</time>
</trkpt>
<trkpt lat="31.1536800" lon="35.3398100">
<ele>-117.600006</ele>
<time>2022-03-15T09:19:22.335Z</time>
</trkpt>
<trkpt lat="31.1537200" lon="35.3398600">
<ele>-118.500008</ele>
<time>2022-03-15T09:19:22.335Z</time>
</trkpt>
<trkpt lat="31.1537500" lon="35.3399500">
<ele>-120.879997</ele>
<time>2022-03-15T09:19:22.335Z</time>
</trkpt>
<trkpt lat="31.1537800" lon="35.3400500">
<ele>-123.180000</ele>
<time>2022-03-15T09:19:22.335Z</time>
</trkpt>
<trkpt lat="31.1538400" lon="35.3401400">
<ele>-124.080002</ele>
<time>2022-03-15T09:19:22.335Z</time>
</trkpt>
<trkpt lat="31.1539000" lon="35.3402600">
<ele>-125.380005</ele>
<time>2022-03-15T09:19:22.335Z</time>
</trkpt>
<trkpt lat="31.1539700" lon="35.3403700">
<ele>-126.000000</ele>
<time>2022-03-15T09:19:22.335Z</time>
</trkpt>
<trkpt lat="31.1539700" lon="35.3404000">
<ele>-126.580002</ele>
<time>2022-03-15T09:19:22.335Z</time>
</trkpt>
<trkpt lat="31.1539700" lon="35.3404000">
<ele>-126.580002</ele>
<time>2022-03-15T09:19:22.335Z</time>
</trkpt>
<trkpt lat="31.1539500" lon="35.3404700">
<ele>-128.290009</ele>
<time>2022-03-15T09:19:22.335Z</time>
</trkpt>
<trkpt lat="31.1538600" lon="35.3404300">
<ele>-129.520004</ele>
<time>2022-03-15T09:19:22.335Z</time>
</trkpt>
<trkpt lat="31.1537600" lon="35.3402600">
<ele>-128.800003</ele>
<time>2022-03-15T09:19:22.336Z</time>
</trkpt>
<trkpt lat="31.1536500" lon="35.3401200">
<ele>-127.640007</ele>
<time>2022-03-15T09:19:22.336Z</time>
</trkpt>
<trkpt lat="31.1535900" lon="35.3400800">
<ele>-127.840004</ele>
<time>2022-03-15T09:19:22.336Z</time>
</trkpt>
<trkpt lat="31.1535000" lon="35.3401200">
<ele>-131.259995</ele>
<time>2022-03-15T09:19:22.336Z</time>
</trkpt>
<trkpt lat="31.1534000" lon="35.3402500">
<ele>-137.519989</ele>
<time>2022-03-15T09:19:22.336Z</time>
</trkpt>
<trkpt lat="31.1532600" lon="35.3403700">
<ele>-142.960007</ele>
<time>2022-03-15T09:19:22.336Z</time>
</trkpt>
<trkpt lat="31.1531800" lon="35.3404400">
<ele>-144.970001</ele>
<time>2022-03-15T09:19:22.336Z</time>
</trkpt>
<trkpt lat="31.1531800" lon="35.3404400">
<ele>-144.970001</ele>
<time>2022-03-15T09:19:22.336Z</time>
</trkpt>
<trkpt lat="31.1531700" lon="35.3404500">
<ele>-145.199997</ele>
<time>2022-03-15T09:19:22.336Z</time>
</trkpt>
<trkpt lat="31.1530500" lon="35.3404900">
<ele>-146.550003</ele>
<time>2022-03-15T09:19:22.336Z</time>
</trkpt>
<trkpt lat="31.1528400" lon="35.3405200">
<ele>-148.000000</ele>
<time>2022-03-15T09:19:22.336Z</time>
</trkpt>
<trkpt lat="31.1527300" lon="35.3405300">
<ele>-148.589996</ele>
<time>2022-03-15T09:19:22.336Z</time>
</trkpt>
<trkpt lat="31.1526400" lon="35.3404000">
<ele>-147.029999</ele>
<time>2022-03-15T09:19:22.336Z</time>
</trkpt>
<trkpt lat="31.1525300" lon="35.3402300">
<ele>-145.800003</ele>
<time>2022-03-15T09:19:22.336Z</time>
</trkpt>
<trkpt lat="31.1524900" lon="35.3401300">
<ele>-144.600006</ele>
<time>2022-03-15T09:19:22.336Z</time>
</trkpt>
<trkpt lat="31.1523900" lon="35.3401400">
<ele>-147.289993</ele>
<time>2022-03-15T09:19:22.336Z</time>
</trkpt>
<trkpt lat="31.1522700" lon="35.3402400">
<ele>-150.910004</ele>
<time>2022-03-15T09:19:22.336Z</time>
</trkpt>
<trkpt lat="31.1522000" lon="35.3403200">
<ele>-152.550003</ele>
<time>2022-03-15T09:19:22.336Z</time>
</trkpt>
<trkpt lat="31.1521800" lon="35.3403500">
<ele>-153.020004</ele>
<time>2022-03-15T09:19:22.336Z</time>
</trkpt>
<trkpt lat="31.1521000" lon="35.3404300">
<ele>-154.839996</ele>
<time>2022-03-15T09:19:22.336Z</time>
</trkpt>
<trkpt lat="31.1519700" lon="35.3404100">
<ele>-157.919998</ele>
<time>2022-03-15T09:19:22.337Z</time>
</trkpt>
<trkpt lat="31.1519000" lon="35.3403900">
<ele>-159.300003</ele>
<time>2022-03-15T09:19:22.337Z</time>
</trkpt>
<trkpt lat="31.1518500" lon="35.3404000">
<ele>-160.070007</ele>
<time>2022-03-15T09:19:22.337Z</time>
</trkpt>
<trkpt lat="31.1518400" lon="35.3404700">
<ele>-160.070007</ele>
<time>2022-03-15T09:19:22.337Z</time>
</trkpt>
<trkpt lat="31.1518400" lon="35.3404700">
<ele>-160.070007</ele>
<time>2022-03-15T09:19:22.337Z</time>
</trkpt>
<trkpt lat="31.1518400" lon="35.3404900">
<ele>-160.030014</ele>
<time>2022-03-15T09:19:22.337Z</time>
</trkpt>
<trkpt lat="31.1518900" lon="35.3405400">
<ele>-159.029999</ele>
<time>2022-03-15T09:19:22.337Z</time>
</trkpt>
<trkpt lat="31.1519900" lon="35.3406000">
<ele>-157.310013</ele>
<time>2022-03-15T09:19:22.337Z</time>
</trkpt>
<trkpt lat="31.1520600" lon="35.3406000">
<ele>-156.000000</ele>
<time>2022-03-15T09:19:22.337Z</time>
</trkpt>
<trkpt lat="31.1519900" lon="35.3406700">
<ele>-157.770004</ele>
<time>2022-03-15T09:19:22.337Z</time>
</trkpt>
<trkpt lat="31.1519100" lon="35.3406800">
<ele>-158.960007</ele>
<time>2022-03-15T09:19:22.337Z</time>
</trkpt>
<trkpt lat="31.1518800" lon="35.3407100">
<ele>-159.459991</ele>
<time>2022-03-15T09:19:22.337Z</time>
</trkpt>
<trkpt lat="31.1519100" lon="35.3407800">
<ele>-159.229996</ele>
<time>2022-03-15T09:19:22.337Z</time>
</trkpt>
<trkpt lat="31.1519500" lon="35.3409000">
<ele>-160.419998</ele>
<time>2022-03-15T09:19:22.337Z</time>
</trkpt>
<trkpt lat="31.1520300" lon="35.3409200">
<ele>-160.470001</ele>
<time>2022-03-15T09:19:22.337Z</time>
</trkpt>
<trkpt lat="31.1521000" lon="35.3408200">
<ele>-158.259995</ele>
<time>2022-03-15T09:19:22.337Z</time>
</trkpt>
<trkpt lat="31.1522000" lon="35.3407000">
<ele>-155.389999</ele>
<time>2022-03-15T09:19:22.337Z</time>
</trkpt>
<trkpt lat="31.1523000" lon="35.3406200">
<ele>-152.490005</ele>
<time>2022-03-15T09:19:22.337Z</time>
</trkpt>
<trkpt lat="31.1523700" lon="35.3405500">
<ele>-150.380005</ele>
<time>2022-03-15T09:19:22.337Z</time>
</trkpt>
<trkpt lat="31.1524000" lon="35.3405800">
<ele>-150.550003</ele>
<time>2022-03-15T09:19:22.337Z</time>
</trkpt>
<trkpt lat="31.1523800" lon="35.3406000">
<ele>-151.169998</ele>
<time>2022-03-15T09:19:22.337Z</time>
</trkpt>
<trkpt lat="31.1523800" lon="35.3406000">
<ele>-151.169998</ele>
<time>2022-03-15T09:19:22.337Z</time>
</trkpt>
<trkpt lat="31.1523500" lon="35.3406400">
<ele>-152.300003</ele>
<time>2022-03-15T09:19:22.337Z</time>
</trkpt>
<trkpt lat="31.1522900" lon="35.3407200">
<ele>-154.680008</ele>
<time>2022-03-15T09:19:22.337Z</time>
</trkpt>
<trkpt lat="31.1522600" lon="35.3408000">
<ele>-156.750000</ele>
<time>2022-03-15T09:19:22.337Z</time>
</trkpt>
<trkpt lat="31.1522300" lon="35.3408900">
<ele>-158.910004</ele>
<time>2022-03-15T09:19:22.338Z</time>
</trkpt>
<trkpt lat="31.1521800" lon="35.3410000">
<ele>-161.240005</ele>
<time>2022-03-15T09:19:22.338Z</time>
</trkpt>
<trkpt lat="31.1521500" lon="35.3410700">
<ele>-162.740005</ele>
<time>2022-03-15T09:19:22.338Z</time>
</trkpt>
<trkpt lat="31.1521000" lon="35.3411600">
<ele>-164.940002</ele>
<time>2022-03-15T09:19:22.338Z</time>
</trkpt>
<trkpt lat="31.1520500" lon="35.3411900">
<ele>-165.939987</ele>
<time>2022-03-15T09:19:22.338Z</time>
</trkpt>
<trkpt lat="31.1519800" lon="35.3412100">
<ele>-166.880005</ele>
<time>2022-03-15T09:19:22.338Z</time>
</trkpt>
<trkpt lat="31.1519400" lon="35.3412000">
<ele>-166.889999</ele>
<time>2022-03-15T09:19:22.338Z</time>
</trkpt>
<trkpt lat="31.1518700" lon="35.3411600">
<ele>-165.649994</ele>
<time>2022-03-15T09:19:22.338Z</time>
</trkpt>
<trkpt lat="31.1518000" lon="35.3411800">
<ele>-165.580002</ele>
<time>2022-03-15T09:19:22.338Z</time>
</trkpt>
<trkpt lat="31.1517900" lon="35.3412300">
<ele>-166.300003</ele>
<time>2022-03-15T09:19:22.338Z</time>
</trkpt>
<trkpt lat="31.1518400" lon="35.3412700">
<ele>-167.410004</ele>
<time>2022-03-15T09:19:22.338Z</time>
</trkpt>
<trkpt lat="31.1519100" lon="35.3412900">
<ele>-168.500000</ele>
<time>2022-03-15T09:19:22.338Z</time>
</trkpt>
<trkpt lat="31.1519600" lon="35.3413200">
<ele>-169.400009</ele>
<time>2022-03-15T09:19:22.338Z</time>
</trkpt>
<trkpt lat="31.1520300" lon="35.3413200">
<ele>-168.899994</ele>
<time>2022-03-15T09:19:22.338Z</time>
</trkpt>
<trkpt lat="31.1521200" lon="35.3412400">
<ele>-166.519989</ele>
<time>2022-03-15T09:19:22.338Z</time>
</trkpt>
<trkpt lat="31.1521700" lon="35.3411800">
<ele>-164.860001</ele>
<time>2022-03-15T09:19:22.338Z</time>
</trkpt>
<trkpt lat="31.1522400" lon="35.3411100">
<ele>-162.790009</ele>
<time>2022-03-15T09:19:22.339Z</time>
</trkpt>
<trkpt lat="31.1522700" lon="35.3411000">
<ele>-162.279999</ele>
<time>2022-03-15T09:19:22.339Z</time>
</trkpt>
<trkpt lat="31.1523100" lon="35.3411400">
<ele>-162.709991</ele>
<time>2022-03-15T09:19:22.339Z</time>
</trkpt>
<trkpt lat="31.1522900" lon="35.3412000">
<ele>-164.269989</ele>
<time>2022-03-15T09:19:22.339Z</time>
</trkpt>
<trkpt lat="31.1522700" lon="35.3412300">
<ele>-165.129990</ele>
<time>2022-03-15T09:19:22.339Z</time>
</trkpt>
<trkpt lat="31.1522200" lon="35.3412700">
<ele>-166.450012</ele>
<time>2022-03-15T09:19:22.339Z</time>
</trkpt>
<trkpt lat="31.1521800" lon="35.3413200">
<ele>-167.820007</ele>
<time>2022-03-15T09:19:22.339Z</time>
</trkpt>
<trkpt lat="31.1521700" lon="35.3413600">
<ele>-168.750000</ele>
<time>2022-03-15T09:19:22.339Z</time>
</trkpt>
<trkpt lat="31.1523200" lon="35.3414100">
<ele>-168.809998</ele>
<time>2022-03-15T09:19:22.339Z</time>
</trkpt>
<trkpt lat="31.1523800" lon="35.3414000">
<ele>-168.149994</ele>
<time>2022-03-15T09:19:22.339Z</time>
</trkpt>
<trkpt lat="31.1524600" lon="35.3414300">
<ele>-168.429993</ele>
<time>2022-03-15T09:19:22.339Z</time>
</trkpt>
<trkpt lat="31.1525300" lon="35.3415800">
<ele>-172.500000</ele>
<time>2022-03-15T09:19:22.339Z</time>
</trkpt>
<trkpt lat="31.1525100" lon="35.3416000">
<ele>-173.080002</ele>
<time>2022-03-15T09:19:22.339Z</time>
</trkpt>
<trkpt lat="31.1525100" lon="35.3416000">
<ele>-173.080002</ele>
<time>2022-03-15T09:19:22.339Z</time>
</trkpt>
<trkpt lat="31.1524700" lon="35.3416200">
<ele>-173.689987</ele>
<time>2022-03-15T09:19:22.339Z</time>
</trkpt>
<trkpt lat="31.1524000" lon="35.3416300">
<ele>-174.039993</ele>
<time>2022-03-15T09:19:22.339Z</time>
</trkpt>
<trkpt lat="31.1521900" lon="35.3416300">
<ele>-174.339996</ele>
<time>2022-03-15T09:19:22.339Z</time>
</trkpt>
<trkpt lat="31.1520800" lon="35.3416500">
<ele>-175.180008</ele>
<time>2022-03-15T09:19:22.339Z</time>
</trkpt>
<trkpt lat="31.1519600" lon="35.3416500">
<ele>-175.639999</ele>
<time>2022-03-15T09:19:22.339Z</time>
</trkpt>
<trkpt lat="31.1518700" lon="35.3416600">
<ele>-175.330002</ele>
<time>2022-03-15T09:19:22.339Z</time>
</trkpt>
<trkpt lat="31.1517700" lon="35.3416200">
<ele>-173.689987</ele>
<time>2022-03-15T09:19:22.339Z</time>
</trkpt>
<trkpt lat="31.1516700" lon="35.3416100">
<ele>-172.599991</ele>
<time>2022-03-15T09:19:22.339Z</time>
</trkpt>
<trkpt lat="31.1515800" lon="35.3415700">
<ele>-172.410004</ele>
<time>2022-03-15T09:19:22.340Z</time>
</trkpt>
<trkpt lat="31.1515100" lon="35.3415600">
<ele>-172.870010</ele>
<time>2022-03-15T09:19:22.340Z</time>
</trkpt>
<trkpt lat="31.1514400" lon="35.3415400">
<ele>-173.179993</ele>
<time>2022-03-15T09:19:22.340Z</time>
</trkpt>
<trkpt lat="31.1514200" lon="35.3415500">
<ele>-173.579987</ele>
<time>2022-03-15T09:19:22.340Z</time>
</trkpt>
<trkpt lat="31.1514200" lon="35.3415500">
<ele>-173.579987</ele>
<time>2022-03-15T09:19:22.340Z</time>
</trkpt>
<trkpt lat="31.1513600" lon="35.3415700">
<ele>-174.960007</ele>
<time>2022-03-15T09:19:22.340Z</time>
</trkpt>
<trkpt lat="31.1511900" lon="35.3415800">
<ele>-179.180008</ele>
<time>2022-03-15T09:19:22.340Z</time>
</trkpt>
<trkpt lat="31.1510800" lon="35.3416300">
<ele>-182.190002</ele>
<time>2022-03-15T09:19:22.340Z</time>
</trkpt>
<trkpt lat="31.1511900" lon="35.3417000">
<ele>-180.960007</ele>
<time>2022-03-15T09:19:22.340Z</time>
</trkpt>
<trkpt lat="31.1512800" lon="35.3417200">
<ele>-179.550003</ele>
<time>2022-03-15T09:19:22.340Z</time>
</trkpt>
<trkpt lat="31.1513800" lon="35.3417200">
<ele>-177.519989</ele>
<time>2022-03-15T09:19:22.340Z</time>
</trkpt>
<trkpt lat="31.1514100" lon="35.3417400">
<ele>-177.739990</ele>
<time>2022-03-15T09:19:22.340Z</time>
</trkpt>
<trkpt lat="31.1514100" lon="35.3417400">
<ele>-177.739990</ele>
<time>2022-03-15T09:19:22.340Z</time>
</trkpt>
<trkpt lat="31.1514300" lon="35.3417500">
<ele>-177.889999</ele>
<time>2022-03-15T09:19:22.340Z</time>
</trkpt>
<trkpt lat="31.1514100" lon="35.3417800">
<ele>-178.770004</ele>
<time>2022-03-15T09:19:22.340Z</time>
</trkpt>
<trkpt lat="31.1513700" lon="35.3417900">
<ele>-179.460007</ele>
<time>2022-03-15T09:19:22.340Z</time>
</trkpt>
<trkpt lat="31.1513300" lon="35.3418000">
<ele>-180.429993</ele>
<time>2022-03-15T09:19:22.340Z</time>
</trkpt>
<trkpt lat="31.1513400" lon="35.3418300">
<ele>-180.970001</ele>
<time>2022-03-15T09:19:22.340Z</time>
</trkpt>
<trkpt lat="31.1513300" lon="35.3418800">
<ele>-182.319992</ele>
<time>2022-03-15T09:19:22.340Z</time>
</trkpt>
<trkpt lat="31.1512800" lon="35.3419000">
<ele>-183.570007</ele>
<time>2022-03-15T09:19:22.340Z</time>
</trkpt>
<trkpt lat="31.1512200" lon="35.3418600">
<ele>-183.669998</ele>
<time>2022-03-15T09:19:22.340Z</time>
</trkpt>
<trkpt lat="31.1511500" lon="35.3418300">
<ele>-184.260010</ele>
<time>2022-03-15T09:19:22.340Z</time>
</trkpt>
<trkpt lat="31.1510800" lon="35.3418800">
<ele>-186.570007</ele>
<time>2022-03-15T09:19:22.340Z</time>
</trkpt>
<trkpt lat="31.1510800" lon="35.3419400">
<ele>-187.699997</ele>
<time>2022-03-15T09:19:22.341Z</time>
</trkpt>
<trkpt lat="31.1510900" lon="35.3420100">
<ele>-189.370010</ele>
<time>2022-03-15T09:19:22.341Z</time>
</trkpt>
<trkpt lat="31.1512500" lon="35.3420500">
<ele>-188.040009</ele>
<time>2022-03-15T09:19:22.341Z</time>
</trkpt>
<trkpt lat="31.1513600" lon="35.3421200">
<ele>-188.470001</ele>
<time>2022-03-15T09:19:22.341Z</time>
</trkpt>
<trkpt lat="31.1515100" lon="35.3422400">
<ele>-191.360001</ele>
<time>2022-03-15T09:19:22.341Z</time>
</trkpt>
<trkpt lat="31.1515600" lon="35.3423000">
<ele>-192.439987</ele>
<time>2022-03-15T09:19:22.341Z</time>
</trkpt>
<trkpt lat="31.1515700" lon="35.3423700">
<ele>-193.679993</ele>
<time>2022-03-15T09:19:22.341Z</time>
</trkpt>
<trkpt lat="31.1515300" lon="35.3424400">
<ele>-195.289993</ele>
<time>2022-03-15T09:19:22.341Z</time>
</trkpt>
<trkpt lat="31.1514700" lon="35.3424800">
<ele>-196.679993</ele>
<time>2022-03-15T09:19:22.341Z</time>
</trkpt>
<trkpt lat="31.1514700" lon="35.3425300">
<ele>-197.659988</ele>
<time>2022-03-15T09:19:22.341Z</time>
</trkpt>
<trkpt lat="31.1514500" lon="35.3425900">
<ele>-198.960007</ele>
<time>2022-03-15T09:19:22.341Z</time>
</trkpt>
<trkpt lat="31.1514700" lon="35.3426800">
<ele>-200.360001</ele>
<time>2022-03-15T09:19:22.341Z</time>
</trkpt>
<trkpt lat="31.1514600" lon="35.3427900">
<ele>-202.500000</ele>
<time>2022-03-15T09:19:22.341Z</time>
</trkpt>
<trkpt lat="31.1514800" lon="35.3429300">
<ele>-205.300003</ele>
<time>2022-03-15T09:19:22.341Z</time>
</trkpt>
<trkpt lat="31.1515000" lon="35.3432900">
<ele>-215.060013</ele>
<time>2022-03-15T09:19:22.341Z</time>
</trkpt>
<trkpt lat="31.1515000" lon="35.3433900">
<ele>-218.319992</ele>
<time>2022-03-15T09:19:22.341Z</time>
</trkpt>
<trkpt lat="31.1516500" lon="35.3435500">
<ele>-221.990005</ele>
<time>2022-03-15T09:19:22.341Z</time>
</trkpt>
<trkpt lat="31.1516900" lon="35.3436200">
<ele>-224.379990</ele>
<time>2022-03-15T09:19:22.341Z</time>
</trkpt>
<trkpt lat="31.1517000" lon="35.3436900">
<ele>-227.339996</ele>
<time>2022-03-15T09:19:22.342Z</time>
</trkpt>
<trkpt lat="31.1516700" lon="35.3437400">
<ele>-229.559998</ele>
<time>2022-03-15T09:19:22.342Z</time>
</trkpt>
<trkpt lat="31.1516400" lon="35.3437600">
<ele>-230.510010</ele>
<time>2022-03-15T09:19:22.342Z</time>
</trkpt>
<trkpt lat="31.1516400" lon="35.3437600">
<ele>-230.510010</ele>
<time>2022-03-15T09:19:22.342Z</time>
</trkpt>
<trkpt lat="31.1515900" lon="35.3438000">
<ele>-232.240005</ele>
<time>2022-03-15T09:19:22.342Z</time>
</trkpt>
<trkpt lat="31.1515500" lon="35.3438700">
<ele>-234.880005</ele>
<time>2022-03-15T09:19:22.342Z</time>
</trkpt>
<trkpt lat="31.1515600" lon="35.3439300">
<ele>-236.889999</ele>
<time>2022-03-15T09:19:22.342Z</time>
</trkpt>
<trkpt lat="31.1517100" lon="35.3440800">
<ele>-242.090012</ele>
<time>2022-03-15T09:19:22.342Z</time>
</trkpt>
<trkpt lat="31.1517200" lon="35.3441500">
<ele>-244.440002</ele>
<time>2022-03-15T09:19:22.342Z</time>
</trkpt>
<trkpt lat="31.1516900" lon="35.3443100">
<ele>-250.420013</ele>
<time>2022-03-15T09:19:22.342Z</time>
</trkpt>
<trkpt lat="31.1516900" lon="35.3444400">
<ele>-255.340012</ele>
<time>2022-03-15T09:19:22.342Z</time>
</trkpt>
<trkpt lat="31.1517500" lon="35.3447100">
<ele>-267.790009</ele>
<time>2022-03-15T09:19:22.342Z</time>
</trkpt>
<trkpt lat="31.1517400" lon="35.3448400">
<ele>-271.010010</ele>
<time>2022-03-15T09:19:22.342Z</time>
</trkpt>
<trkpt lat="31.1516300" lon="35.3449500">
<ele>-273.209991</ele>
<time>2022-03-15T09:19:22.342Z</time>
</trkpt>
<trkpt lat="31.1516500" lon="35.3450700">
<ele>-276.040009</ele>
<time>2022-03-15T09:19:22.342Z</time>
</trkpt>
<trkpt lat="31.1516000" lon="35.3452400">
<ele>-278.569977</ele>
<time>2022-03-15T09:19:22.342Z</time>
</trkpt>
<trkpt lat="31.1516200" lon="35.3453400">
<ele>-280.539978</ele>
<time>2022-03-15T09:19:22.342Z</time>
</trkpt>
<trkpt lat="31.1516800" lon="35.3453400">
<ele>-280.679993</ele>
<time>2022-03-15T09:19:22.342Z</time>
</trkpt>
<trkpt lat="31.1517900" lon="35.3453700">
<ele>-279.260010</ele>
<time>2022-03-15T09:19:22.342Z</time>
</trkpt>
<trkpt lat="31.1518000" lon="35.3454900">
<ele>-280.399994</ele>
<time>2022-03-15T09:19:22.342Z</time>
</trkpt>
<trkpt lat="31.1517600" lon="35.3455400">
<ele>-281.800018</ele>
<time>2022-03-15T09:19:22.342Z</time>
</trkpt>
<trkpt lat="31.1516600" lon="35.3456300">
<ele>-285.089996</ele>
<time>2022-03-15T09:19:22.343Z</time>
</trkpt>
<trkpt lat="31.1516600" lon="35.3456300">
<ele>-285.089996</ele>
<time>2022-03-15T09:19:22.343Z</time>
</trkpt>
<trkpt lat="31.1516000" lon="35.3456700">
<ele>-285.790009</ele>
<time>2022-03-15T09:19:22.343Z</time>
</trkpt>
<trkpt lat="31.1515800" lon="35.3457200">
<ele>-286.500000</ele>
<time>2022-03-15T09:19:22.343Z</time>
</trkpt>
<trkpt lat="31.1515400" lon="35.3458900">
<ele>-288.580017</ele>
<time>2022-03-15T09:19:22.343Z</time>
</trkpt>
<trkpt lat="31.1514900" lon="35.3459500">
<ele>-289.489990</ele>
<time>2022-03-15T09:19:22.343Z</time>
</trkpt>
<trkpt lat="31.1513500" lon="35.3460100">
<ele>-291.470001</ele>
<time>2022-03-15T09:19:22.343Z</time>
</trkpt>
<trkpt lat="31.1512000" lon="35.3459900">
<ele>-292.390015</ele>
<time>2022-03-15T09:19:22.343Z</time>
</trkpt>
<trkpt lat="31.1511400" lon="35.3460100">
<ele>-293.049988</ele>
<time>2022-03-15T09:19:22.343Z</time>
</trkpt>
<trkpt lat="31.1511100" lon="35.3460600">
<ele>-293.639984</ele>
<time>2022-03-15T09:19:22.343Z</time>
</trkpt>
<trkpt lat="31.1510800" lon="35.3462100">
<ele>-294.109985</ele>
<time>2022-03-15T09:19:22.343Z</time>
</trkpt>
<trkpt lat="31.1510200" lon="35.3461400">
<ele>-294.329987</ele>
<time>2022-03-15T09:19:22.343Z</time>
</trkpt>
<trkpt lat="31.1509300" lon="35.3461000">
<ele>-294.570007</ele>
<time>2022-03-15T09:19:22.343Z</time>
</trkpt>
<trkpt lat="31.1508100" lon="35.3461200">
<ele>-294.830017</ele>
<time>2022-03-15T09:19:22.343Z</time>
</trkpt>
<trkpt lat="31.1507100" lon="35.3462100">
<ele>-294.269989</ele>
<time>2022-03-15T09:19:22.343Z</time>
</trkpt>
<trkpt lat="31.1506700" lon="35.3462900">
<ele>-294.199982</ele>
<time>2022-03-15T09:19:22.343Z</time>
</trkpt>
<trkpt lat="31.1506700" lon="35.3462900">
<ele>-294.199982</ele>
<time>2022-03-15T09:19:22.343Z</time>
</trkpt>
<trkpt lat="31.1506700" lon="35.3462900">
<ele>-294.199982</ele>
<time>2022-03-15T09:19:22.343Z</time>
</trkpt>
<trkpt lat="31.1506500" lon="35.3463700">
<ele>-294.300018</ele>
<time>2022-03-15T09:19:22.343Z</time>
</trkpt>
<trkpt lat="31.1506600" lon="35.3464800">
<ele>-294.949982</ele>
<time>2022-03-15T09:19:22.343Z</time>
</trkpt>
<trkpt lat="31.1506800" lon="35.3466100">
<ele>-295.959991</ele>
<time>2022-03-15T09:19:22.343Z</time>
</trkpt>
<trkpt lat="31.1507500" lon="35.3470900">
<ele>-299.660004</ele>
<time>2022-03-15T09:19:22.344Z</time>
</trkpt>
<trkpt lat="31.1506100" lon="35.3472800">
<ele>-298.040009</ele>
<time>2022-03-15T09:19:22.344Z</time>
</trkpt>
<trkpt lat="31.1506500" lon="35.3479500">
<ele>-303.950012</ele>
<time>2022-03-15T09:19:22.344Z</time>
</trkpt>
<trkpt lat="31.1506800" lon="35.3482600">
<ele>-304.449982</ele>
<time>2022-03-15T09:19:22.344Z</time>
</trkpt>
<trkpt lat="31.1508000" lon="35.3486800">
<ele>-303.440002</ele>
<time>2022-03-15T09:19:22.344Z</time>
</trkpt>
<trkpt lat="31.1508600" lon="35.3492400">
<ele>-308.700012</ele>
<time>2022-03-15T09:19:22.344Z</time>
</trkpt>
<trkpt lat="31.1510400" lon="35.3494700">
<ele>-313.160004</ele>
<time>2022-03-15T09:19:22.344Z</time>
</trkpt>
<trkpt lat="31.1512700" lon="35.3497800">
<ele>-315.090027</ele>
<time>2022-03-15T09:19:22.344Z</time>
</trkpt>
<trkpt lat="31.1512700" lon="35.3500100">
<ele>-315.940002</ele>
<time>2022-03-15T09:19:22.344Z</time>
</trkpt>
<trkpt lat="31.1511500" lon="35.3504300">
<ele>-315.350006</ele>
<time>2022-03-15T09:19:22.344Z</time>
</trkpt>
<trkpt lat="31.1511500" lon="35.3510100">
<ele>-316.110016</ele>
<time>2022-03-15T09:19:22.344Z</time>
</trkpt>
<trkpt lat="31.1511400" lon="35.3510600">
<ele>-316.360016</ele>
<time>2022-03-15T09:19:22.344Z</time>
</trkpt>
<trkpt lat="31.1511400" lon="35.3510600">
<ele>-316.360016</ele>
<time>2022-03-15T09:19:22.344Z</time>
</trkpt>
<trkpt lat="31.1510900" lon="35.3512400">
<ele>-316.930023</ele>
<time>2022-03-15T09:19:22.344Z</time>
</trkpt>
<trkpt lat="31.1510700" lon="35.3513400">
<ele>-316.760010</ele>
<time>2022-03-15T09:19:22.344Z</time>
</trkpt>
<trkpt lat="31.1509400" lon="35.3516500">
<ele>-314.110016</ele>
<time>2022-03-15T09:19:22.344Z</time>
</trkpt>
<trkpt lat="31.1507100" lon="35.3521100">
<ele>-318.760010</ele>
<time>2022-03-15T09:19:22.344Z</time>
</trkpt>
<trkpt lat="31.1505500" lon="35.3524100">
<ele>-323.839996</ele>
<time>2022-03-15T09:19:22.344Z</time>
</trkpt>
<trkpt lat="31.1504800" lon="35.3525600">
<ele>-321.949982</ele>
<time>2022-03-15T09:19:22.344Z</time>
</trkpt>
<trkpt lat="31.1505200" lon="35.3527600">
<ele>-323.470001</ele>
<time>2022-03-15T09:19:22.344Z</time>
</trkpt>
<trkpt lat="31.1504600" lon="35.3530100">
<ele>-319.230011</ele>
<time>2022-03-15T09:19:22.344Z</time>
</trkpt>
<trkpt lat="31.1504100" lon="35.3532400">
<ele>-315.640015</ele>
<time>2022-03-15T09:19:22.344Z</time>
</trkpt>
<trkpt lat="31.1504200" lon="35.3535000">
<ele>-312.669983</ele>
<time>2022-03-15T09:19:22.345Z</time>
</trkpt>
<trkpt lat="31.1504000" lon="35.3538100">
<ele>-312.279999</ele>
<time>2022-03-15T09:19:22.345Z</time>
</trkpt>
<trkpt lat="31.1503000" lon="35.3540900">
<ele>-313.429993</ele>
<time>2022-03-15T09:19:22.345Z</time>
</trkpt>
<trkpt lat="31.1501600" lon="35.3542400">
<ele>-313.250000</ele>
<time>2022-03-15T09:19:22.345Z</time>
</trkpt>
<trkpt lat="31.1500100" lon="35.3543600">
<ele>-315.109985</ele>
<time>2022-03-15T09:19:22.345Z</time>
</trkpt>
<trkpt lat="31.1499700" lon="35.3544100">
<ele>-316.129974</ele>
<time>2022-03-15T09:19:22.345Z</time>
</trkpt>
<trkpt lat="31.1498800" lon="35.3545100">
<ele>-316.710022</ele>
<time>2022-03-15T09:19:22.345Z</time>
</trkpt>
<trkpt lat="31.1497800" lon="35.3546100">
<ele>-317.850006</ele>
<time>2022-03-15T09:19:22.345Z</time>
</trkpt>
<trkpt lat="31.1493300" lon="35.3549600">
<ele>-325.410004</ele>
<time>2022-03-15T09:19:22.345Z</time>
</trkpt>
<trkpt lat="31.1492600" lon="35.3550400">
<ele>-325.790009</ele>
<time>2022-03-15T09:19:22.345Z</time>
</trkpt>
<trkpt lat="31.1492000" lon="35.3551500">
<ele>-324.630005</ele>
<time>2022-03-15T09:19:22.345Z</time>
</trkpt>
<trkpt lat="31.1491700" lon="35.3552600">
<ele>-323.239990</ele>
<time>2022-03-15T09:19:22.345Z</time>
</trkpt>
<trkpt lat="31.1491500" lon="35.3554500">
<ele>-321.720001</ele>
<time>2022-03-15T09:19:22.345Z</time>
</trkpt>
<trkpt lat="31.1491500" lon="35.3555600">
<ele>-320.720001</ele>
<time>2022-03-15T09:19:22.345Z</time>
</trkpt>
<trkpt lat="31.1491500" lon="35.3555600">
<ele>-320.720001</ele>
<time>2022-03-15T09:19:22.345Z</time>
</trkpt>
<trkpt lat="31.1491500" lon="35.3556600">
<ele>-320.809998</ele>
<time>2022-03-15T09:19:22.345Z</time>
</trkpt>
<trkpt lat="31.1490900" lon="35.3559900">
<ele>-323.789978</ele>
<time>2022-03-15T09:19:22.345Z</time>
</trkpt>
<trkpt lat="31.1489900" lon="35.3562500">
<ele>-326.630005</ele>
<time>2022-03-15T09:19:22.345Z</time>
</trkpt>
<trkpt lat="31.1486700" lon="35.3569700">
<ele>-329.540009</ele>
<time>2022-03-15T09:19:22.345Z</time>
</trkpt>
<trkpt lat="31.1485800" lon="35.3572400">
<ele>-329.439972</ele>
<time>2022-03-15T09:19:22.346Z</time>
</trkpt>
<trkpt lat="31.1485600" lon="35.3573900">
<ele>-329.619995</ele>
<time>2022-03-15T09:19:22.346Z</time>
</trkpt>
<trkpt lat="31.1485700" lon="35.3578400">
<ele>-328.889984</ele>
<time>2022-03-15T09:19:22.346Z</time>
</trkpt>
<trkpt lat="31.1486300" lon="35.3581600">
<ele>-326.799988</ele>
<time>2022-03-15T09:19:22.346Z</time>
</trkpt>
<trkpt lat="31.1486700" lon="35.3584300">
<ele>-324.309998</ele>
<time>2022-03-15T09:19:22.346Z</time>
</trkpt>
<trkpt lat="31.1486800" lon="35.3586500">
<ele>-323.260010</ele>
<time>2022-03-15T09:19:22.346Z</time>
</trkpt>
<trkpt lat="31.1487400" lon="35.3590200">
<ele>-322.700012</ele>
<time>2022-03-15T09:19:22.346Z</time>
</trkpt>
<trkpt lat="31.1488200" lon="35.3592800">
<ele>-322.350006</ele>
<time>2022-03-15T09:19:22.346Z</time>
</trkpt>
<trkpt lat="31.1490800" lon="35.3598100">
<ele>-326.730011</ele>
<time>2022-03-15T09:19:22.346Z</time>
</trkpt>
<trkpt lat="31.1491700" lon="35.3600600">
<ele>-327.049988</ele>
<time>2022-03-15T09:19:22.346Z</time>
</trkpt>
<trkpt lat="31.1493100" lon="35.3604100">
<ele>-328.490021</ele>
<time>2022-03-15T09:19:22.346Z</time>
</trkpt>
<trkpt lat="31.1493300" lon="35.3604600">
<ele>-328.720001</ele>
<time>2022-03-15T09:19:22.346Z</time>
</trkpt>
<trkpt lat="31.1493300" lon="35.3604600">
<ele>-328.720001</ele>
<time>2022-03-15T09:19:22.346Z</time>
</trkpt>
<trkpt lat="31.1494900" lon="35.3608400">
<ele>-332.720001</ele>
<time>2022-03-15T09:19:22.346Z</time>
</trkpt>
<trkpt lat="31.1495800" lon="35.3610000">
<ele>-335.170013</ele>
<time>2022-03-15T09:19:22.346Z</time>
</trkpt>
<trkpt lat="31.1496700" lon="35.3611000">
<ele>-336.570007</ele>
<time>2022-03-15T09:19:22.346Z</time>
</trkpt>
<trkpt lat="31.1497400" lon="35.3611500">
<ele>-336.970032</ele>
<time>2022-03-15T09:19:22.346Z</time>
</trkpt>
<trkpt lat="31.1499200" lon="35.3611900">
<ele>-339.979980</ele>
<time>2022-03-15T09:19:22.346Z</time>
</trkpt>
<trkpt lat="31.1500600" lon="35.3612500">
<ele>-342.279968</ele>
<time>2022-03-15T09:19:22.346Z</time>
</trkpt>
<trkpt lat="31.1502000" lon="35.3613600">
<ele>-343.760010</ele>
<time>2022-03-15T09:19:22.347Z</time>
</trkpt>
<trkpt lat="31.1502600" lon="35.3614600">
<ele>-344.290009</ele>
<time>2022-03-15T09:19:22.347Z</time>
</trkpt>
<trkpt lat="31.1503200" lon="35.3616200">
<ele>-344.959991</ele>
<time>2022-03-15T09:19:22.347Z</time>
</trkpt>
<trkpt lat="31.1503900" lon="35.3617800">
<ele>-346.300018</ele>
<time>2022-03-15T09:19:22.347Z</time>
</trkpt>
<trkpt lat="31.1504200" lon="35.3620900">
<ele>-349.859985</ele>
<time>2022-03-15T09:19:22.347Z</time>
</trkpt>
<trkpt lat="31.1504300" lon="35.3622000">
<ele>-351.720001</ele>
<time>2022-03-15T09:19:22.347Z</time>
</trkpt>
<trkpt lat="31.1504500" lon="35.3623100">
<ele>-353.500000</ele>
<time>2022-03-15T09:19:22.347Z</time>
</trkpt>
<trkpt lat="31.1504800" lon="35.3624000">
<ele>-355.020020</ele>
<time>2022-03-15T09:19:22.347Z</time>
</trkpt>
<trkpt lat="31.1505300" lon="35.3624900">
<ele>-356.669983</ele>
<time>2022-03-15T09:19:22.347Z</time>
</trkpt>
<trkpt lat="31.1505900" lon="35.3625800">
<ele>-358.279999</ele>
<time>2022-03-15T09:19:22.347Z</time>
</trkpt>
<trkpt lat="31.1506600" lon="35.3626600">
<ele>-359.679993</ele>
<time>2022-03-15T09:19:22.347Z</time>
</trkpt>
<trkpt lat="31.1507200" lon="35.3627100">
<ele>-360.619995</ele>
<time>2022-03-15T09:19:22.347Z</time>
</trkpt>
<trkpt lat="31.1508000" lon="35.3627600">
<ele>-361.620026</ele>
<time>2022-03-15T09:19:22.347Z</time>
</trkpt>
<trkpt lat="31.1508800" lon="35.3627800">
<ele>-362.369995</ele>
<time>2022-03-15T09:19:22.347Z</time>
</trkpt>
<trkpt lat="31.1509600" lon="35.3627900">
<ele>-363.089996</ele>
<time>2022-03-15T09:19:22.347Z</time>
</trkpt>
<trkpt lat="31.1513300" lon="35.3628200">
<ele>-365.399994</ele>
<time>2022-03-15T09:19:22.347Z</time>
</trkpt>
<trkpt lat="31.1514300" lon="35.3628400">
<ele>-366.259979</ele>
<time>2022-03-15T09:19:22.347Z</time>
</trkpt>
<trkpt lat="31.1515200" lon="35.3628600">
<ele>-367.409973</ele>
<time>2022-03-15T09:19:22.347Z</time>
</trkpt>
<trkpt lat="31.1516200" lon="35.3629000">
<ele>-369.160004</ele>
<time>2022-03-15T09:19:22.347Z</time>
</trkpt>
<trkpt lat="31.1517000" lon="35.3629500">
<ele>-370.449982</ele>
<time>2022-03-15T09:19:22.347Z</time>
</trkpt>
<trkpt lat="31.1517800" lon="35.3630100">
<ele>-370.929993</ele>
<time>2022-03-15T09:19:22.348Z</time>
</trkpt>
<trkpt lat="31.1518500" lon="35.3630900">
<ele>-371.430023</ele>
<time>2022-03-15T09:19:22.348Z</time>
</trkpt>
<trkpt lat="31.1519200" lon="35.3631700">
<ele>-371.839996</ele>
<time>2022-03-15T09:19:22.348Z</time>
</trkpt>
<trkpt lat="31.1519700" lon="35.3632500">
<ele>-372.399994</ele>
<time>2022-03-15T09:19:22.348Z</time>
</trkpt>
<trkpt lat="31.1520300" lon="35.3633600">
<ele>-373.119995</ele>
<time>2022-03-15T09:19:22.348Z</time>
</trkpt>
<trkpt lat="31.1520700" lon="35.3634500">
<ele>-373.829987</ele>
<time>2022-03-15T09:19:22.348Z</time>
</trkpt>
<trkpt lat="31.1521700" lon="35.3636800">
<ele>-376.119995</ele>
<time>2022-03-15T09:19:22.348Z</time>
</trkpt>
<trkpt lat="31.1521800" lon="35.3637400">
<ele>-376.699982</ele>
<time>2022-03-15T09:19:22.348Z</time>
</trkpt>
<trkpt lat="31.1521900" lon="35.3637900">
<ele>-377.160004</ele>
<time>2022-03-15T09:19:22.348Z</time>
</trkpt>
<trkpt lat="31.1521900" lon="35.3638600">
<ele>-377.920013</ele>
<time>2022-03-15T09:19:22.348Z</time>
</trkpt>
<trkpt lat="31.1521700" lon="35.3639500">
<ele>-378.950012</ele>
<time>2022-03-15T09:19:22.348Z</time>
</trkpt>
<trkpt lat="31.1521500" lon="35.3639800">
<ele>-379.329987</ele>
<time>2022-03-15T09:19:22.348Z</time>
</trkpt>
<trkpt lat="31.1521400" lon="35.3640100">
<ele>-379.640015</ele>
<time>2022-03-15T09:19:22.348Z</time>
</trkpt>
<trkpt lat="31.1521300" lon="35.3640500">
<ele>-380.019989</ele>
<time>2022-03-15T09:19:22.348Z</time>
</trkpt>
<trkpt lat="31.1521300" lon="35.3641100">
<ele>-380.519989</ele>
<time>2022-03-15T09:19:22.348Z</time>
</trkpt>
<trkpt lat="31.1521300" lon="35.3641400">
<ele>-380.779999</ele>
<time>2022-03-15T09:19:22.349Z</time>
</trkpt>
<trkpt lat="31.1521500" lon="35.3641800">
<ele>-381.040009</ele>
<time>2022-03-15T09:19:22.349Z</time>
</trkpt>
<trkpt lat="31.1521700" lon="35.3642200">
<ele>-381.160004</ele>
<time>2022-03-15T09:19:22.349Z</time>
</trkpt>
<trkpt lat="31.1521900" lon="35.3642500">
<ele>-381.270020</ele>
<time>2022-03-15T09:19:22.349Z</time>
</trkpt>
<trkpt lat="31.1522000" lon="35.3642700">
<ele>-381.339996</ele>
<time>2022-03-15T09:19:22.349Z</time>
</trkpt>
<trkpt lat="31.1522300" lon="35.3642900">
<ele>-381.470001</ele>
<time>2022-03-15T09:19:22.349Z</time>
</trkpt>
<trkpt lat="31.1522500" lon="35.3643000">
<ele>-381.579987</ele>
<time>2022-03-15T09:19:22.349Z</time>
</trkpt>
<trkpt lat="31.1522800" lon="35.3643100">
<ele>-381.730011</ele>
<time>2022-03-15T09:19:22.349Z</time>
</trkpt>
<trkpt lat="31.1523600" lon="35.3643500">
<ele>-382.309998</ele>
<time>2022-03-15T09:19:22.349Z</time>
</trkpt>
<trkpt lat="31.1524000" lon="35.3643800">
<ele>-382.750000</ele>
<time>2022-03-15T09:19:22.349Z</time>
</trkpt>
<trkpt lat="31.1524400" lon="35.3644300">
<ele>-383.429993</ele>
<time>2022-03-15T09:19:22.349Z</time>
</trkpt>
<trkpt lat="31.1524600" lon="35.3644600">
<ele>-383.719971</ele>
<time>2022-03-15T09:19:22.349Z</time>
</trkpt>
<trkpt lat="31.1527900" lon="35.3652900">
<ele>-386.049988</ele>
<time>2022-03-15T09:19:22.349Z</time>
</trkpt>
<trkpt lat="31.1529700" lon="35.3657300">
<ele>-388.510010</ele>
<time>2022-03-15T09:19:22.349Z</time>
</trkpt>
<trkpt lat="31.1528700" lon="35.3658000">
<ele>-387.290009</ele>
<time>2022-03-15T09:19:22.349Z</time>
</trkpt>
<trkpt lat="31.1528300" lon="35.3658200">
<ele>-386.739990</ele>
<time>2022-03-15T09:19:22.349Z</time>
</trkpt>
<trkpt lat="31.1528000" lon="35.3658700">
<ele>-386.429993</ele>
<time>2022-03-15T09:19:22.349Z</time>
</trkpt>
<trkpt lat="31.1527800" lon="35.3659400">
<ele>-386.410004</ele>
<time>2022-03-15T09:19:22.349Z</time>
</trkpt>
<trkpt lat="31.1527800" lon="35.3659600">
<ele>-386.480011</ele>
<time>2022-03-15T09:19:22.350Z</time>
</trkpt>
<trkpt lat="31.1526800" lon="35.3659600">
<ele>-386.809998</ele>
<time>2022-03-15T09:19:22.350Z</time>
</trkpt>
<trkpt lat="31.1526300" lon="35.3659700">
<ele>-387.019989</ele>
<time>2022-03-15T09:19:22.350Z</time>
</trkpt>
<trkpt lat="31.1525300" lon="35.3660200">
<ele>-387.559998</ele>
<time>2022-03-15T09:19:22.350Z</time>
</trkpt>
<trkpt lat="31.1525400" lon="35.3660400">
<ele>-387.600006</ele>
<time>2022-03-15T09:19:22.350Z</time>
</trkpt>
<trkpt lat="31.1525400" lon="35.3660400">
<ele>-387.600006</ele>
<time>2022-03-15T09:19:22.350Z</time>
</trkpt>
<trkpt lat="31.1525300" lon="35.3660200">
<ele>-387.559998</ele>
<time>2022-03-15T09:19:22.350Z</time>
</trkpt>
<trkpt lat="31.1526300" lon="35.3659700">
<ele>-387.019989</ele>
<time>2022-03-15T09:19:22.350Z</time>
</trkpt>
<trkpt lat="31.1526800" lon="35.3659600">
<ele>-386.809998</ele>
<time>2022-03-15T09:19:22.350Z</time>
</trkpt>
<trkpt lat="31.1527800" lon="35.3659600">
<ele>-386.480011</ele>
<time>2022-03-15T09:19:22.350Z</time>
</trkpt>
<trkpt lat="31.1527800" lon="35.3659900">
<ele>-386.589996</ele>
<time>2022-03-15T09:19:22.350Z</time>
</trkpt>
<trkpt lat="31.1528100" lon="35.3660600">
<ele>-387.089996</ele>
<time>2022-03-15T09:19:22.350Z</time>
</trkpt>
<trkpt lat="31.1528500" lon="35.3661000">
<ele>-387.500000</ele>
<time>2022-03-15T09:19:22.350Z</time>
</trkpt>
<trkpt lat="31.1529000" lon="35.3661100">
<ele>-387.879974</ele>
<time>2022-03-15T09:19:22.350Z</time>
</trkpt>
<trkpt lat="31.1529500" lon="35.3661100">
<ele>-388.239990</ele>
<time>2022-03-15T09:19:22.350Z</time>
</trkpt>
<trkpt lat="31.1530000" lon="35.3660800">
<ele>-388.670013</ele>
<time>2022-03-15T09:19:22.350Z</time>
</trkpt>
<trkpt lat="31.1530400" lon="35.3660500">
<ele>-389.079987</ele>
<time>2022-03-15T09:19:22.350Z</time>
</trkpt>
<trkpt lat="31.1530900" lon="35.3660000">
<ele>-389.649994</ele>
<time>2022-03-15T09:19:22.350Z</time>
</trkpt>
<trkpt lat="31.1538200" lon="35.3659900">
<ele>-387.850006</ele>
<time>2022-03-15T09:19:22.350Z</time>
</trkpt>
<trkpt lat="31.1538500" lon="35.3660600">
<ele>-387.449982</ele>
<time>2022-03-15T09:19:22.350Z</time>
</trkpt>
<trkpt lat="31.1534100" lon="35.3661200">
<ele>-390.750000</ele>
<time>2022-03-15T09:19:22.350Z</time>
</trkpt>
<trkpt lat="31.1532200" lon="35.3661500">
<ele>-390.380005</ele>
<time>2022-03-15T09:19:22.350Z</time>
</trkpt>
<trkpt lat="31.1529300" lon="35.3661800">
<ele>-388.479980</ele>
<time>2022-03-15T09:19:22.350Z</time>
</trkpt>
<trkpt lat="31.1528400" lon="35.3661800">
<ele>-387.750000</ele>
<time>2022-03-15T09:19:22.350Z</time>
</trkpt>
<trkpt lat="31.1527000" lon="35.3662000">
<ele>-387.510010</ele>
<time>2022-03-15T09:19:22.350Z</time>
</trkpt>
<trkpt lat="31.1522000" lon="35.3665000">
<ele>-388.510010</ele>
<time>2022-03-15T09:19:22.350Z</time>
</trkpt>
<trkpt lat="31.1522000" lon="35.3665000">
<ele>-388.510010</ele>
<time>2022-03-15T09:19:22.350Z</time>
</trkpt>
<trkpt lat="31.1519600" lon="35.3666400">
<ele>-390.699982</ele>
<time>2022-03-15T09:19:22.350Z</time>
</trkpt>
<trkpt lat="31.1518600" lon="35.3667200">
<ele>-391.250031</ele>
<time>2022-03-15T09:19:22.350Z</time>
</trkpt>
<trkpt lat="31.1517900" lon="35.3668100">
<ele>-391.800018</ele>
<time>2022-03-15T09:19:22.350Z</time>
</trkpt>
<trkpt lat="31.1517200" lon="35.3670000">
<ele>-392.809998</ele>
<time>2022-03-15T09:19:22.350Z</time>
</trkpt>
<trkpt lat="31.1516500" lon="35.3670600">
<ele>-393.000000</ele>
<time>2022-03-15T09:19:22.350Z</time>
</trkpt>
<trkpt lat="31.1515500" lon="35.3670900">
<ele>-393.000000</ele>
<time>2022-03-15T09:19:22.351Z</time>
</trkpt>
<trkpt lat="31.1513400" lon="35.3670500">
<ele>-392.709991</ele>
<time>2022-03-15T09:19:22.351Z</time>
</trkpt>
<trkpt lat="31.1510800" lon="35.3669400">
<ele>-390.760010</ele>
<time>2022-03-15T09:19:22.351Z</time>
</trkpt>
<trkpt lat="31.1509000" lon="35.3668200">
<ele>-389.710022</ele>
<time>2022-03-15T09:19:22.351Z</time>
</trkpt>
<trkpt lat="31.1506800" lon="35.3664800">
<ele>-388.589996</ele>
<time>2022-03-15T09:19:22.351Z</time>
</trkpt>
<trkpt lat="31.1506000" lon="35.3663200">
<ele>-388.120026</ele>
<time>2022-03-15T09:19:22.351Z</time>
</trkpt>
<trkpt lat="31.1505400" lon="35.3661700">
<ele>-387.889984</ele>
<time>2022-03-15T09:19:22.351Z</time>
</trkpt>
<trkpt lat="31.1504700" lon="35.3658900">
<ele>-387.319977</ele>
<time>2022-03-15T09:19:22.351Z</time>
</trkpt>
<trkpt lat="31.1504700" lon="35.3658300">
<ele>-387.300018</ele>
<time>2022-03-15T09:19:22.351Z</time>
</trkpt>
<trkpt lat="31.1504700" lon="35.3658300">
<ele>-387.300018</ele>
<time>2022-03-15T09:19:22.351Z</time>
</trkpt>
<trkpt lat="31.1504600" lon="35.3655900">
<ele>-386.470001</ele>
<time>2022-03-15T09:19:22.351Z</time>
</trkpt>
<trkpt lat="31.1504000" lon="35.3655700">
<ele>-386.610016</ele>
<time>2022-03-15T09:19:22.351Z</time>
</trkpt>
<trkpt lat="31.1501000" lon="35.3655000">
<ele>-387.440002</ele>
<time>2022-03-15T09:19:22.351Z</time>
</trkpt>
<trkpt lat="31.1500600" lon="35.3655000">
<ele>-387.579987</ele>
<time>2022-03-15T09:19:22.351Z</time>
</trkpt>
<trkpt lat="31.1499100" lon="35.3655300">
<ele>-387.260010</ele>
<time>2022-03-15T09:19:22.352Z</time>
</trkpt>
<trkpt lat="31.1496900" lon="35.3656700">
<ele>-386.759979</ele>
<time>2022-03-15T09:19:22.352Z</time>
</trkpt>
<trkpt lat="31.1495300" lon="35.3659800">
<ele>-389.260010</ele>
<time>2022-03-15T09:19:22.352Z</time>
</trkpt>
<trkpt lat="31.1495300" lon="35.3659800">
<ele>-389.260010</ele>
<time>2022-03-15T09:19:22.352Z</time>
</trkpt>
<trkpt lat="31.1494800" lon="35.3660800">
<ele>-390.439972</ele>
<time>2022-03-15T09:19:22.352Z</time>
</trkpt>
<trkpt lat="31.1493400" lon="35.3666200">
<ele>-391.059998</ele>
<time>2022-03-15T09:19:22.352Z</time>
</trkpt>
<trkpt lat="31.1491600" lon="35.3670800">
<ele>-390.959991</ele>
<time>2022-03-15T09:19:22.352Z</time>
</trkpt>
<trkpt lat="31.1491400" lon="35.3676400">
<ele>-391.000000</ele>
<time>2022-03-15T09:19:22.352Z</time>
</trkpt>
<trkpt lat="31.1488800" lon="35.3679600">
<ele>-390.959991</ele>
<time>2022-03-15T09:19:22.352Z</time>
</trkpt>
<trkpt lat="31.1487300" lon="35.3680900">
<ele>-390.619995</ele>
<time>2022-03-15T09:19:22.352Z</time>
</trkpt>
<trkpt lat="31.1483700" lon="35.3683100">
<ele>-392.629974</ele>
<time>2022-03-15T09:19:22.352Z</time>
</trkpt>
<trkpt lat="31.1481500" lon="35.3684900">
<ele>-391.389984</ele>
<time>2022-03-15T09:19:22.352Z</time>
</trkpt>
<trkpt lat="31.1480200" lon="35.3686300">
<ele>-390.679993</ele>
<time>2022-03-15T09:19:22.352Z</time>
</trkpt>
<trkpt lat="31.1479200" lon="35.3687800">
<ele>-389.710022</ele>
<time>2022-03-15T09:19:22.352Z</time>
</trkpt>
<trkpt lat="31.1478000" lon="35.3690600">
<ele>-390.260010</ele>
<time>2022-03-15T09:19:22.352Z</time>
</trkpt>
<trkpt lat="31.1477900" lon="35.3691400">
<ele>-390.809998</ele>
<time>2022-03-15T09:19:22.352Z</time>
</trkpt>
<trkpt lat="31.1477900" lon="35.3691400">
<ele>-390.809998</ele>
<time>2022-03-15T09:19:22.352Z</time>
</trkpt>
<trkpt lat="31.1477800" lon="35.3692300">
<ele>-391.220001</ele>
<time>2022-03-15T09:19:22.352Z</time>
</trkpt>
<trkpt lat="31.1477400" lon="35.3693900">
<ele>-392.190002</ele>
<time>2022-03-15T09:19:22.352Z</time>
</trkpt>
<trkpt lat="31.1476900" lon="35.3695900">
<ele>-393.309998</ele>
<time>2022-03-15T09:19:22.352Z</time>
</trkpt>
<trkpt lat="31.1476500" lon="35.3699200">
<ele>-394.580017</ele>
<time>2022-03-15T09:19:22.352Z</time>
</trkpt>
<trkpt lat="31.1476900" lon="35.3698500">
<ele>-393.919983</ele>
<time>2022-03-15T09:19:22.352Z</time>
</trkpt>
<trkpt lat="31.1478000" lon="35.3697900">
<ele>-392.899994</ele>
<time>2022-03-15T09:19:22.353Z</time>
</trkpt>
<trkpt lat="31.1479700" lon="35.3697500">
<ele>-391.819977</ele>
<time>2022-03-15T09:19:22.353Z</time>
</trkpt>
<trkpt lat="31.1480400" lon="35.3697500">
<ele>-391.399994</ele>
<time>2022-03-15T09:19:22.353Z</time>
</trkpt>
<trkpt lat="31.1481300" lon="35.3697900">
<ele>-391.330017</ele>
<time>2022-03-15T09:19:22.353Z</time>
</trkpt>
</trkseg>
</trk>
</gpx>
